GFSCGP_925_spd_000.txt.gz
Wind_Speed
6 7 8 9 8 9 11 13 15 14 8 15 16 17 15 5 8 8 7 7 6 5 6 8 9 11 10 9 9 11 12 12 12 12 11 12 12 14 13 14 12 9 10 8
8 4 6 6 7 9 15 15 12 13 17 15 19 19 13 8 6 6 4 6 6 5 5 7 4 8 9 11 13 14 15 15 15 15 15 17 16 17 20 17 18 15 12 11
6 6 6 7 7 10 14 8 13 17 18 15 12 12 10 6 11 7 6 4 4 4 6 5 0 4 7 12 14 15 17 18 19 20 19 19 19 17 13 15 12 16 19 17
5 3 6 8 6 10 11 13 16 17 14 10 15 7 4 12 11 10 7 5 4 5 4 4 0 3 6 14 15 16 18 20 21 20 22 23 19 18 22 24 24 29 26 21
4 6 8 10 7 9 10 16 19 19 15 9 5 5 10 8 9 11 9 6 6 4 5 6 7 7 5 6 12 16 18 21 23 23 24 26 25 22 21 16 14 11 10 8
4 1 3 7 11 14 12 17 19 3 1 3 5 2 10 6 4 5 4 5 7 6 7 5 10 8 11 7 7 12 18 23 25 26 27 26 28 24 15 18 7 5 4 4
8 6 4 4 13 11 16 14 4 4 2 3 12 9 11 17 2 4 7 7 5 3 4 5 7 11 10 12 15 13 19 23 25 25 27 30 26 25 23 19 11 9 6 2
6 3 3 7 5 7 13 7 2 4 4 9 17 6 6 4 6 6 4 1 7 4 3 6 6 8 10 13 17 18 22 25 24 27 30 29 30 24 20 17 10 6 2 4
6 2 8 3 3 5 6 5 5 4 1 1 5 12 15 6 7 8 7 8 6 5 5 7 7 11 11 13 16 23 28 26 25 26 28 25 22 19 11 7 7 3 2 4
4 7 9 2 9 13 7 6 3 1 3 5 8 15 10 11 16 20 14 10 10 8 10 6 6 12 17 23 21 26 24 21 21 21 12 6 6 7 6 5 3 3 3 8
8 3 8 13 2 10 3 6 4 7 5 4 6 6 12 22 21 10 13 14 13 6 6 5 4 9 15 19 23 27 26 18 16 14 10 5 6 6 7 6 5 2 7 12
6 3 5 18 17 3 5 9 8 2 8 9 10 13 18 9 4 21 17 11 10 9 9 11 13 14 16 16 25 31 25 17 11 10 3 5 6 7 7 7 2 5 11 19
9 2 5 8 6 2 14 19 18 14 2 8 6 9 12 21 22 18 15 13 13 11 12 15 17 13 16 23 31 32 24 16 7 4 5 6 6 7 7 6 8 12 17 16
1 6 6 8 15 18 18 22 24 19 12 15 14 27 21 19 19 16 12 13 13 14 17 16 12 14 18 24 29 24 24 17 5 6 8 10 10 10 8 8 8 15 17 19
2 5 11 17 19 20 23 24 24 23 20 18 23 22 22 19 20 12 13 14 17 18 17 17 17 16 22 25 27 20 26 13 6 8 9 6 5 9 12 9 13 15 18 22
3 4 3 9 19 20 20 23 26 25 21 21 20 21 16 18 14 16 19 20 19 15 16 19 18 19 25 22 21 19 22 11 4 4 5 10 11 10 8 12 13 19 22 22
14 3 2 7 10 12 11 15 15 13 17 17 15 21 20 16 15 15 20 19 13 17 18 16 13 19 24 21 14 16 17 12 8 8 5 8 11 12 11 11 17 19 22 22
10 4 3 4 3 6 7 21 24 21 16 17 19 20 13 15 20 20 16 13 14 13 19 19 19 22 19 15 13 15 11 9 2 3 11 14 9 7 10 15 18 20 21 22
6 5 2 3 9 18 15 18 11 18 13 15 11 19 22 21 20 16 12 13 14 16 16 22 23 18 13 12 12 12 8 7 9 15 5 3 4 9 13 17 17 19 21 22
8 8 1 4 13 15 2 17 19 12 15 11 15 20 18 13 13 12 16 15 13 17 22 19 14 14 16 15 11 7 7 10 6 3 3 5 9 12 16 15 18 20 20 22
2 4 6 10 9 9 14 15 12 7 5 17 14 16 17 13 7 15 18 14 17 20 18 15 14 16 14 9 5 9 10 8 9 8 6 8 12 15 16 17 19 19 22 22
8 6 4 4 5 10 3 8 3 12 15 15 15 12 15 16 16 15 15 10 12 15 15 14 13 10 7 6 7 9 12 11 7 7 9 11 13 15 16 18 20 20 22 20
6 7 7 9 8 19 23 24 15 24 18 18 15 18 11 17 18 15 14 12 10 8 12 11 10 6 8 9 8 9 9 8 9 10 11 13 14 16 15 19 19 20 17 18
5 13 12 15 16 24 22 24 21 18 16 19 18 14 18 17 15 16 12 9 8 12 11 9 8 8 8 5 5 6 5 8 10 11 12 13 15 15 16 18 17 16 17 16
7 9 12 22 24 21 20 18 21 20 17 11 14 13 11 14 16 13 10 11 11 10 7 6 7 8 9 5 4 4 6 8 10 11 12 13 13 15 17 16 15 16 14 19
6 14 10 18 21 19 25 22 23 18 10 16 12 12 14 15 13 13 11 13 10 8 7 7 9 7 4 4 3 4 6 7 10 10 11 13 14 15 15 16 16 16 19 21

GFSCGP_925_spd_003.txt.gz
Wind_Speed
4 6 3 4 4 3 6 7 5 5 10 10 8 10 11 1 9 10 9 8 8 8 10 19 17 18 13 9 5 5 6 8 11 14 12 14 13 15 16 18 15 20 16 13
7 4 3 5 9 7 7 6 6 4 11 8 10 15 8 7 6 8 9 8 9 8 8 11 11 9 8 7 4 6 11 14 16 19 20 20 19 21 23 23 20 22 18 17
3 2 5 6 6 8 5 5 6 7 10 11 4 9 7 4 8 8 7 6 6 8 6 5 6 6 9 9 11 13 15 16 19 24 25 22 23 25 20 14 21 24 23 23
2 2 6 7 3 6 5 7 9 11 7 3 4 4 5 6 7 7 7 7 8 6 6 5 5 7 9 14 16 15 15 16 17 19 28 28 28 25 31 30 24 21 26 27
4 2 4 5 4 4 7 5 12 14 9 2 7 2 5 6 4 6 7 7 7 7 6 6 2 1 4 5 11 18 19 19 18 20 23 29 32 33 25 22 24 15 14 24
5 4 4 1 7 5 7 7 11 5 3 3 6 5 5 3 4 5 6 6 7 7 5 6 7 7 5 4 7 11 16 19 22 24 26 30 31 36 32 22 18 12 11 12
7 4 3 2 5 7 12 6 4 6 4 4 12 6 8 9 6 9 8 6 6 5 4 2 3 4 6 11 13 15 15 18 24 28 31 34 37 38 38 35 25 19 17 14
4 6 6 7 3 4 5 3 4 2 1 5 9 3 5 9 11 6 5 5 7 8 4 3 2 4 12 14 18 20 24 26 26 27 18 18 28 39 40 37 22 20 19 13
6 4 8 3 1 3 6 4 2 2 2 3 4 7 9 7 11 8 12 6 7 5 2 3 5 11 12 16 16 19 23 28 28 19 17 18 16 15 14 13 18 16 14 14
4 5 5 6 3 4 4 0 5 3 2 3 4 6 6 10 14 10 3 6 6 2 6 6 8 7 13 16 17 21 27 29 25 10 9 3 6 11 14 14 17 15 11 6
6 3 8 6 1 4 2 4 2 2 1 3 3 5 5 13 9 12 16 10 9 6 7 7 7 10 13 16 20 25 32 29 23 9 5 3 6 8 10 12 10 5 2 3
3 2 3 9 15 9 6 7 6 3 5 4 3 8 13 9 9 22 10 7 6 6 5 8 14 17 19 19 25 27 31 23 20 9 6 7 10 11 12 13 10 8 6 5
2 3 3 8 6 7 6 15 12 6 0 7 4 9 8 15 15 6 8 7 7 9 10 8 10 15 18 19 24 24 28 24 23 9 8 10 11 11 13 5 2 4 5 10
6 2 5 5 6 5 10 19 21 11 2 8 9 17 14 12 7 8 7 7 7 6 6 7 10 15 15 19 24 23 18 24 27 12 12 12 12 11 7 6 3 6 9 14
6 5 6 8 7 10 14 19 20 15 17 12 23 18 12 8 6 5 8 11 9 6 6 9 12 10 17 22 23 12 19 24 23 13 10 11 9 4 3 3 1 9 14 18
2 6 2 6 11 10 8 20 21 19 14 10 14 19 8 6 11 13 12 13 9 8 9 13 12 16 18 21 9 15 17 20 11 5 8 7 7 3 4 5 12 16 15 17
5 3 2 15 4 5 7 13 4 6 14 13 8 4 15 18 18 13 12 5 6 11 13 12 11 15 18 10 10 17 19 17 8 1 2 8 9 4 10 15 9 13 15 17
4 3 2 4 3 4 8 14 21 16 9 7 8 14 15 13 14 15 11 4 12 16 11 7 14 17 9 12 18 21 19 7 5 8 8 1 6 10 3 7 11 14 13 18
5 5 1 2 3 8 9 9 3 11 17 4 8 19 16 14 15 9 2 5 12 12 8 16 16 9 13 21 19 16 13 10 8 8 5 7 7 7 9 11 10 14 19 22
7 6 3 1 4 7 8 3 6 7 11 5 14 8 15 9 10 10 5 11 13 14 17 10 7 11 15 14 10 12 15 3 13 13 14 12 12 12 10 11 14 17 16 20
3 3 2 2 5 7 7 5 1 4 9 6 3 8 11 8 6 11 13 9 12 7 11 12 14 11 7 8 11 10 15 17 13 11 10 10 10 11 12 15 14 18 18 21
4 2 4 3 4 8 2 3 3 6 4 7 4 3 13 13 7 11 10 9 6 8 12 15 13 9 8 8 8 16 15 9 10 10 9 9 12 14 14 13 17 18 18 13
3 7 4 8 6 5 10 12 10 15 18 8 5 7 7 14 11 8 6 6 6 9 11 10 8 10 8 4 6 9 5 7 11 12 12 14 15 14 11 14 18 17 13 15
3 5 8 7 9 16 14 20 19 14 7 8 5 8 10 11 9 7 6 6 6 11 12 8 5 5 5 3 4 5 4 10 12 13 14 14 11 14 15 15 15 11 16 18
5 4 8 13 19 19 16 11 11 11 5 5 6 8 9 4 5 4 5 5 8 10 10 9 7 9 2 6 4 5 7 10 12 13 12 12 14 14 16 14 14 16 19 17
7 15 7 16 19 14 20 9 6 5 6 10 9 6 6 6 2 5 7 9 10 12 10 10 9 7 6 4 3 4 8 11 12 12 13 12 13 14 15 15 17 17 16 16

GFSCGP_925_spd_006.txt.gz
Wind_Speed
4 6 2 4 2 4 1 3 3 4 3 7 6 8 13 5 5 8 8 9 8 7 1 16 23 25 22 16 10 5 5 7 9 11 14 15 19 19 21 20 19 24 22 20
7 3 2 5 5 4 6 3 4 6 6 3 9 11 7 6 3 7 10 9 9 6 7 13 16 13 11 11 9 7 6 8 12 15 19 20 23 24 24 25 24 26 28 28
5 2 2 5 6 7 3 2 4 6 7 3 5 6 6 3 4 5 4 6 6 8 8 6 8 11 10 10 8 9 9 11 14 19 21 24 25 25 27 29 28 31 31 32
1 3 4 6 2 3 4 4 4 6 4 2 4 3 4 3 2 2 4 6 6 7 4 2 5 8 12 12 12 13 13 15 17 20 24 29 33 28 36 38 36 32 26 35
4 2 4 4 3 3 7 7 8 4 4 3 9 3 6 4 4 6 4 6 5 4 5 4 3 2 8 9 11 14 15 18 18 21 23 26 30 39 42 40 36 35 32 32
3 1 3 1 4 1 6 6 5 4 3 3 3 1 4 5 5 5 3 3 6 4 4 5 6 6 5 4 2 6 10 13 16 19 23 28 32 38 37 39 41 36 30 25
6 4 4 2 5 7 8 6 4 5 5 4 5 4 2 1 7 8 8 5 3 6 6 4 5 6 10 10 12 13 14 17 21 24 27 31 34 30 33 36 33 28 22 18
5 7 7 6 2 2 4 5 4 1 0 5 7 1 3 5 2 4 6 8 6 1 4 1 7 11 12 12 13 14 15 23 27 27 29 30 24 22 22 23 25 21 20 20
5 4 5 4 4 2 4 4 1 5 2 3 5 5 8 4 8 6 2 3 6 8 7 8 8 10 12 15 17 22 26 31 31 26 23 20 23 23 18 12 6 16 26 23
3 4 2 6 4 3 3 1 5 4 2 3 5 6 5 7 13 14 5 3 7 6 8 7 8 10 8 12 17 23 29 29 25 23 18 17 14 7 5 10 22 22 18 11
2 2 7 4 3 2 5 4 3 1 4 3 2 6 4 11 10 11 5 5 5 5 5 5 8 12 18 16 13 19 21 20 20 22 15 13 9 9 16 19 16 12 7 1
3 4 3 5 8 2 2 3 5 3 5 3 3 10 14 7 14 7 6 4 5 4 4 4 5 11 16 17 15 26 21 18 22 29 19 16 12 14 17 15 13 9 8 7
0 2 3 7 6 8 4 8 4 3 2 6 3 6 10 18 7 6 7 6 6 1 2 3 6 13 18 24 23 23 16 15 21 25 20 16 15 17 17 13 9 7 2 4
6 3 6 5 5 3 9 15 11 3 2 5 13 16 19 12 7 4 4 6 3 2 4 6 7 12 16 21 21 22 12 18 21 23 16 14 11 13 9 9 6 1 4 6
4 5 4 7 8 5 16 17 16 11 14 6 10 10 12 4 2 5 5 6 6 6 7 7 7 8 15 19 22 12 16 21 25 18 9 8 9 6 4 2 3 16 12 12
2 4 4 11 7 8 17 15 13 13 14 9 9 14 2 6 6 7 6 10 10 7 8 11 9 12 15 18 15 15 22 22 19 13 5 6 4 3 1 11 11 14 15 10
2 3 2 6 5 5 10 8 6 5 7 7 6 6 3 6 8 11 15 14 9 8 12 12 10 15 16 11 13 19 18 14 6 2 4 6 8 8 9 9 11 12 7 8
5 3 2 3 1 4 9 6 7 6 8 6 3 5 7 6 8 8 10 10 7 11 14 13 15 16 13 14 19 15 9 8 9 9 8 8 6 8 9 7 6 9 12 15
4 4 1 1 2 7 11 10 2 2 8 5 5 7 7 9 9 6 5 6 12 16 17 15 13 12 14 16 13 10 14 13 11 17 15 14 17 16 9 10 12 14 15 16
6 5 3 2 4 5 8 5 3 3 6 6 4 7 9 5 10 12 3 12 16 17 7 9 14 15 13 10 9 12 16 15 14 11 8 7 7 8 10 12 12 13 16 16
3 2 3 1 6 8 9 7 1 4 8 5 5 12 13 6 7 9 8 13 9 1 8 13 14 13 8 8 9 9 10 10 12 11 9 9 11 13 13 11 14 15 17 11
5 3 4 3 3 8 0 3 2 6 4 12 16 10 6 5 6 5 9 7 5 8 14 16 10 5 7 5 5 5 5 9 6 9 10 12 13 13 10 13 15 15 10 13
3 7 4 8 7 4 3 12 6 7 16 10 5 3 3 7 8 10 4 3 5 10 16 11 7 7 5 4 7 5 2 5 9 11 12 13 12 11 13 13 14 8 13 15
4 4 6 6 7 11 11 19 18 10 5 3 4 5 5 3 7 7 4 5 5 9 10 10 12 9 7 6 3 2 2 7 10 13 13 12 13 12 12 12 10 10 16 15
6 5 5 14 17 19 15 13 6 5 3 3 3 6 5 5 11 4 5 5 7 9 10 10 8 10 13 4 4 3 5 7 12 12 14 12 9 10 12 13 9 14 15 13
6 16 7 14 16 13 16 4 4 6 7 11 7 10 15 13 6 6 6 8 8 9 8 13 12 7 5 8 6 6 7 8 12 14 14 11 11 13 13 13 14 12 10 13

GFSCGP_925_spd_009.txt.gz
Wind_Speed
4 6 2 2 1 4 1 2 2 4 3 7 5 9 12 8 4 5 6 8 7 6 3 8 9 14 19 18 15 13 10 9 10 8 10 13 17 19 21 21 23 25 27 27
6 2 1 4 5 4 2 2 4 5 5 3 7 9 8 7 4 4 9 7 8 6 5 8 15 16 15 14 12 12 10 9 9 9 10 14 17 22 24 25 27 29 30 30
5 1 4 3 5 6 4 2 3 5 7 1 6 6 6 5 5 6 5 5 5 7 8 6 9 10 9 12 14 12 11 11 12 14 15 20 23 25 28 32 33 36 35 35
1 2 3 5 3 1 4 2 2 6 4 2 4 3 5 4 2 3 6 4 4 6 4 4 7 9 10 11 8 12 14 14 15 15 17 21 26 26 35 36 37 40 39 38
2 3 6 6 4 2 6 7 4 2 3 2 8 4 6 5 2 0 2 4 5 4 4 5 7 6 6 8 8 10 11 12 12 15 18 22 25 28 32 34 37 38 38 39
4 2 3 2 3 4 8 4 5 4 2 2 1 2 6 4 4 1 3 4 2 5 6 2 5 4 9 9 11 12 9 10 14 19 22 27 31 35 32 31 31 33 33 31
6 4 5 3 5 6 8 6 4 5 5 4 1 2 6 4 4 2 1 3 6 5 4 3 1 7 10 11 9 8 11 18 24 29 29 29 30 30 27 27 28 28 27 22
4 6 5 6 1 2 3 3 4 3 1 5 6 3 4 1 4 6 1 2 4 6 5 5 8 8 7 6 10 14 19 25 28 27 26 25 26 28 29 29 24 21 12 12
4 4 4 1 3 1 3 4 2 6 2 3 4 5 5 5 6 5 5 7 6 7 6 5 5 7 9 15 16 17 22 27 25 22 25 27 29 29 30 29 19 9 9 20
3 4 3 6 2 5 5 2 4 4 3 3 5 6 5 4 8 14 7 6 5 5 5 4 4 8 17 18 20 19 24 23 20 21 23 28 29 27 23 16 9 12 19 13
2 2 6 3 5 1 5 4 5 3 3 3 3 6 5 6 7 11 5 5 3 0 1 4 6 13 20 20 21 18 20 19 16 17 24 27 30 20 11 11 13 16 9 2
2 3 3 3 7 4 4 5 4 3 4 3 2 7 3 2 6 5 2 6 6 3 4 5 11 17 19 22 21 21 19 17 17 23 27 30 31 18 14 14 12 10 5 2
2 2 3 7 6 4 3 3 3 4 3 6 3 5 3 15 7 3 5 6 6 6 8 7 10 13 17 21 24 21 24 17 21 28 33 31 28 15 14 11 9 4 1 2
5 2 6 5 6 5 10 5 3 5 3 4 11 18 16 10 4 7 7 7 7 8 10 7 8 14 19 21 20 20 16 16 25 27 26 25 16 10 10 4 3 6 10 12
3 2 3 6 7 6 14 13 16 9 11 6 9 10 13 6 5 7 7 7 9 12 9 7 11 12 18 19 21 20 15 22 23 23 19 13 4 3 4 5 9 12 16 13
2 3 3 4 6 10 15 14 11 14 11 8 10 10 5 2 5 6 9 11 11 10 8 8 9 14 16 19 23 18 21 20 15 11 5 4 5 6 9 11 12 13 19 16
2 4 2 5 6 9 7 7 4 3 5 5 5 7 2 6 8 8 10 9 10 12 7 12 11 15 21 22 15 20 21 13 8 6 6 9 9 7 10 13 11 8 8 10
6 4 2 3 3 1 8 3 6 9 10 6 6 5 6 8 10 8 10 11 8 8 12 14 17 17 18 19 22 18 14 12 5 12 13 12 11 11 12 12 10 9 10 11
4 4 3 2 3 6 9 9 2 3 7 4 5 4 9 13 7 7 8 1 5 9 15 19 16 18 20 18 11 9 16 13 11 12 14 18 17 13 10 9 12 10 13 13
5 5 3 3 4 5 8 4 3 0 6 1 1 6 16 7 10 9 5 7 9 18 15 14 19 22 20 9 1 4 3 1 3 8 10 7 9 10 11 11 11 12 14 13
2 1 4 2 6 8 9 6 1 4 5 5 5 13 12 8 7 6 7 10 15 15 10 16 22 16 10 6 3 3 5 3 5 6 7 10 11 11 10 11 13 14 12 10
4 3 4 2 3 8 4 1 5 7 3 6 9 7 8 4 5 7 10 10 14 13 18 22 15 12 11 8 7 8 3 4 7 10 11 11 11 10 12 12 13 12 11 16
3 8 4 9 6 5 4 6 7 6 7 5 4 4 5 5 8 11 13 9 6 14 17 14 11 14 11 9 9 6 3 6 10 11 12 12 11 11 11 12 14 11 15 17
4 5 4 4 7 12 8 15 18 10 3 3 5 8 12 10 11 14 13 7 8 12 12 11 11 11 9 6 8 5 5 6 8 11 13 14 12 12 10 15 14 12 16 19
6 2 5 13 14 15 17 14 5 5 7 9 7 4 9 11 14 12 6 7 13 13 10 9 10 9 11 13 11 7 5 6 8 10 12 12 11 11 14 14 14 15 15 14
6 8 5 11 15 13 15 5 4 4 3 3 6 9 14 12 9 10 6 15 14 16 10 12 14 13 15 14 10 8 8 8 8 11 13 13 15 15 13 15 16 11 14 14

GFSCGP_925_spd_012.txt.gz
Wind_Speed
6 7 3 3 1 1 1 1 3 3 2 5 3 6 9 9 7 7 3 5 7 5 4 5 7 8 11 13 16 15 13 11 10 9 11 12 15 15 17 17 21 24 27 29
6 4 1 6 5 4 3 2 4 5 3 0 5 8 6 8 5 5 6 6 6 5 3 8 12 12 15 17 16 14 12 11 11 13 11 11 14 18 23 26 28 29 30 34
5 1 4 4 5 6 4 2 3 5 6 1 6 4 6 4 5 7 7 3 2 5 6 2 6 10 11 12 12 10 10 11 11 12 15 17 20 22 26 30 30 31 35 36
3 3 5 5 4 2 3 2 2 5 2 1 4 2 5 6 3 6 5 2 2 3 3 4 7 6 8 6 7 9 10 8 7 9 13 15 19 23 29 29 31 30 28 31
1 3 5 6 2 1 7 4 2 1 3 3 8 4 6 6 4 2 2 6 4 6 6 4 4 3 5 3 6 10 12 12 14 18 21 22 24 25 27 29 28 28 29 27
2 3 3 2 3 2 6 4 5 4 2 3 3 3 5 3 4 4 4 3 5 5 6 7 6 9 13 14 15 16 17 20 22 23 23 22 22 25 28 30 30 32 31 28
6 3 5 3 5 6 9 6 3 5 5 3 3 1 5 6 4 2 0 5 7 8 7 5 8 13 15 18 18 18 19 22 24 21 18 19 21 26 31 33 34 34 30 24
4 5 5 6 1 2 3 4 4 2 1 4 5 3 3 3 5 8 7 6 7 8 6 7 10 10 13 17 19 19 18 23 24 20 20 20 23 27 30 32 34 32 20 10
4 3 5 1 2 1 2 4 2 5 2 3 3 5 5 3 7 7 8 7 6 6 6 6 6 8 14 19 19 19 17 19 21 19 20 23 28 32 33 35 31 24 9 12
1 2 1 4 1 5 6 4 4 3 2 3 5 5 4 6 8 8 6 6 7 6 7 6 7 9 13 15 17 17 19 19 21 19 20 26 31 35 33 32 25 13 11 12
2 2 6 1 5 1 4 3 5 4 3 3 3 6 5 4 4 5 4 5 6 7 6 7 12 13 14 15 17 19 21 21 24 19 23 30 35 33 32 21 13 12 10 2
2 4 3 4 1 1 2 3 4 4 3 1 3 6 4 7 2 5 1 5 6 6 8 9 17 19 18 24 24 22 22 23 21 19 28 32 30 29 20 6 6 4 1 5
1 2 4 8 5 5 4 1 4 5 3 6 3 6 0 8 9 2 4 6 7 8 9 8 12 15 21 28 27 23 22 23 17 24 26 26 25 21 11 2 4 4 6 7
5 2 5 5 7 5 5 4 4 5 3 4 11 17 19 15 9 6 7 7 8 8 8 8 8 13 23 26 27 23 22 17 21 22 19 18 17 10 5 6 8 11 10 13
3 2 4 6 9 8 11 11 8 8 8 6 15 8 12 11 8 6 7 7 10 10 8 8 7 13 17 19 21 21 17 22 22 15 12 10 8 8 8 11 11 14 18 20
3 3 0 4 4 5 7 11 11 9 7 11 14 15 9 4 3 5 9 11 11 10 8 8 8 13 14 18 20 21 24 22 15 10 8 10 12 13 11 12 13 12 15 16
0 3 2 5 4 9 6 4 4 3 6 5 6 9 2 3 8 10 12 8 10 6 6 8 9 16 18 23 24 23 19 15 10 11 16 14 15 15 13 14 14 11 11 11
5 4 2 3 5 2 6 3 7 7 9 9 7 6 4 7 7 8 8 8 6 8 10 10 13 17 23 27 25 14 6 11 10 8 7 9 12 13 11 10 10 11 11 14
3 5 2 2 3 6 12 6 2 2 7 3 3 3 6 9 9 7 6 4 3 6 16 20 17 22 26 25 7 3 4 3 1 9 13 11 10 11 13 14 13 12 13 15
5 5 3 2 4 5 8 3 1 2 6 3 1 12 13 6 9 6 11 11 12 18 16 15 20 26 22 14 9 11 10 8 7 11 10 10 12 12 13 12 12 13 14 11
2 0 4 3 4 8 10 6 1 3 5 4 3 8 5 5 1 3 4 8 14 15 15 16 19 17 16 14 13 13 8 5 8 11 11 12 13 12 11 13 13 14 12 13
4 3 4 2 3 8 3 1 3 6 3 5 4 3 1 5 3 5 9 11 15 14 14 17 16 15 16 15 11 10 8 10 13 10 11 12 13 13 12 11 13 15 12 18
3 7 3 8 7 5 4 7 7 5 6 5 2 4 6 3 4 11 9 11 15 14 15 15 13 15 18 12 8 10 15 13 9 8 10 12 13 11 11 11 15 16 15 19
4 4 4 2 6 8 12 13 7 5 4 7 7 3 2 7 10 11 11 10 10 15 15 14 13 16 15 13 12 15 12 8 8 8 9 11 11 12 12 14 14 16 18 20
6 2 3 6 13 14 12 3 3 5 5 5 3 9 9 7 10 7 8 9 15 17 18 16 14 15 17 19 17 16 13 11 11 9 9 10 12 14 16 15 14 16 14 16
5 6 4 13 13 9 9 3 4 6 2 6 7 8 11 9 8 9 9 16 18 20 20 15 14 17 21 17 18 16 12 12 13 12 10 11 13 15 13 15 18 16 14 16

GFSCGP_925_spd_015.txt.gz
Wind_Speed
6 8 4 2 1 3 3 2 3 3 2 5 3 6 8 10 9 9 6 5 6 5 4 2 1 4 8 10 13 14 14 11 10 8 8 8 8 12 15 18 22 23 24 24
6 4 1 4 4 2 1 2 1 3 1 1 5 5 4 10 7 5 6 7 6 5 3 3 3 4 6 6 6 6 3 4 6 9 10 12 16 15 18 20 23 24 26 28
5 1 2 1 4 5 1 2 2 3 7 1 4 2 7 5 6 7 7 5 3 5 5 3 5 6 9 7 5 5 6 7 8 8 10 11 11 13 14 18 23 25 22 21
5 3 3 3 3 2 3 2 4 4 1 1 4 3 5 6 4 5 3 4 5 6 7 10 10 11 9 8 8 9 13 14 13 12 12 13 11 12 14 17 20 26 26 27
0 2 4 5 2 1 3 2 1 1 3 2 5 1 4 4 6 6 8 5 5 7 7 9 11 11 14 16 17 14 13 15 15 16 16 14 12 11 17 22 26 28 27 28
2 2 3 2 2 1 4 2 3 3 2 1 1 2 4 5 5 5 5 10 8 8 7 7 9 11 12 13 13 13 14 14 17 17 15 14 14 19 21 25 29 31 29 29
5 3 4 3 4 3 8 3 1 2 2 1 2 1 4 9 8 6 8 9 10 9 8 8 10 9 9 12 13 14 16 16 19 18 19 20 21 23 24 28 29 29 28 21
3 1 4 5 2 2 4 2 2 1 2 4 2 4 6 8 7 8 8 7 7 8 6 6 3 1 5 9 13 16 16 16 19 21 20 19 20 24 28 26 28 26 23 16
2 2 3 4 2 1 1 5 1 5 1 1 3 1 3 7 9 8 7 8 8 6 4 2 3 6 8 13 16 18 20 19 17 19 18 18 21 26 26 28 28 25 19 6
1 2 2 3 1 6 3 4 1 3 2 2 4 4 3 3 5 5 5 4 5 5 6 7 11 13 12 13 16 18 15 15 15 17 14 17 22 23 25 27 24 15 5 6
1 1 2 0 4 1 2 2 5 4 1 1 3 5 4 6 0 5 3 1 3 6 7 9 13 16 15 14 15 16 15 15 15 15 16 22 24 24 24 19 13 5 4 2
1 2 2 2 2 1 2 3 3 2 2 1 1 7 2 7 2 5 4 1 4 7 9 11 14 14 13 12 17 18 16 15 17 15 20 19 17 18 16 8 4 2 3 3
2 2 3 2 2 2 2 2 4 4 2 7 3 6 0 5 10 7 7 6 9 11 12 11 13 14 14 18 18 18 18 16 17 19 17 14 14 15 10 7 6 6 6 6
4 2 4 4 4 2 5 4 4 4 3 5 12 19 21 18 13 10 6 7 12 12 11 10 10 13 13 16 16 15 16 20 18 15 9 9 9 10 6 7 8 9 11 11
2 3 3 5 9 5 8 13 10 12 12 7 13 15 18 14 10 4 9 11 13 14 11 9 8 11 12 14 16 16 19 17 14 8 5 6 9 8 7 8 11 12 10 12
2 2 1 4 6 5 9 12 11 12 14 13 18 19 14 6 3 7 12 12 13 10 5 8 10 12 12 15 16 19 17 12 9 4 4 6 7 7 8 11 13 13 13 12
1 3 1 3 5 9 6 3 4 3 6 4 5 7 1 4 7 12 15 11 7 5 7 9 9 12 16 17 19 20 15 10 5 3 3 6 9 12 12 12 12 13 12 12
4 3 1 3 4 2 1 4 7 9 12 7 9 6 3 9 13 11 7 5 4 4 7 12 13 14 15 18 17 12 6 8 7 5 8 11 11 10 12 12 12 12 11 12
1 4 2 2 3 7 10 2 2 3 6 3 2 3 13 17 16 7 3 3 2 8 14 14 14 12 16 15 11 8 9 6 6 7 9 9 10 11 12 12 12 11 12 12
4 4 1 3 3 5 5 1 2 3 8 1 3 16 19 12 8 11 5 5 14 15 15 16 13 13 13 13 12 13 14 9 5 7 10 10 11 10 10 10 11 11 11 11
1 1 4 5 5 8 9 5 1 2 4 3 5 11 12 6 1 2 6 15 15 17 18 15 10 12 12 13 13 12 8 6 7 12 11 11 10 9 9 10 9 11 13 10
3 3 4 3 4 7 2 2 2 2 7 9 10 6 3 4 4 6 11 12 18 20 20 14 13 13 13 13 11 9 10 12 10 12 11 9 9 10 10 10 11 12 12 13
4 6 3 8 6 2 3 8 6 4 3 4 2 6 2 5 7 10 10 12 18 19 18 14 14 15 14 13 9 11 15 12 12 11 9 8 9 9 10 11 13 13 13 13
3 4 4 1 7 9 10 9 2 3 2 2 3 6 5 9 11 13 12 13 15 17 18 17 16 17 15 14 14 16 17 16 11 10 8 7 7 10 11 11 11 12 14 14
5 3 4 6 15 13 7 1 2 5 4 4 6 8 9 10 13 12 12 13 15 16 18 18 17 17 16 16 18 16 16 11 14 11 8 6 7 9 10 9 10 11 11 11
4 7 4 7 9 7 4 4 5 2 2 4 6 9 13 12 12 12 14 14 13 17 20 20 18 14 15 14 15 14 11 9 10 10 7 5 7 8 8 11 13 10 10 12

GFSCGP_925_spd_018.txt.gz
Wind_Speed
5 2 6 8 7 5 1 2 3 1 3 9 1 3 8 9 8 7 5 5 7 9 6 4 5 5 4 4 3 3 4 1 0 2 3 5 5 7 8 9 10 12 13 14
4 7 5 5 5 1 2 3 1 1 1 5 3 3 7 10 10 9 9 10 10 11 11 12 12 12 12 10 8 6 4 4 3 2 3 5 8 8 9 8 12 11 14 15
3 6 3 0 4 4 1 2 4 5 6 3 3 6 5 6 10 10 12 12 12 11 10 10 12 12 11 10 8 6 7 7 8 7 5 6 7 8 10 13 15 15 15 16
7 3 2 2 4 6 2 2 9 7 6 3 2 4 6 4 9 9 8 9 9 9 8 9 9 10 11 12 13 12 10 9 8 8 6 7 8 10 12 14 16 21 18 18
4 4 3 4 4 5 5 7 6 3 5 4 3 6 7 4 7 7 10 9 9 8 8 8 10 11 12 12 11 9 8 8 8 7 7 7 6 7 9 12 19 22 19 20
6 2 3 5 2 2 5 4 1 1 2 4 1 5 6 2 3 5 7 10 10 9 7 8 8 8 9 8 8 7 8 7 9 10 9 10 12 11 13 17 21 23 25 24
3 4 2 6 4 4 8 3 2 2 4 1 1 5 8 6 6 7 9 10 10 9 8 7 6 6 7 9 9 9 11 12 12 10 7 6 12 14 17 21 23 27 27 25
3 4 8 9 5 6 6 5 3 3 2 2 3 3 7 8 8 9 8 7 7 7 6 6 6 8 8 8 8 10 12 13 11 10 12 13 15 17 21 24 26 26 25 21
3 3 4 7 5 4 3 3 2 2 1 3 1 3 8 9 4 6 7 6 5 2 3 5 8 8 10 10 9 10 14 17 16 15 16 15 16 19 22 23 23 23 21 15
2 2 2 1 3 7 4 3 2 2 3 3 1 4 6 13 11 3 8 6 3 2 3 8 12 13 13 13 10 13 17 17 14 14 14 13 17 19 19 20 19 17 14 7
3 2 2 3 3 3 2 2 2 2 2 3 4 5 4 2 1 4 10 4 5 5 8 10 14 12 12 9 11 15 15 13 13 13 13 16 18 16 15 16 14 10 6 6
4 1 2 1 2 2 1 2 1 2 2 2 4 7 3 2 5 4 8 3 4 7 10 11 13 11 10 12 15 15 14 15 15 15 17 17 14 13 14 12 10 8 7 6
1 0 2 3 5 4 5 4 2 1 1 9 4 4 3 3 8 8 8 4 6 11 14 12 13 12 12 15 13 13 14 15 18 20 18 15 13 13 14 10 9 9 9 9
1 2 4 5 7 5 6 9 7 9 4 7 12 17 17 12 13 11 4 7 12 12 12 11 11 11 16 12 13 14 16 19 19 16 16 14 13 14 9 14 12 13 14 15
2 3 4 8 12 13 11 14 13 15 15 10 14 16 14 14 13 9 5 12 16 14 12 10 10 14 12 11 14 16 19 18 14 14 15 10 8 8 9 10 13 14 15 15
1 1 3 4 8 9 12 15 14 13 14 15 16 16 8 8 6 5 13 16 15 9 7 10 11 12 12 14 15 18 19 14 12 12 11 7 9 11 13 14 14 14 14 14
1 1 1 4 9 12 6 2 5 5 4 8 9 10 8 6 8 13 16 14 7 6 11 10 11 12 15 14 17 18 16 13 12 13 8 9 11 12 12 14 16 15 15 14
3 3 1 3 5 3 3 6 11 12 13 6 12 7 4 9 14 16 6 6 5 9 12 11 14 16 14 15 18 17 17 15 14 13 10 10 10 12 13 15 14 15 15 15
2 3 2 1 3 14 11 3 2 5 13 9 5 5 14 21 19 8 6 1 9 13 15 16 18 18 15 17 19 18 18 18 15 13 11 10 11 12 13 13 14 14 15 15
5 3 2 3 3 4 2 3 3 3 11 5 10 15 21 18 13 8 4 12 13 15 16 19 20 18 16 19 18 18 20 18 15 12 12 11 10 10 12 13 13 13 15 16
3 2 4 6 6 8 7 2 0 4 4 9 11 7 9 9 3 5 9 12 15 17 17 19 19 18 20 20 18 18 18 15 13 10 10 10 10 10 11 12 14 15 17 16
4 5 4 2 4 6 4 3 5 10 10 11 6 5 1 3 8 7 10 14 18 19 19 20 22 22 23 21 21 21 19 17 13 14 13 11 9 9 10 13 15 17 18 17
5 6 3 7 6 6 7 11 10 10 10 3 1 1 7 8 9 11 13 15 18 18 19 22 23 24 23 21 20 21 21 19 15 17 15 12 9 9 11 14 17 17 16 15
5 7 4 5 11 14 10 14 6 5 3 2 6 4 5 9 12 14 14 16 18 19 21 21 22 23 24 23 20 19 19 18 18 15 14 13 11 9 12 14 13 15 14 12
6 3 8 12 16 15 6 8 6 3 2 4 5 7 8 10 13 14 14 18 19 20 19 19 20 22 24 22 19 18 16 13 14 15 12 11 9 10 12 11 12 12 11 9
9 14 7 6 9 5 4 3 4 1 2 4 6 8 11 14 14 18 18 21 21 20 21 20 23 24 24 20 19 14 11 11 11 11 10 8 8 9 9 10 12 9 8 9

GFSCGP_925_spd_021.txt.gz
Wind_Speed
5 11 4 10 6 7 5 5 4 4 5 6 4 6 5 4 3 4 4 4 4 6 13 12 6 6 8 6 5 5 5 3 3 4 5 6 6 7 10 10 8 10 10 12
9 5 4 2 3 3 3 5 1 0 3 6 3 4 5 7 7 8 9 10 10 12 12 12 14 15 13 11 9 7 5 4 3 3 5 5 7 9 10 9 9 12 10 13
9 9 2 3 2 7 3 7 6 9 7 10 8 8 11 8 12 11 13 13 12 11 11 10 13 13 12 11 9 8 7 6 7 6 5 7 9 9 11 11 18 18 19 18
6 4 0 1 2 8 9 4 8 10 8 7 12 4 8 12 10 10 10 10 9 9 9 9 11 11 11 10 9 8 6 5 6 8 5 6 8 12 15 17 18 19 22 21
5 3 0 1 5 6 5 7 8 8 9 10 11 9 10 11 9 9 8 9 8 8 8 8 10 10 10 8 7 6 5 6 6 6 6 9 13 15 17 17 17 19 21 20
8 2 4 6 5 4 7 8 6 6 5 5 2 7 13 8 8 6 8 8 7 8 7 7 6 5 7 6 6 6 7 8 8 10 10 11 13 14 16 17 19 19 21 23
6 4 4 6 10 5 8 7 4 3 4 2 5 6 9 8 7 7 6 7 7 7 6 5 5 5 4 6 7 9 11 13 12 12 12 13 14 16 17 19 20 23 24 24
3 7 6 6 5 6 5 6 3 4 3 4 6 6 7 10 9 8 5 5 5 4 3 3 4 5 8 9 10 10 13 15 17 16 16 16 17 18 19 20 23 24 23 23
3 4 5 4 5 6 3 4 3 2 1 3 4 6 9 11 9 4 3 3 5 4 3 4 7 9 11 12 13 11 14 19 20 20 18 17 17 18 20 21 22 23 23 22
3 2 1 3 4 3 6 3 4 1 3 4 2 7 4 12 9 8 4 8 7 4 4 7 10 13 13 15 14 14 17 18 17 16 15 16 18 20 21 21 22 22 20 18
5 3 4 3 2 8 1 1 3 4 3 4 4 4 8 5 3 5 8 9 10 7 8 9 13 13 14 13 14 17 20 18 18 17 17 18 20 19 18 18 19 18 17 16
5 2 2 4 4 3 4 4 5 3 4 3 4 7 7 6 2 4 9 8 5 8 10 10 12 12 13 14 17 18 15 14 15 17 19 20 18 17 17 19 16 17 15 15
5 1 3 4 6 5 4 1 2 2 3 10 7 6 1 4 5 6 10 7 6 9 13 13 15 18 16 16 17 13 14 16 19 20 20 20 18 16 16 17 16 14 15 16
2 2 3 5 9 9 8 10 9 9 7 10 11 16 15 10 11 13 12 5 10 12 11 10 14 19 17 15 11 13 15 18 19 18 18 18 14 14 13 12 12 14 16 18
3 2 5 9 12 12 12 13 13 14 15 14 17 17 16 13 11 11 9 10 14 16 15 14 15 16 15 13 13 15 16 18 18 17 16 17 10 13 12 14 15 16 18 19
2 0 4 4 6 9 13 16 17 16 10 14 13 16 8 8 10 10 15 16 15 16 14 13 16 16 15 16 16 16 18 18 16 16 17 15 12 14 15 15 16 18 18 18
1 1 3 4 10 13 5 2 1 4 7 8 11 11 12 10 13 15 12 14 12 12 11 12 14 15 16 18 16 19 18 19 19 17 18 14 13 15 15 16 17 17 18 18
4 1 2 3 6 3 4 6 12 10 8 8 11 11 7 10 17 22 9 10 10 8 12 14 16 18 19 21 19 21 21 22 22 23 14 14 12 14 15 15 16 17 18 18
3 4 2 2 5 13 10 3 4 9 13 13 7 7 14 17 16 7 5 8 12 12 14 17 19 21 23 23 22 21 24 24 25 22 20 13 14 16 14 15 15 17 17 19
3 1 3 3 3 4 3 1 0 5 12 8 9 16 17 16 13 10 9 16 14 16 18 20 20 23 24 26 25 25 26 26 26 22 14 15 16 15 13 14 15 16 19 19
2 2 5 6 5 7 9 3 4 6 3 11 13 9 9 8 9 12 14 13 16 19 21 21 22 22 26 27 28 28 28 26 25 19 16 16 15 16 13 12 16 18 20 21
7 6 4 4 4 6 3 5 1 8 11 8 7 6 6 10 11 10 11 14 18 20 23 23 23 24 27 28 28 30 29 29 26 22 16 12 8 11 13 14 17 18 20 19
5 7 4 8 5 9 7 10 7 5 7 7 4 4 9 10 11 12 13 15 20 24 25 25 25 25 26 27 27 29 29 25 23 22 19 13 11 11 14 12 17 16 17 15
8 12 6 8 8 12 8 8 9 7 5 1 5 7 8 10 11 14 15 18 23 25 25 25 25 25 26 27 29 25 25 23 21 18 18 14 11 11 12 14 15 15 14 12
7 4 9 13 16 12 4 7 5 4 3 6 3 7 8 10 14 16 16 21 23 25 25 26 25 24 25 27 27 26 21 16 17 18 16 15 11 9 9 11 13 12 10 7
10 14 9 8 6 3 1 5 2 5 4 4 6 8 13 17 16 21 20 23 23 25 27 26 27 27 27 27 25 21 16 13 15 15 14 13 9 9 8 10 12 9 9 11

GFSCGP_925_spd_024.txt.gz
Wind_Speed
7 9 2 13 9 6 9 6 6 7 8 3 10 9 9 9 6 3 2 3 9 18 20 24 20 19 16 11 14 15 11 10 5 3 4 7 10 10 9 7 8 6 11 12
4 3 7 5 7 6 5 5 4 3 5 4 8 10 11 8 5 6 8 8 16 15 14 18 19 21 18 14 13 12 12 10 9 9 6 6 7 6 9 10 5 12 11 12
9 10 5 4 2 8 4 4 8 7 10 9 10 9 13 10 7 12 13 13 13 12 11 12 16 16 15 15 14 13 11 9 10 8 7 7 8 9 10 12 17 17 15 22
8 3 2 1 2 7 7 6 5 8 9 9 13 4 14 14 11 11 12 10 10 10 10 12 14 13 14 14 12 10 7 7 7 8 7 9 13 14 17 17 19 22 19 20
6 4 1 2 6 6 5 6 7 8 10 11 12 7 14 16 13 12 11 10 9 9 9 9 12 14 13 10 8 6 6 3 2 4 7 9 12 15 16 17 16 20 15 21
8 3 6 7 4 2 7 9 11 8 9 4 13 3 5 8 13 12 11 9 9 7 6 8 8 13 14 8 5 5 8 10 10 7 8 9 10 12 14 16 18 16 20 22
6 5 6 5 10 7 6 8 4 2 4 2 5 3 8 10 9 13 12 9 7 6 5 6 7 10 6 4 3 4 8 12 13 15 12 9 9 12 14 17 17 21 23 22
8 7 4 5 6 7 5 6 2 4 4 6 7 3 9 12 12 11 10 9 6 6 3 2 3 4 6 8 10 11 11 13 15 13 13 15 14 12 14 15 19 19 19 20
3 6 6 5 5 7 6 5 4 3 2 2 5 8 11 12 11 9 8 4 7 3 3 4 6 6 7 7 9 9 10 14 14 16 14 13 14 16 14 15 16 15 18 18
4 2 3 3 3 2 4 1 2 1 2 3 7 6 7 10 9 9 3 7 5 6 6 7 9 13 15 17 13 13 13 15 15 15 13 14 15 16 15 16 16 16 14 16
7 3 5 5 6 7 1 2 2 3 1 2 3 3 8 7 5 6 7 6 4 5 6 6 12 13 12 11 12 14 14 13 13 15 17 18 18 16 13 12 16 17 17 15
4 2 1 7 6 4 3 5 4 1 4 1 1 6 4 3 7 8 8 10 6 4 7 10 13 14 13 13 11 16 11 11 13 17 18 17 17 11 15 17 19 19 17 17
4 1 3 8 5 4 0 3 2 4 2 5 4 4 3 2 11 6 5 4 3 6 8 8 8 9 16 16 17 12 12 12 14 17 17 19 17 11 14 13 14 14 15 17
3 1 1 2 6 7 7 10 8 10 4 6 8 14 15 12 8 6 8 7 8 9 10 10 11 16 17 16 14 12 15 11 15 17 17 17 16 8 9 11 14 16 18 18
3 1 4 7 9 8 9 11 11 12 12 9 11 16 11 8 7 10 14 13 14 14 12 13 12 15 15 16 15 16 14 17 14 16 16 16 19 5 7 10 14 17 18 17
3 1 3 3 5 10 13 15 13 13 13 10 11 12 11 5 14 13 13 16 13 12 12 14 14 17 16 15 16 15 16 16 16 15 16 20 7 9 10 11 14 16 16 15
2 1 2 3 9 10 3 3 6 8 7 9 5 10 8 14 13 14 13 13 11 13 12 13 14 16 16 18 20 22 17 19 18 24 21 20 10 12 10 12 13 15 13 15
4 2 2 2 4 2 4 14 11 7 6 9 11 9 13 10 12 16 11 11 13 13 13 13 15 16 16 18 22 22 20 22 21 21 25 25 10 11 9 11 13 10 12 15
4 3 2 1 3 9 9 3 5 5 9 9 7 12 12 14 16 7 10 12 11 12 15 17 18 21 20 21 21 24 27 30 29 25 23 25 17 13 10 11 11 9 13 17
4 4 2 2 2 3 3 7 5 5 8 9 11 10 11 12 7 5 11 12 14 16 18 21 22 19 19 18 23 24 25 28 25 25 22 17 21 21 7 8 11 13 15 13
2 2 3 5 5 6 8 6 1 3 3 8 7 6 9 5 4 9 10 12 17 19 20 23 24 23 24 25 24 23 25 25 28 28 26 22 16 12 8 7 12 15 14 14
7 6 4 4 3 6 1 3 2 5 7 6 7 6 5 6 7 8 10 12 17 19 23 25 24 24 23 23 23 21 22 25 25 24 25 23 17 15 8 8 11 12 13 9
4 6 4 9 5 7 7 4 6 7 7 5 5 4 7 7 8 10 10 13 18 22 23 25 23 25 26 23 21 22 22 20 21 22 20 21 19 13 11 11 12 12 10 11
3 7 3 3 8 9 6 10 11 6 4 3 4 5 5 7 8 10 12 14 18 20 22 21 25 23 22 23 22 19 20 21 20 16 19 18 17 14 11 8 12 13 12 10
4 6 6 9 11 4 9 7 4 3 1 3 2 5 5 7 11 12 12 16 18 20 21 25 22 21 23 27 23 22 20 18 14 16 16 18 17 12 8 8 11 11 9 10
5 7 5 7 1 3 5 6 3 2 4 2 3 6 9 12 11 17 16 19 20 22 24 23 23 24 22 24 23 22 18 10 12 12 14 15 16 13 10 10 12 12 14 13

GFSCGP_925_spd_027.txt.gz
Wind_Speed
5 5 4 4 4 3 3 5 10 5 5 3 3 3 6 6 8 6 13 18 15 15 19 29 33 32 31 28 26 22 19 16 17 15 11 9 10 8 8 7 6 9 6 6
4 4 4 3 2 5 6 6 5 3 4 4 3 2 6 9 6 17 17 15 14 13 15 23 28 28 25 24 23 20 16 13 13 13 12 10 11 13 10 14 14 15 18 17
6 3 2 4 7 9 8 6 5 3 6 3 3 2 7 7 12 18 12 10 11 14 14 13 21 22 22 21 19 16 13 12 10 10 8 8 8 11 15 21 22 19 17 15
6 4 4 4 8 7 5 6 6 6 4 3 5 1 3 10 11 14 13 11 9 12 12 15 19 17 15 15 14 11 7 5 7 9 8 8 8 12 15 14 16 15 14 18
2 4 8 9 4 4 1 2 4 3 4 3 7 4 4 12 11 11 9 10 10 9 10 10 17 15 12 10 9 8 11 7 4 3 5 6 6 8 7 10 11 14 18 23
5 5 4 4 3 3 5 4 6 5 2 2 6 4 1 6 14 6 10 10 9 9 9 14 17 14 11 9 8 4 6 10 14 11 8 8 7 6 8 7 10 15 19 21
3 4 3 2 4 1 4 6 4 4 4 3 5 7 1 7 13 15 13 10 9 8 8 7 14 13 11 5 4 5 7 7 9 8 10 10 9 9 11 12 15 16 18 22
5 1 5 5 5 2 4 3 4 0 1 4 5 3 2 10 11 10 9 9 8 7 5 5 9 9 9 9 8 5 6 9 9 9 11 10 12 10 10 11 15 16 16 14
4 3 3 6 3 3 6 5 3 4 2 3 1 3 6 9 8 7 8 7 7 8 6 7 13 17 15 14 11 8 6 6 9 11 11 12 11 12 14 13 14 11 10 13
4 4 2 4 1 3 4 2 5 4 1 3 4 3 3 6 6 5 5 7 7 7 7 8 14 12 10 9 8 7 6 8 10 11 13 14 15 11 8 8 12 15 18 20
5 4 3 1 4 4 4 3 4 2 4 4 1 3 2 4 4 4 8 6 7 6 8 6 10 11 11 10 8 12 6 7 9 12 13 13 13 10 7 9 14 16 18 14
3 4 3 3 3 3 1 2 4 4 3 1 4 5 2 8 7 7 6 5 6 7 6 6 9 16 16 15 14 8 7 6 8 10 9 9 10 11 12 13 13 15 11 12
2 2 3 4 4 5 2 2 5 5 3 4 5 5 5 7 8 4 6 9 7 8 10 11 17 17 18 17 15 7 10 6 11 10 10 11 12 13 15 8 6 6 9 12
3 2 5 5 2 1 2 4 4 6 3 3 6 6 10 7 4 7 7 7 7 9 9 8 10 16 18 16 13 11 7 13 20 15 13 16 17 17 15 9 8 10 8 11
3 3 4 4 5 5 3 4 6 4 5 4 7 5 3 9 7 8 8 12 11 10 10 7 6 12 18 15 14 17 16 24 21 10 15 17 24 25 11 9 12 12 9 9
4 1 2 3 5 7 4 7 8 7 4 3 4 3 11 9 7 11 10 9 8 7 4 5 8 13 15 13 16 19 23 18 11 18 22 25 14 10 23 21 8 12 7 4
3 4 3 3 4 6 4 4 3 1 2 1 1 3 7 11 12 8 8 8 6 6 6 7 10 17 15 15 14 16 21 23 26 26 22 20 21 16 11 11 16 12 8 4
4 3 3 2 4 2 4 4 2 6 5 6 9 11 10 8 6 8 6 3 5 6 6 9 17 17 20 13 15 19 19 21 24 17 23 19 20 17 21 16 16 18 4 9
5 4 3 3 1 6 6 3 3 4 3 8 7 8 7 4 3 4 3 2 3 8 14 14 16 18 19 22 19 17 18 20 18 18 17 18 17 17 13 12 5 4 9 11
6 6 4 2 3 6 6 4 5 2 3 4 7 5 5 7 4 4 6 5 10 12 15 17 21 21 21 21 22 21 20 18 18 15 15 17 19 21 13 7 5 3 7 8
3 2 4 3 3 7 7 3 2 4 5 5 6 5 3 2 5 6 8 5 12 12 16 19 20 18 21 27 28 25 15 15 14 18 20 20 17 20 16 13 8 8 10 3
7 6 3 2 3 7 4 3 6 5 3 7 4 4 3 4 6 3 4 7 9 13 16 19 16 20 24 26 23 19 14 14 17 18 17 19 20 19 14 8 8 7 3 5
2 7 6 8 6 6 4 4 4 5 6 4 4 4 4 5 1 4 4 5 8 11 15 15 20 22 21 19 20 12 12 15 16 17 16 19 19 19 13 10 8 6 8 9
3 6 3 4 6 6 7 7 6 6 5 4 4 4 2 2 4 4 5 9 12 16 17 20 20 19 20 17 15 13 15 16 13 12 15 16 16 16 11 8 9 11 11 12
5 3 1 2 1 7 6 6 7 7 6 5 5 4 4 4 5 6 4 9 13 16 19 21 21 21 17 15 17 20 19 15 10 12 13 13 16 13 9 8 9 10 12 14
3 5 3 5 6 4 5 6 6 6 6 5 6 4 5 11 5 9 8 11 16 17 21 21 21 22 17 16 20 20 17 14 12 10 10 11 13 12 10 9 9 10 15 13

GFSCGP_925_spd_030.txt.gz
Wind_Speed
6 6 2 5 4 4 2 3 9 1 0 3 5 5 4 6 13 14 14 16 14 15 13 26 34 35 36 32 28 24 22 15 13 12 9 11 17 19 17 15 13 11 10 10
6 3 4 4 7 8 5 8 4 5 6 5 4 6 7 5 7 15 17 14 14 11 12 19 27 28 28 26 25 23 20 18 17 16 15 14 12 12 14 13 11 10 10 11
5 5 1 7 6 8 6 5 2 3 3 4 10 5 7 6 10 9 8 11 12 13 11 9 19 23 22 21 18 16 16 15 13 12 10 10 10 10 11 12 9 9 9 11
4 4 6 6 5 2 2 1 2 3 4 1 3 3 1 4 8 8 9 8 9 11 9 11 17 18 17 14 13 12 9 10 8 8 9 8 5 3 2 3 5 7 10 14
2 4 7 6 0 1 3 1 0 1 3 3 3 6 3 7 9 8 6 9 8 9 11 9 16 17 14 11 11 11 11 7 5 4 4 3 4 4 5 2 4 9 13 17
4 3 4 2 3 2 2 3 7 4 3 3 4 5 5 5 7 6 5 7 8 7 7 11 14 14 12 9 8 7 8 10 6 5 5 6 6 6 3 6 11 15 16 17
5 3 4 3 4 5 8 5 3 4 4 4 5 5 1 4 9 12 9 6 7 7 7 7 10 11 8 6 5 6 6 9 9 6 5 4 5 3 4 8 9 9 10 11
4 2 4 7 3 1 2 5 4 3 2 4 5 3 4 6 13 11 9 7 6 6 6 5 3 5 8 7 6 5 8 9 7 7 8 7 7 7 7 3 2 2 5 7
4 1 1 2 1 3 3 4 4 6 3 3 1 3 3 3 9 8 7 7 8 3 6 8 15 14 11 8 5 4 5 7 7 8 6 5 3 2 3 4 2 2 7 12
2 4 2 2 5 5 5 2 4 4 2 0 3 4 4 7 6 8 7 7 6 6 7 7 10 10 11 10 8 5 6 9 8 5 3 5 6 5 5 6 9 10 8 10
2 4 4 4 2 2 4 3 5 4 3 4 2 5 4 7 7 9 7 7 7 6 6 7 14 16 14 10 8 2 7 4 2 3 5 8 10 11 11 14 17 16 11 10
2 5 3 2 2 1 2 3 4 4 2 1 4 4 3 8 9 8 4 7 6 8 8 9 12 12 12 11 11 4 1 2 3 7 11 14 13 13 17 21 21 19 14 11
2 2 3 6 6 5 2 2 5 6 3 5 5 5 5 4 9 8 11 9 8 6 6 7 13 13 12 11 9 4 4 4 11 19 18 12 15 20 23 24 22 15 12 10
2 3 5 6 4 3 1 2 4 5 3 3 5 5 6 6 11 7 8 8 6 6 4 2 5 10 11 11 7 9 10 13 18 18 10 18 25 22 24 26 16 11 10 9
3 3 1 1 3 1 1 2 1 4 4 5 6 6 5 7 8 7 7 6 5 4 5 5 5 8 12 7 8 8 9 14 15 15 13 13 15 19 17 14 13 18 19 14
3 1 2 3 6 6 3 5 5 4 4 4 8 6 3 5 6 6 6 6 5 4 5 5 7 10 14 10 10 11 14 15 15 12 10 11 14 15 11 14 14 13 14 14
3 4 3 4 4 5 6 5 3 1 2 4 5 6 6 5 6 5 4 3 0 2 4 6 8 13 15 14 13 11 11 14 13 8 10 13 15 15 18 19 18 18 13 10
4 4 3 3 3 1 5 5 4 9 4 8 11 8 6 6 4 5 5 4 2 3 5 8 11 13 14 13 13 13 14 12 7 9 9 12 15 19 23 22 23 16 5 2
4 5 3 3 2 5 4 4 5 5 5 4 9 7 5 6 6 4 4 3 1 2 7 10 10 8 8 12 15 15 14 6 4 7 12 15 15 17 18 17 15 9 5 3
6 6 4 2 4 6 5 2 4 4 5 8 7 7 5 5 2 3 3 2 5 9 8 7 5 7 13 19 22 18 11 7 8 11 12 13 14 16 16 14 12 4 7 3
3 3 4 2 2 7 7 4 3 5 7 7 7 6 6 4 5 4 2 1 6 6 5 8 8 14 18 17 13 10 6 7 9 13 15 13 13 14 12 10 7 4 1 5
7 6 4 3 2 7 7 3 7 5 3 7 6 6 5 4 3 2 3 4 6 8 10 12 15 17 14 14 10 5 7 10 15 14 12 12 14 13 9 7 6 5 5 3
2 7 5 9 7 5 6 5 3 6 6 6 6 6 6 6 5 3 5 7 8 9 11 13 14 13 16 10 6 8 12 16 13 9 9 10 10 10 8 4 7 3 2 5
4 5 3 3 5 7 5 3 3 4 5 5 5 5 5 6 6 6 5 5 7 9 10 11 14 15 16 7 7 11 14 14 10 9 10 9 10 9 5 4 4 3 6 8
5 4 4 4 2 5 1 2 6 6 6 5 5 6 6 8 6 5 3 5 5 7 11 14 14 16 18 12 14 18 15 16 13 11 8 8 7 7 6 4 3 6 8 9
4 7 4 5 7 5 5 8 7 6 6 6 7 8 9 10 6 6 5 3 6 11 14 15 18 18 16 21 23 22 11 16 13 12 9 7 5 5 6 5 5 8 8 9

GFSCGP_925_spd_033.txt.gz
Wind_Speed
5 6 2 3 2 3 3 1 3 1 3 5 5 7 8 7 13 10 8 10 11 12 8 20 29 33 32 22 15 16 14 14 10 12 11 15 20 17 14 12 9 9 10 13
6 2 1 7 5 6 6 6 2 1 5 7 6 11 9 8 6 7 11 10 9 8 9 16 27 28 26 24 21 19 19 16 15 16 15 12 11 10 7 6 7 9 9 7
4 3 5 6 6 8 5 4 2 3 5 7 6 6 7 6 7 7 7 5 6 10 11 8 17 23 22 21 20 18 16 14 11 9 8 6 4 3 1 1 3 4 6 8
5 5 5 6 6 4 3 1 3 3 4 4 3 2 0 1 6 5 5 5 6 7 6 9 14 18 20 18 17 16 15 12 10 7 3 2 4 5 3 5 3 4 8 12
3 3 5 5 1 2 3 2 2 2 3 4 2 5 3 5 3 4 4 5 7 8 7 7 14 19 18 16 14 14 13 11 10 7 6 6 6 5 5 2 2 7 11 13
3 1 3 2 1 1 1 4 6 4 3 2 3 5 4 7 7 6 5 6 6 5 6 7 13 13 14 13 12 10 10 8 6 5 5 6 7 8 5 0 6 11 12 11
5 3 4 2 2 2 6 5 2 3 3 4 5 2 4 5 9 6 7 8 7 7 6 6 9 7 8 7 6 7 6 8 6 5 4 4 5 4 0 5 9 11 12 11
4 4 4 5 2 3 3 4 4 4 3 3 5 3 4 1 9 9 6 7 6 7 5 5 5 6 6 8 6 5 8 6 6 7 6 6 4 2 6 8 11 11 11 10
4 1 3 2 2 3 1 3 3 6 3 3 2 2 5 3 7 7 9 8 7 3 4 7 10 9 7 5 3 3 4 6 8 7 5 1 6 9 11 13 13 16 15 15
5 4 1 2 3 3 4 4 3 4 2 1 3 4 4 8 9 9 8 5 6 6 6 7 10 9 7 4 2 2 4 4 3 2 6 9 11 14 15 15 17 18 17 16
3 4 4 2 3 1 4 2 6 5 3 4 1 5 4 11 10 8 5 5 7 6 7 6 9 7 5 3 3 2 5 3 4 6 9 16 18 15 14 18 19 23 22 16
2 5 3 1 4 3 2 2 4 4 2 1 3 5 4 4 7 7 7 8 7 7 5 6 6 6 5 6 5 4 4 6 8 10 14 16 13 13 17 21 23 24 21 15
2 2 3 6 6 5 2 3 5 5 3 4 4 5 2 6 7 6 9 8 6 6 5 3 3 4 4 5 3 2 6 7 9 11 9 9 13 14 14 17 21 21 18 17
4 3 5 6 4 3 3 2 3 5 3 3 6 3 2 5 7 5 6 7 6 5 4 1 2 3 7 5 6 7 7 7 9 11 11 10 10 14 16 17 18 19 18 18
4 4 2 3 4 1 2 4 6 6 5 6 5 7 6 9 8 7 6 6 5 3 2 2 2 5 10 8 5 6 8 9 11 12 8 10 12 16 17 17 19 20 23 21
4 1 2 1 5 5 4 6 6 6 4 6 4 4 4 5 6 5 6 6 4 3 3 2 5 6 7 9 7 7 7 10 11 7 8 9 13 15 14 18 22 24 23 20
3 4 3 3 4 5 6 8 9 5 4 6 6 7 8 6 7 7 7 6 5 4 2 4 3 8 6 6 6 7 10 12 11 6 7 9 11 16 17 21 19 19 18 14
5 4 3 2 3 2 6 4 5 4 2 3 3 9 10 6 4 6 5 5 5 4 1 5 5 4 4 4 7 10 11 12 6 6 8 11 15 17 19 20 18 17 6 3
3 5 3 3 3 5 4 4 6 6 7 6 8 6 5 4 4 3 5 5 5 5 10 6 4 3 3 8 9 8 7 4 4 7 10 14 16 17 17 16 15 14 7 4
6 6 4 3 4 6 6 3 4 3 5 9 7 8 7 6 2 5 8 6 5 12 8 3 3 4 7 7 5 7 8 6 7 9 14 14 14 15 16 13 11 5 6 2
2 3 5 2 3 8 7 4 3 5 7 7 9 8 9 7 5 3 6 5 12 8 4 6 4 6 7 7 9 8 6 8 10 15 14 12 13 15 13 11 8 6 2 3
7 6 4 3 1 8 7 3 8 6 1 7 7 7 8 5 6 4 5 7 9 10 5 4 6 7 9 11 8 7 9 11 16 16 12 11 12 12 11 5 6 2 4 1
3 7 5 9 6 4 5 3 2 5 6 6 7 6 6 7 6 7 6 6 8 5 4 4 6 8 10 9 7 8 12 16 15 13 12 11 11 10 6 5 1 2 1 3
4 4 3 3 4 7 7 2 3 4 5 5 6 6 7 7 7 6 6 7 5 3 2 5 7 10 13 13 10 12 17 16 11 12 13 12 10 11 7 7 6 2 1 3
5 5 4 4 6 3 6 6 6 6 7 7 6 5 6 9 6 6 5 6 4 1 5 7 8 12 11 11 16 17 18 12 13 14 14 10 7 7 5 5 4 3 4 5
5 6 4 6 7 5 5 7 8 8 7 9 9 6 9 9 7 8 7 5 2 4 6 8 12 12 12 18 18 17 14 13 16 16 14 9 8 8 6 4 6 4 5 6

GFSCGP_925_spd_036.txt.gz
Wind_Speed
5 7 3 3 3 3 3 4 2 1 3 7 5 5 8 7 8 7 7 7 7 8 8 15 19 23 25 24 21 14 7 15 23 19 17 15 16 13 10 8 6 5 5 6
6 4 3 4 5 6 5 6 3 2 6 7 5 8 7 7 4 4 7 6 7 7 6 13 20 23 25 23 23 22 21 20 18 17 13 8 8 7 6 4 3 4 5 8
6 0 3 4 5 9 4 5 2 3 3 6 4 5 5 5 6 6 5 5 5 8 9 6 14 19 22 24 24 23 20 16 11 8 7 6 5 3 3 2 1 4 6 10
5 3 4 6 6 3 3 0 3 4 3 3 3 3 2 3 3 2 4 5 6 6 4 6 11 15 19 17 16 15 14 12 10 8 5 4 4 4 4 3 2 4 8 13
1 2 5 7 1 3 1 5 5 4 5 4 3 4 4 6 5 8 5 5 6 5 6 7 11 13 10 11 12 11 10 8 5 3 3 4 4 2 4 3 2 6 11 13
3 2 3 2 3 3 4 5 8 5 3 2 1 4 4 6 6 5 4 5 6 6 3 4 12 13 7 6 9 9 8 6 5 4 3 4 3 3 3 1 5 10 13 14
6 4 5 3 3 3 6 5 3 3 3 4 3 2 6 4 5 9 9 8 7 7 6 5 8 12 14 14 8 8 5 5 3 2 2 2 3 2 3 6 10 14 14 16
4 4 3 5 2 4 3 5 4 4 3 3 3 4 4 4 7 9 8 7 6 5 4 2 4 7 7 9 9 6 6 4 3 2 2 1 3 5 8 11 11 14 16 17
4 0 2 2 2 3 2 3 4 6 1 2 2 4 4 6 5 6 8 7 8 5 4 5 7 9 9 9 6 5 4 3 4 3 3 5 7 9 12 13 14 19 20 22
5 4 2 2 2 5 2 5 3 3 2 3 3 4 4 5 7 7 9 8 6 6 7 7 11 10 9 8 4 2 1 5 5 6 6 7 12 14 14 14 17 20 19 21
3 4 4 1 3 3 2 2 6 4 3 4 1 5 5 11 11 13 8 7 8 7 7 5 8 8 7 6 4 1 4 3 4 7 9 12 16 16 14 16 20 22 23 24
1 5 2 2 2 2 2 3 4 4 3 1 3 6 2 7 8 8 7 7 6 6 6 5 6 6 6 4 3 4 1 6 6 8 13 12 10 11 11 13 13 16 20 21
5 2 3 6 5 4 2 3 4 5 3 5 5 5 3 4 6 4 8 7 7 6 5 3 5 5 4 4 4 3 3 4 6 7 9 10 8 9 11 14 17 18 20 23
6 3 5 7 4 3 4 4 4 5 3 4 6 4 3 3 5 6 7 7 7 6 5 2 2 4 6 4 4 6 8 7 7 8 8 6 8 10 14 16 18 21 23 25
3 4 2 2 3 2 2 4 6 7 5 6 4 7 6 9 8 7 7 7 6 5 4 3 2 3 5 5 7 6 5 6 9 10 7 7 8 12 16 19 22 24 24 22
3 2 1 2 3 5 3 6 7 5 3 7 4 8 6 4 7 7 8 8 6 5 5 4 2 5 8 7 4 3 6 8 10 10 8 7 10 14 17 20 23 22 20 18
3 5 3 4 4 5 6 9 9 5 5 7 6 8 6 4 8 10 9 8 7 6 5 4 7 9 6 3 1 5 9 10 12 8 6 10 12 16 19 19 20 18 18 13
5 4 3 2 3 2 6 2 5 8 5 7 2 4 10 6 3 6 5 7 7 7 6 7 9 6 5 2 5 8 10 11 8 6 9 11 15 18 19 19 18 17 14 10
3 5 3 3 3 6 5 5 6 7 7 8 7 4 5 5 4 3 7 6 7 6 7 10 7 6 3 5 6 6 7 7 7 8 9 14 15 18 19 20 17 14 8 6
5 6 4 3 4 6 6 3 3 3 5 5 7 8 8 6 3 6 9 6 6 6 10 7 6 3 3 3 4 8 8 7 8 10 14 16 15 17 20 19 13 11 13 9
3 3 4 2 3 8 7 3 2 5 7 5 8 7 9 6 5 3 8 6 11 15 11 9 5 1 1 5 8 7 6 8 10 14 18 16 14 17 17 16 9 9 8 3
7 6 4 3 2 7 6 3 7 6 2 5 7 8 13 4 7 6 7 7 10 12 11 6 2 1 3 7 6 6 7 10 15 16 15 14 16 18 15 11 12 6 1 3
2 6 5 8 6 5 6 4 3 3 4 5 7 5 8 7 6 7 7 8 12 10 7 4 0 3 5 7 7 8 11 15 17 14 12 14 16 15 13 10 7 6 6 6
4 4 2 2 4 7 8 5 5 5 5 4 4 6 8 9 8 7 8 8 10 8 4 0 3 4 8 7 7 11 16 17 14 12 16 19 15 12 11 9 9 9 6 7
4 4 4 5 8 4 9 8 6 5 4 5 5 4 6 8 7 9 6 6 6 5 1 3 4 7 9 9 14 15 15 14 11 12 17 18 15 11 9 7 7 8 6 9
5 6 4 6 6 3 6 4 4 7 6 7 7 7 9 14 9 8 7 7 6 2 3 5 7 8 10 14 15 15 13 13 14 16 17 17 14 12 12 10 8 9 9 9

GFSCGP_925_spd_039.txt.gz
Wind_Speed
2 3 3 2 2 3 4 3 4 3 4 6 5 4 7 4 6 7 6 6 6 6 5 7 11 14 19 20 21 21 17 11 9 16 22 19 14 12 9 7 5 4 5 7
4 3 2 5 5 5 4 6 3 3 3 4 4 8 7 5 2 3 8 8 9 10 9 11 13 15 16 19 20 18 15 17 19 21 18 12 14 8 7 5 4 4 6 9
5 1 3 3 4 8 5 6 3 4 4 6 3 2 2 5 5 5 5 8 10 14 13 10 12 13 16 18 20 22 22 21 18 14 12 10 8 6 4 3 1 4 7 11
5 3 4 3 3 2 4 2 4 6 2 2 2 3 1 2 4 6 9 10 11 10 8 11 15 15 17 20 20 20 19 18 17 15 7 5 3 3 3 2 2 4 9 11
1 2 4 3 0 2 4 3 4 3 4 2 1 2 1 3 6 11 11 10 9 7 9 10 12 13 12 18 19 17 15 13 10 7 3 2 1 1 2 2 2 5 10 11
3 1 3 2 3 4 8 5 5 3 2 1 1 3 3 6 8 13 11 10 9 8 8 9 7 8 6 10 11 11 13 9 6 3 2 1 2 3 2 2 5 6 10 12
4 3 3 3 4 3 4 4 2 1 1 3 2 2 5 4 6 17 16 13 11 10 11 10 12 13 11 9 13 10 9 8 6 4 3 5 5 3 3 6 9 9 11 12
3 0 3 4 2 4 2 3 4 4 3 1 0 4 2 3 6 13 15 14 12 11 10 9 9 9 7 7 6 7 7 6 5 4 6 4 3 4 7 9 11 12 14 15
4 1 1 3 1 1 4 2 2 6 2 1 2 3 5 2 4 11 15 13 13 12 10 10 10 8 6 6 6 7 7 5 5 5 2 1 4 8 12 13 12 13 15 18
4 3 1 1 1 6 1 7 3 2 3 3 2 4 4 4 8 11 15 16 13 9 7 6 7 7 7 7 5 5 5 6 5 3 2 4 7 9 9 9 12 16 17 18
3 3 2 1 0 5 2 2 5 4 1 2 1 4 3 8 11 16 16 13 12 9 8 7 9 8 7 6 5 6 7 6 2 1 4 6 6 8 9 10 12 14 17 18
1 4 3 2 0 1 1 3 4 3 4 1 1 5 1 5 7 8 11 9 8 10 10 10 9 8 7 6 8 9 5 2 2 3 6 6 8 6 7 10 12 15 17 19
5 1 3 2 2 1 3 3 4 5 2 5 4 4 2 3 5 11 12 9 11 12 10 8 9 8 8 9 9 7 4 5 6 4 7 8 5 5 7 10 13 15 18 20
5 3 4 6 3 2 4 4 4 4 3 4 6 4 5 6 7 7 10 12 13 11 10 8 8 7 7 9 8 8 6 4 3 7 9 6 5 6 9 12 15 19 20 18
3 4 2 1 1 1 2 4 9 8 4 7 4 9 6 7 11 11 10 13 13 12 10 8 8 8 8 10 13 9 4 2 6 8 9 7 6 8 11 14 18 19 18 16
2 3 2 3 1 3 4 5 6 7 4 11 5 14 9 1 7 11 14 15 14 12 10 9 9 10 11 11 9 6 1 4 7 9 9 6 7 9 13 17 17 15 14 14
2 5 3 3 3 3 5 9 13 6 6 8 10 9 5 6 10 15 16 14 13 11 10 10 9 12 11 9 6 1 3 7 8 9 5 5 8 12 14 14 14 14 13 10
5 4 2 2 2 1 4 2 2 10 7 12 4 4 6 2 3 8 12 15 11 9 10 8 12 11 9 6 1 3 5 6 6 5 5 7 11 13 11 13 14 12 11 10
3 4 3 2 3 5 5 2 5 6 5 11 13 4 3 5 4 4 10 9 10 10 11 12 13 12 10 3 3 3 4 6 5 5 7 10 12 9 10 13 13 11 11 10
5 5 3 3 2 5 5 2 3 3 4 1 6 6 8 8 4 5 14 11 9 12 13 14 10 6 4 1 2 6 6 5 5 7 10 12 11 9 11 13 13 11 11 11
2 3 3 2 3 7 6 2 1 3 4 3 6 7 11 7 4 1 10 11 13 15 14 14 12 8 3 1 5 7 5 5 7 10 13 13 10 9 14 15 12 10 10 7
5 6 3 3 1 6 5 3 4 3 2 2 4 8 13 5 6 7 10 12 17 16 13 8 7 5 0 3 5 5 6 8 11 13 12 9 9 13 17 15 11 8 6 5
3 5 4 8 5 3 5 4 2 1 3 2 2 4 8 8 7 10 11 12 14 16 14 8 5 2 1 4 6 5 7 12 15 14 10 9 12 16 14 11 11 9 7 7
3 3 2 1 2 7 10 8 7 5 5 4 5 6 12 9 11 11 10 10 10 7 5 6 3 2 3 5 5 8 12 13 12 10 9 11 12 13 11 9 9 9 10 9
2 5 3 4 8 5 6 6 6 5 5 3 1 3 7 13 12 13 12 13 11 8 6 5 4 3 5 5 9 11 12 11 9 9 11 13 12 12 10 10 9 8 9 9
4 4 4 4 2 3 5 4 4 3 3 3 7 10 12 16 14 16 10 8 10 10 6 4 4 4 5 8 11 12 12 11 10 12 13 13 12 11 10 11 13 13 13 12

GFSCGP_925_spd_042.txt.gz
Wind_Speed
7 7 6 13 4 4 4 6 12 8 4 7 6 6 5 6 10 11 11 10 10 8 6 7 8 10 15 17 18 19 19 18 16 9 8 9 10 8 6 5 6 5 5 6
6 3 5 5 4 3 5 7 7 5 4 5 9 6 4 6 8 9 10 10 9 9 9 10 10 11 14 17 18 17 14 11 10 12 11 9 10 6 5 5 4 4 5 5
5 6 4 7 8 7 4 3 10 5 7 2 9 8 8 4 6 6 7 7 8 9 11 11 12 13 15 17 18 17 15 17 15 14 10 8 7 7 6 4 3 3 3 2
4 3 4 6 6 3 5 2 5 11 10 7 8 7 10 9 8 9 9 10 11 12 12 13 16 17 18 18 19 20 19 17 14 13 10 9 4 3 1 2 3 2 2 5
4 5 5 4 3 1 4 4 4 3 4 5 9 7 8 9 10 12 12 13 13 12 13 15 18 19 18 16 16 16 15 12 11 9 5 4 3 3 3 3 3 2 4 5
5 3 2 3 6 2 10 8 6 2 3 8 4 6 9 7 7 13 14 15 14 12 14 17 18 17 16 13 12 12 12 12 8 6 6 5 5 4 3 3 5 6 8 9
6 3 3 3 9 6 6 6 3 3 4 6 3 6 11 2 3 10 17 17 16 14 15 15 17 16 15 13 11 10 10 10 9 8 7 7 6 3 2 5 7 9 12 13
9 7 5 1 3 2 2 3 3 4 3 1 3 5 2 2 2 6 16 17 16 15 15 15 16 15 13 12 11 9 9 9 8 7 8 6 2 1 4 5 8 10 12 12
6 4 4 3 2 3 5 4 3 2 1 3 3 4 8 2 3 8 16 17 17 17 16 15 15 13 13 12 9 10 9 9 8 8 5 4 1 3 6 7 7 8 9 11
4 4 2 5 2 7 4 9 3 3 3 4 3 5 2 4 7 10 16 18 18 16 15 13 15 13 11 11 10 10 8 9 8 6 4 1 3 4 3 3 4 6 10 14
5 3 6 4 7 6 4 4 1 0 2 2 3 2 3 1 5 11 15 17 17 16 14 12 12 12 12 11 11 11 11 10 7 4 2 3 3 1 2 3 6 9 13 16
2 1 4 5 3 1 2 5 8 4 4 1 2 3 4 1 2 8 12 15 15 14 13 12 14 15 15 13 13 13 12 9 6 5 6 4 2 3 4 5 8 11 14 16
6 3 4 4 4 4 7 9 5 4 1 6 3 3 4 4 5 8 11 13 13 13 14 12 15 15 15 14 14 13 10 9 8 8 4 3 4 4 5 7 10 13 16 18
3 3 7 10 2 0 6 11 11 11 4 5 10 12 8 8 8 7 12 14 16 15 15 14 14 15 15 15 15 13 9 10 7 3 4 5 5 5 6 8 12 15 16 17
3 6 4 2 0 3 4 8 13 15 14 8 11 11 11 5 9 9 10 12 15 16 16 14 13 14 14 14 14 9 10 6 3 4 6 7 6 6 7 11 14 16 16 15
2 3 3 3 2 2 7 8 10 15 16 15 19 20 15 8 7 8 11 14 15 15 16 14 13 13 13 14 12 10 7 3 3 6 8 7 7 7 10 13 15 15 15 14
4 5 4 2 2 3 6 15 18 13 12 15 14 16 3 6 8 10 12 15 16 16 15 14 13 14 13 13 10 7 4 3 4 7 6 5 7 9 12 14 14 14 14 13
5 5 1 1 2 3 1 1 3 12 16 15 17 10 7 4 4 6 10 13 14 14 14 12 14 14 15 12 8 4 4 3 4 6 6 7 9 12 13 13 14 13 13 11
1 4 3 2 4 6 12 3 3 3 6 4 12 8 4 2 3 8 9 11 13 13 15 14 15 16 13 10 8 6 5 5 6 7 8 9 11 13 12 12 13 13 11 12
5 3 2 3 3 4 3 4 1 2 5 3 3 4 6 5 4 5 11 12 12 14 14 16 16 15 12 6 4 4 7 7 7 8 8 10 13 12 12 12 13 13 12 11
2 1 4 3 4 6 1 1 2 2 3 1 2 3 8 6 4 3 8 11 13 14 17 19 17 13 10 7 5 6 6 7 7 7 9 12 12 11 12 13 14 14 13 12
5 6 3 3 3 4 5 6 3 4 3 3 3 3 7 6 1 4 9 11 13 16 16 12 12 9 7 5 3 6 7 6 7 9 13 13 12 12 14 16 15 14 12 11
3 3 1 6 1 3 6 6 3 4 7 7 5 3 6 6 6 8 11 14 16 18 15 11 3 4 4 2 3 6 6 7 9 11 12 11 10 12 13 14 14 14 12 11
5 4 3 2 2 5 6 7 8 9 10 10 8 9 8 8 8 9 11 12 14 14 10 3 7 5 3 3 5 6 7 8 10 11 11 11 12 13 14 13 12 13 12 12
2 7 5 4 8 5 4 4 7 9 7 6 4 5 4 5 9 10 11 11 13 10 6 4 4 4 5 5 6 8 8 9 11 12 11 13 12 13 14 13 13 13 14 13
2 1 2 2 5 4 5 10 9 8 8 5 4 7 8 10 12 16 14 13 6 3 2 2 5 6 7 7 9 9 9 10 11 12 13 13 13 14 15 15 15 14 17 18

GFSCGP_925_spd_045.txt.gz
Wind_Speed
11 7 9 16 18 7 11 10 10 14 9 13 11 10 12 13 14 14 15 15 14 14 12 10 11 11 12 16 20 18 20 17 15 7 6 11 12 12 9 6 6 5 4 4
14 7 12 9 9 7 7 4 7 8 9 7 7 11 11 14 16 17 15 14 14 13 11 12 12 12 13 16 18 19 16 15 11 9 11 13 13 11 9 7 6 5 4 2
9 5 4 6 8 7 3 8 4 9 10 13 9 14 14 12 11 9 14 15 14 14 14 12 14 13 14 17 20 17 17 16 15 15 13 11 9 9 9 7 5 4 2 1
6 19 8 7 5 6 8 1 2 4 12 13 17 12 15 17 15 14 13 13 12 14 11 12 16 19 20 20 20 19 18 19 17 15 13 13 11 8 3 2 4 5 2 3
8 9 7 9 5 6 9 3 4 6 11 9 18 8 19 16 15 15 15 15 15 13 14 14 17 20 21 20 20 19 19 17 15 12 11 11 6 2 2 2 3 5 7 6
5 6 2 9 2 3 4 4 6 8 10 9 14 10 3 12 12 17 13 14 14 14 15 17 20 21 21 18 17 16 16 14 14 11 8 7 5 3 4 4 6 9 8 11
13 8 4 5 6 3 7 7 8 5 4 8 5 5 13 7 3 6 14 15 15 15 15 16 17 21 21 19 16 15 14 13 12 10 9 7 6 4 3 5 8 9 11 12
11 8 11 7 10 5 8 10 5 6 7 7 6 7 3 8 3 1 13 15 16 15 16 17 19 19 20 18 16 15 15 13 11 11 9 7 6 4 4 5 8 10 12 12
16 5 7 1 3 5 6 7 5 3 0 5 10 6 9 5 5 6 13 16 17 16 17 17 20 18 18 17 17 14 15 14 13 11 10 8 5 3 6 6 7 9 9 11
3 3 4 6 5 6 8 3 4 4 3 6 4 4 6 7 6 8 13 16 17 17 18 17 18 18 17 17 15 14 15 15 13 12 9 7 4 5 7 6 7 7 9 11
7 8 7 5 10 11 7 8 6 4 2 4 3 2 7 4 5 8 11 14 16 17 17 15 17 18 15 14 14 15 15 14 13 9 8 6 6 6 7 7 7 8 10 13
5 4 7 11 3 5 9 8 9 6 6 3 3 5 4 5 3 6 9 13 15 17 17 15 17 15 16 16 17 16 15 15 10 8 5 8 7 7 8 8 8 8 12 14
6 7 9 7 6 6 8 10 8 7 1 9 4 3 6 7 4 4 8 11 13 16 16 14 14 15 17 18 17 16 15 12 9 5 8 9 7 8 8 8 8 11 13 15
1 12 10 10 8 5 12 12 12 12 8 10 11 13 5 9 7 6 8 10 13 15 14 13 13 17 18 17 16 16 12 10 9 8 8 7 8 8 8 8 10 12 14 16
5 9 13 14 6 8 8 9 10 15 17 15 12 15 10 7 5 7 9 9 12 12 14 15 15 15 17 16 17 14 11 11 8 9 7 7 7 8 9 9 11 13 15 15
5 6 4 5 7 9 11 13 13 14 17 18 18 18 15 10 6 6 10 8 11 14 15 15 15 16 17 18 16 14 12 9 7 6 6 8 8 9 9 11 13 15 15 15
6 4 4 7 3 5 6 15 18 17 17 14 15 16 8 8 6 8 7 7 10 12 13 14 13 15 15 15 16 14 10 7 5 6 8 8 8 9 11 13 14 15 15 16
5 7 1 1 1 1 2 2 5 7 12 14 14 13 10 7 7 5 6 8 8 9 11 12 13 13 14 15 15 10 8 6 6 7 8 8 9 11 12 14 15 15 16 14
3 5 3 3 6 9 12 5 2 2 5 6 8 9 3 3 5 13 5 5 6 8 9 11 12 13 14 14 11 8 7 5 5 7 8 10 10 12 14 15 15 15 16 14
3 3 4 3 3 4 3 4 1 1 5 8 6 4 1 2 4 4 3 1 4 7 9 11 12 13 13 10 6 2 4 7 7 8 8 10 12 13 15 15 15 16 15 14
3 1 6 5 3 6 4 3 2 5 3 6 6 5 3 6 7 7 3 4 7 8 9 11 12 12 11 7 4 2 7 7 7 8 9 12 14 16 15 15 15 17 15 12
7 7 3 3 3 5 7 6 1 5 5 5 6 5 7 7 4 4 3 4 6 9 12 13 12 10 6 3 0 5 6 8 8 9 12 14 15 15 14 15 17 16 13 14
4 4 2 6 1 5 4 4 3 5 8 8 9 9 8 8 6 3 2 5 7 11 12 10 9 8 4 1 3 4 6 7 9 12 13 14 14 14 15 16 16 14 13 14
4 2 3 1 3 3 1 3 6 8 8 9 8 9 9 10 8 3 5 8 12 12 11 10 7 1 2 2 4 6 7 8 11 13 13 14 14 14 15 16 14 11 14 15
3 6 5 5 7 3 8 6 9 9 8 8 5 7 6 4 5 8 8 10 14 13 9 4 4 8 7 7 8 8 9 10 12 13 14 14 15 15 15 16 16 15 16 17
3 1 3 1 5 4 7 9 9 7 8 7 6 10 12 11 11 17 14 15 11 8 7 2 6 9 9 9 9 11 11 11 12 13 14 14 14 15 16 17 17 19 20 20

GFSCGP_925_spd_048.txt.gz
Wind_Speed
7 6 9 12 14 11 6 7 13 13 10 12 11 14 13 13 11 15 14 13 13 13 13 14 13 13 22 27 28 28 22 19 16 11 10 9 10 10 10 8 7 7 7 4
9 10 6 9 15 18 13 6 9 11 10 10 11 10 13 14 14 13 14 14 14 14 12 13 12 11 13 25 26 27 22 17 18 13 11 13 13 12 12 12 10 8 7 5
7 8 22 19 22 17 11 8 9 11 7 9 7 11 15 13 13 13 13 16 15 15 14 12 15 14 13 19 21 20 19 19 19 17 16 18 16 16 15 13 13 11 7 3
5 15 21 22 5 7 5 9 10 15 11 9 7 6 2 11 14 16 16 14 16 17 15 14 14 14 14 15 17 21 23 22 18 19 19 19 16 15 15 16 16 11 9 5
15 11 20 18 4 3 4 15 17 11 9 4 4 7 17 11 16 14 10 11 11 13 14 14 18 20 17 20 25 26 24 20 20 16 16 16 9 12 10 6 9 7 7 9
13 13 25 2 3 0 14 13 12 9 9 6 15 11 9 13 16 9 13 13 10 10 10 10 24 25 26 27 23 23 22 20 19 13 13 16 10 10 10 8 7 5 9 4
0 12 4 8 8 5 7 8 3 5 6 5 9 7 2 19 14 20 17 13 12 11 10 11 13 17 21 19 19 20 20 19 17 14 11 8 7 6 5 3 3 1 5 7
9 10 11 9 5 4 17 1 2 3 3 6 13 4 5 12 7 9 13 12 11 11 11 13 15 19 20 18 18 18 18 18 18 14 12 10 9 8 6 4 3 4 6 7
1 2 10 16 3 11 11 4 3 6 3 2 5 11 7 7 8 5 12 13 13 13 13 14 18 21 22 20 19 17 18 18 19 15 14 12 9 4 4 3 3 4 4 4
6 6 16 21 5 5 6 6 3 2 2 4 8 11 10 7 8 6 11 12 14 13 13 13 17 18 23 23 20 20 15 21 19 16 13 11 9 5 5 4 4 4 4 5
7 13 11 8 8 8 5 7 6 8 4 1 4 4 6 7 8 7 7 12 13 14 13 13 15 22 19 22 21 19 15 21 19 17 14 12 7 4 3 8 4 2 4 6
12 5 4 10 2 5 10 11 8 3 6 3 0 5 4 6 6 6 6 10 13 14 13 13 16 19 19 18 19 14 14 17 16 15 13 11 7 11 9 6 6 4 5 8
4 4 5 9 7 8 8 12 9 8 2 5 3 3 6 6 3 3 3 7 9 11 13 13 13 13 16 15 14 16 14 13 15 13 8 10 12 7 5 6 4 5 7 9
4 5 9 6 11 4 6 10 11 10 3 4 9 13 7 11 10 8 8 4 5 10 12 13 11 12 15 15 14 16 16 14 12 8 12 8 8 4 1 3 4 6 8 11
3 8 12 14 14 12 8 13 7 10 10 10 11 15 12 9 5 3 4 6 6 7 10 9 8 6 12 13 14 15 16 11 7 9 8 3 3 3 5 6 6 7 10 12
5 6 5 8 10 13 10 14 15 14 15 15 14 14 11 8 8 9 7 7 5 5 5 5 5 8 12 14 15 16 11 10 10 7 2 7 8 6 3 4 8 11 10 11
7 3 2 2 6 7 5 10 15 16 15 11 12 10 8 9 5 7 3 5 2 6 5 5 6 9 12 15 17 15 12 9 6 3 6 8 4 4 6 8 12 13 12 13
6 5 2 1 1 1 9 3 5 5 8 9 10 10 10 12 10 7 4 6 6 0 5 1 4 7 13 16 14 12 11 10 4 2 6 4 4 5 9 11 13 14 13 12
4 5 2 2 4 7 12 2 2 1 3 11 9 9 9 10 7 11 8 9 8 7 4 4 9 14 14 13 12 12 7 3 2 1 3 4 6 10 10 12 14 14 14 13
2 5 3 3 3 5 1 6 2 2 2 8 8 7 6 4 3 6 9 6 5 3 4 10 17 17 16 16 11 9 11 9 9 5 4 6 9 11 13 15 13 13 14 17
2 1 4 3 2 5 3 6 1 3 3 6 7 7 7 6 4 6 8 5 7 10 12 20 18 15 20 18 14 10 7 3 4 7 8 9 12 13 15 16 12 13 16 12
7 6 3 2 2 6 7 6 2 4 5 7 6 7 5 4 6 5 7 5 7 16 17 16 19 20 16 13 11 11 12 13 12 11 11 11 13 14 14 15 15 16 15 10
4 5 4 7 4 5 5 8 6 6 6 7 7 7 7 7 7 1 4 9 13 16 23 21 19 17 15 10 5 1 2 7 9 8 11 13 14 14 14 15 15 15 12 10
5 4 2 2 4 8 7 12 10 9 7 7 7 8 8 7 6 8 8 11 16 19 18 15 12 9 6 2 3 9 9 7 10 11 13 14 15 15 15 16 17 15 12 12
2 7 5 5 3 11 12 11 7 6 8 7 10 10 9 5 11 14 15 16 19 16 12 9 5 2 7 9 10 8 9 10 12 14 14 15 16 16 17 16 18 17 13 15
4 0 3 1 6 6 9 8 8 9 10 11 13 15 18 20 17 20 14 15 13 11 6 3 6 8 7 9 10 11 12 12 12 14 15 16 17 17 19 19 19 20 22 23

GFSCGP_925_spd_051.txt.gz
Wind_Speed
4 3 1 3 2 8 8 13 10 7 9 10 15 10 11 9 12 12 10 9 9 11 14 27 33 35 34 39 37 38 37 32 27 22 14 12 13 14 15 15 14 13 11 10
3 3 4 11 10 11 9 12 1 8 5 7 6 12 12 9 12 14 13 11 13 8 11 14 23 32 34 40 39 38 35 29 23 18 15 13 17 18 17 15 13 13 11 8
4 3 4 8 13 15 7 4 2 3 4 2 3 2 2 6 7 12 14 14 13 15 13 8 16 28 29 29 37 35 31 26 21 21 18 16 18 20 18 14 15 14 10 8
3 5 3 9 16 19 8 13 2 0 3 2 4 2 1 4 9 8 12 11 11 11 13 10 14 22 27 29 29 28 25 22 24 23 24 26 23 24 23 18 17 14 12 11
3 5 0 6 14 11 7 11 6 5 2 4 2 4 6 5 5 5 9 11 15 17 18 16 16 28 32 29 28 25 23 22 25 22 28 26 25 23 19 19 18 16 13 10
8 5 5 5 7 8 3 2 4 5 3 2 10 5 4 7 18 4 6 4 9 10 14 13 22 24 27 30 26 24 25 25 22 27 26 25 18 20 23 24 22 16 13 10
3 8 3 4 10 6 6 4 3 5 6 4 4 5 8 8 9 17 17 14 5 9 12 14 14 18 21 23 22 25 25 26 28 19 19 16 18 18 17 17 15 11 9 9
6 3 2 5 4 4 5 3 4 4 1 5 5 4 5 3 7 14 14 8 6 9 10 13 13 19 22 24 23 24 29 29 25 19 15 14 14 14 14 12 10 7 4 5
4 3 4 7 5 4 1 4 6 5 2 3 4 3 4 6 6 8 10 9 8 9 8 10 15 24 27 27 24 21 23 26 24 20 18 16 15 14 13 9 7 7 3 2
2 4 3 7 5 8 5 4 2 3 2 3 4 3 3 6 5 6 9 9 9 9 9 8 13 23 28 27 22 18 14 25 25 24 23 19 16 12 5 7 4 5 6 3
6 4 2 6 2 11 2 3 2 4 5 5 1 4 2 8 8 9 9 13 12 10 10 9 12 24 30 31 27 26 19 25 24 24 21 20 15 9 8 3 2 6 4 5
8 5 4 14 20 14 6 6 6 5 5 3 5 5 2 7 8 9 8 12 13 13 12 10 15 24 27 30 31 32 23 27 25 24 21 17 10 5 2 4 5 8 6 2
2 2 3 1 4 3 3 5 4 3 4 4 5 5 3 6 5 5 5 8 10 12 10 10 10 17 22 25 25 26 25 25 23 19 14 5 6 6 5 11 9 7 3 3
7 0 5 6 6 4 4 5 6 4 4 4 6 4 10 8 8 7 6 4 8 12 13 12 11 16 20 21 23 25 27 28 25 17 12 9 6 6 9 7 3 4 5 7
4 4 1 4 5 5 4 1 5 4 5 6 8 7 10 2 7 1 4 0 3 6 7 9 8 9 22 25 24 27 30 26 20 17 13 10 11 7 7 4 4 5 9 12
1 3 3 1 5 7 4 6 6 6 6 5 3 4 4 7 7 8 7 7 8 8 8 8 11 15 19 23 27 27 26 22 18 21 17 12 8 6 3 2 6 9 11 9
6 4 3 2 4 6 6 7 5 6 4 3 3 5 9 9 9 7 8 9 7 7 8 7 8 14 20 26 31 28 26 25 24 20 14 9 7 3 3 8 14 14 13 14
6 5 3 3 3 1 8 2 5 5 5 8 8 9 9 8 10 12 8 10 9 8 8 8 13 21 23 26 28 29 28 24 19 16 15 12 9 7 9 13 13 14 15 14
4 5 2 4 4 5 8 2 3 4 4 5 7 7 6 7 10 8 8 8 7 8 12 18 23 27 29 30 30 29 24 22 20 17 15 13 10 11 16 17 16 18 15 14
6 5 5 2 4 6 6 4 4 3 1 5 8 8 8 6 4 3 7 9 11 19 21 25 27 29 32 28 30 30 24 20 16 12 11 2 10 16 15 16 17 15 13 14
3 3 5 2 2 7 5 6 1 6 6 4 7 6 8 5 5 4 7 15 24 23 27 30 31 27 26 26 26 25 23 19 11 2 8 12 10 13 14 15 16 15 16 17
7 6 3 3 2 6 6 4 6 5 4 7 6 6 6 5 5 7 15 16 21 23 26 26 28 26 26 23 21 16 11 2 5 9 11 9 12 14 14 16 18 17 17 18
2 7 6 7 6 5 9 12 6 8 7 5 7 7 7 7 5 13 15 16 20 23 23 24 23 20 17 13 10 8 4 4 7 11 13 12 14 16 16 17 18 19 21 21
2 4 4 5 1 10 12 9 8 8 8 11 10 8 5 5 12 15 14 13 18 19 18 17 16 13 10 8 7 5 6 8 11 10 13 17 16 17 19 20 21 21 21 20
5 4 6 5 9 13 10 6 8 11 13 14 16 15 13 17 14 15 12 13 16 15 15 13 11 8 5 6 8 8 7 9 13 17 16 16 17 20 21 21 21 23 24 14
1 4 4 4 4 8 5 6 12 15 13 12 14 14 15 16 13 16 12 14 14 14 12 9 5 5 7 7 9 10 11 13 13 16 20 24 25 24 24 27 30 25 24 21

GFSCGP_925_spd_057.txt.gz
Wind_Speed
1 3 4 8 6 3 3 4 7 8 12 9 9 5 5 8 6 7 9 12 13 16 20 21 23 22 23 26 30 30 32 31 31 29 26 22 20 17 17 18 21 19 19 17
4 4 7 4 2 4 2 2 7 9 6 8 5 8 5 7 7 12 13 13 15 13 11 18 23 26 29 33 34 31 33 35 33 31 28 24 22 19 20 22 20 18 17 16
6 5 1 3 3 3 3 4 5 7 6 3 4 4 5 5 5 7 12 17 15 18 17 16 22 29 33 37 39 38 38 38 36 32 27 19 21 16 19 21 20 19 16 15
5 3 5 2 5 4 5 6 4 2 2 3 3 4 4 7 11 12 13 13 16 17 16 16 22 27 36 43 41 41 40 40 38 33 29 25 24 18 21 24 23 21 18 15
6 6 5 5 7 5 6 3 2 2 3 1 3 3 5 5 8 14 17 14 16 18 19 20 25 34 30 29 35 36 36 37 37 32 29 24 19 19 19 24 23 21 18 16
4 2 4 6 4 3 3 4 5 3 2 2 3 3 5 5 15 15 15 16 17 16 14 16 23 22 24 28 30 35 40 41 36 33 28 24 21 22 21 23 22 21 18 14
1 3 2 2 2 3 5 5 3 4 4 5 4 2 8 5 7 8 14 17 14 14 11 12 13 21 23 28 34 31 33 32 36 33 29 26 24 24 26 25 26 26 20 15
5 5 4 1 3 4 2 6 5 4 2 4 3 4 6 5 7 3 8 8 9 14 12 13 16 22 23 27 29 28 30 32 36 30 27 29 26 28 27 24 26 25 20 21
5 4 2 3 2 3 1 2 3 6 3 3 3 6 9 7 3 3 5 6 8 10 13 15 17 22 22 24 29 31 32 32 30 31 30 32 27 29 26 21 21 21 24 18
7 1 3 1 2 4 4 4 3 2 2 3 4 4 5 6 7 0 5 7 7 5 7 9 13 19 23 29 32 32 33 32 30 28 29 29 30 27 24 26 32 28 16 7
5 5 2 2 5 6 2 3 3 4 4 4 1 5 6 7 7 7 4 8 8 8 9 10 12 20 26 27 31 30 30 30 31 28 30 30 30 31 31 27 23 17 13 13
7 6 5 10 2 3 4 7 5 4 4 1 4 6 4 9 8 5 8 5 6 7 11 11 15 19 24 29 31 33 33 32 30 31 31 29 29 29 27 22 18 20 18 15
8 1 2 7 5 3 5 5 4 5 4 6 5 6 2 6 7 9 9 8 8 8 6 5 6 14 21 25 23 26 27 29 33 32 31 34 31 24 19 20 20 16 10 11
9 4 7 6 8 3 3 3 5 5 3 4 6 6 6 8 7 5 8 7 8 9 10 7 5 6 12 16 19 20 23 29 32 34 35 32 28 22 21 18 13 11 9 10
5 6 5 4 3 4 3 4 6 6 5 6 6 7 8 6 8 8 7 3 4 7 8 8 7 6 11 18 20 21 23 26 29 27 28 25 21 17 17 14 13 5 7 9
2 3 3 3 2 2 4 6 4 4 3 6 5 6 4 2 4 7 6 7 5 4 3 7 7 8 13 17 20 21 23 23 25 22 21 19 17 20 20 9 4 6 3 13
5 6 4 5 2 2 6 8 8 6 5 5 6 8 3 4 7 5 5 6 6 7 7 6 6 8 14 19 24 24 25 25 24 25 25 25 20 13 12 9 4 7 10 14
7 5 3 3 3 1 7 3 6 5 1 5 3 5 5 6 4 6 6 5 7 7 7 8 10 16 19 22 23 26 27 27 27 25 23 21 16 11 2 7 10 10 13 13
3 5 3 5 4 4 5 4 7 6 3 2 6 7 7 5 4 7 9 9 8 7 9 13 18 21 23 25 27 30 28 27 28 26 18 10 7 9 9 7 10 12 13 14
5 6 5 3 5 7 8 4 4 4 3 6 6 8 9 2 3 4 5 6 9 14 15 17 22 25 28 25 30 32 27 27 22 13 6 7 13 11 6 8 10 12 13 16
3 3 5 2 2 7 7 5 5 6 7 8 8 6 6 4 2 6 9 9 12 15 18 23 25 26 27 29 30 28 22 16 7 6 9 6 2 4 7 10 12 14 16 19
8 7 4 3 3 6 6 4 8 6 3 6 6 5 6 10 10 10 10 8 12 15 19 21 23 23 21 21 21 17 12 5 3 3 1 3 6 7 9 13 14 15 18 21
2 6 6 8 6 2 2 4 1 4 8 5 7 6 12 13 8 11 10 10 12 14 17 19 21 22 19 16 13 13 8 4 3 4 6 8 10 12 14 16 19 20 22 24
3 3 4 4 3 0 2 2 3 4 6 6 5 11 10 13 13 12 10 8 10 14 15 17 18 17 16 12 13 12 8 5 5 8 11 13 16 19 20 22 24 27 30 31
5 6 6 2 1 4 4 3 5 9 9 11 9 6 14 17 13 13 10 9 13 14 16 17 17 16 17 16 16 15 13 11 12 13 16 18 19 21 23 24 24 24 27 25
6 7 6 6 12 5 5 7 6 9 9 9 16 12 10 15 15 16 9 15 15 14 16 19 19 18 14 15 16 16 16 16 17 18 21 22 24 25 26 28 31 25 26 29

GFSCGP_925_spd_060.txt.gz
Wind_Speed
2 4 3 7 5 8 5 4 2 4 6 3 8 7 8 9 7 9 9 8 10 13 15 16 19 20 21 26 23 24 28 26 26 25 23 22 22 19 17 16 16 19 19 19
4 3 4 3 2 4 2 2 4 6 2 5 5 7 4 10 12 12 14 12 14 10 7 13 19 24 26 30 28 28 31 32 31 30 29 25 24 19 18 18 18 19 19 18
5 5 4 5 4 3 3 4 3 5 3 2 1 5 4 6 6 7 10 13 11 14 13 10 17 27 31 33 34 34 33 33 33 33 29 22 22 18 19 20 20 20 19 18
4 3 4 4 5 6 5 5 3 4 0 1 0 3 5 5 8 9 13 12 13 13 11 11 17 21 29 30 31 33 33 33 35 33 32 31 32 22 22 23 23 21 21 19
6 4 4 4 6 5 8 4 5 3 1 3 2 3 7 3 6 12 13 13 15 16 16 16 19 25 26 31 33 32 33 34 37 37 36 33 28 24 20 24 25 23 20 19
4 3 5 6 3 5 0 3 4 4 3 1 2 4 5 5 8 6 5 10 14 13 13 12 18 21 22 26 30 32 35 37 36 36 36 33 25 24 20 24 27 24 20 18
2 3 2 3 1 1 3 5 3 4 3 5 2 1 9 1 5 9 11 15 16 14 12 11 11 18 23 29 33 34 34 31 36 37 37 33 28 26 25 26 30 27 25 21
6 4 6 3 4 4 1 5 4 2 2 4 5 4 5 4 6 7 9 10 10 9 12 14 15 21 25 31 32 30 30 31 34 34 36 34 31 29 24 23 28 29 26 23
5 5 2 2 2 3 2 2 3 6 2 2 4 7 9 4 4 5 5 3 8 10 12 15 14 22 24 27 32 33 30 31 29 36 35 34 31 28 24 25 25 27 29 31
8 0 1 2 3 1 1 6 3 3 1 4 4 5 5 8 6 6 8 6 3 4 6 7 8 18 22 26 29 30 31 33 33 33 35 32 29 27 26 26 26 31 31 29
5 5 3 1 5 7 3 1 4 4 4 4 1 5 7 7 5 3 4 7 6 7 8 7 7 15 19 21 25 28 30 30 31 30 30 30 28 28 25 25 26 31 29 24
6 5 5 9 1 4 5 8 6 4 4 1 3 6 5 9 7 4 6 5 5 6 7 7 8 15 20 25 27 31 29 29 29 29 29 29 29 28 27 28 31 28 23 16
8 1 1 7 5 3 3 4 4 5 3 7 5 6 3 6 8 6 8 6 5 6 7 7 6 11 17 18 19 22 26 27 25 25 26 25 25 28 29 30 25 22 15 13
7 4 7 9 8 5 4 6 6 6 4 4 6 6 9 8 7 8 8 7 6 7 7 6 5 5 8 10 14 17 18 19 21 21 20 21 22 26 22 18 17 13 10 7
6 8 6 5 4 6 6 5 8 7 6 7 7 8 9 6 6 7 6 7 5 7 7 7 4 6 9 14 14 14 16 18 20 23 24 23 23 18 19 15 12 12 7 9
2 5 4 4 1 0 3 7 8 5 3 5 5 6 7 1 1 5 6 4 6 6 5 3 2 6 8 11 14 18 19 20 22 23 23 22 16 15 15 14 15 11 9 5
8 7 4 4 2 4 5 8 9 7 6 8 8 11 6 3 3 3 5 6 7 7 7 7 6 7 12 13 16 19 22 23 23 21 19 18 19 21 14 12 9 2 10 16
6 6 3 4 2 1 7 1 4 8 5 5 4 2 4 6 4 5 5 4 6 6 7 7 8 14 16 18 20 22 23 24 25 25 25 22 21 16 8 5 9 13 10 13
2 5 3 5 4 4 4 4 7 8 9 7 6 7 7 7 5 5 6 7 6 5 6 11 17 20 21 23 26 28 27 27 29 27 22 16 10 7 9 12 16 9 12 14
4 6 4 3 5 8 8 4 5 4 6 7 8 10 10 6 4 3 4 4 6 10 13 16 21 22 25 24 28 30 26 27 23 15 12 8 7 10 12 6 8 10 12 15
3 3 5 2 3 7 7 3 5 5 8 7 11 12 8 5 2 7 8 7 11 14 17 21 24 24 25 26 30 26 23 18 11 7 6 5 1 2 5 8 10 13 15 17
7 7 3 3 2 6 8 4 9 7 0 6 7 7 6 9 9 9 9 9 11 14 18 22 24 25 25 25 26 20 17 11 10 8 6 5 5 7 9 11 14 16 19 22
3 5 6 9 7 3 6 4 2 4 5 7 8 6 10 12 6 8 10 11 12 17 19 23 25 26 23 20 19 19 12 7 8 8 9 8 8 10 12 14 16 19 20 23
4 4 3 2 4 5 4 2 2 2 4 5 5 12 11 10 12 12 11 10 12 17 19 23 24 22 21 21 20 17 14 11 10 11 11 12 13 16 17 18 20 21 22 24
4 7 6 3 4 6 6 4 4 5 6 10 9 7 12 15 12 12 11 10 15 17 20 23 22 21 20 19 19 16 14 12 12 12 13 15 16 18 21 22 20 20 20 19
5 8 6 9 9 6 5 9 8 8 6 7 15 10 8 11 15 13 10 15 17 18 19 21 20 23 18 17 17 15 14 13 14 14 16 17 19 21 21 22 22 18 17 19

GFSCGP_925_spd_063.txt.gz
Wind_Speed
1 2 4 7 5 2 2 3 3 3 5 4 5 9 10 12 10 10 11 12 12 15 16 17 19 20 22 23 23 24 22 22 25 24 22 20 21 21 21 18 16 17 20 22
1 5 4 2 4 2 2 4 4 2 3 3 6 9 5 15 16 16 14 13 14 13 13 19 20 20 22 24 28 25 25 25 26 25 25 21 21 21 20 19 19 21 21 21
5 2 4 5 3 4 4 4 3 5 3 2 4 4 3 6 9 10 14 13 11 14 16 16 21 24 23 25 30 30 26 28 27 24 23 20 21 18 19 20 21 22 22 22
4 2 4 3 4 6 5 6 6 3 1 1 2 3 3 5 10 13 16 15 16 16 15 15 22 25 26 26 23 26 25 26 27 28 24 27 21 18 17 22 25 24 22 22
4 4 4 3 5 6 5 2 2 1 3 2 1 1 4 0 8 17 19 19 19 18 18 19 22 25 25 24 27 28 26 26 27 29 28 27 20 19 20 22 24 24 24 22
3 1 3 6 3 4 5 4 5 3 1 1 0 2 4 4 4 4 11 17 18 19 19 19 21 21 22 23 23 27 24 24 25 28 28 28 25 23 19 18 23 23 24 24
0 2 2 2 3 2 3 4 1 1 1 2 3 1 8 4 7 6 9 11 16 19 17 17 17 21 22 24 27 25 24 24 28 30 29 31 30 28 25 22 27 26 24 27
6 3 7 4 4 5 5 4 4 3 2 1 2 4 3 5 9 8 8 8 8 14 15 17 19 24 25 27 25 27 26 26 27 33 33 35 35 31 27 29 28 29 32 32
6 5 1 4 4 3 4 3 2 6 2 1 2 4 8 2 6 5 7 7 4 8 12 16 15 21 24 25 28 36 26 26 24 29 32 30 32 32 33 31 25 27 31 30
7 2 2 1 1 4 2 8 3 1 3 3 3 3 3 6 6 4 4 5 6 4 7 9 12 18 21 22 23 23 25 27 25 24 25 29 29 33 35 31 29 29 31 29
5 3 2 2 4 8 3 2 3 3 2 3 2 4 6 5 2 5 4 4 5 6 7 8 10 15 17 17 20 21 23 23 23 23 24 27 25 30 30 29 27 27 29 33
7 4 4 6 1 2 2 6 6 3 4 1 1 6 5 8 5 5 9 6 4 6 5 5 8 12 14 17 18 21 19 20 20 19 20 22 22 22 22 21 22 25 27 31
8 1 3 1 1 2 2 4 4 5 3 7 5 5 2 4 5 5 8 6 5 4 4 4 5 9 11 13 14 13 13 14 15 17 16 15 14 14 15 16 18 19 21 17
9 4 6 9 8 5 4 6 7 6 4 5 7 10 8 8 5 9 6 5 6 6 5 5 4 3 4 6 9 11 10 11 10 10 11 12 13 15 16 19 23 19 19 12
5 7 6 5 5 5 6 5 12 11 10 8 11 11 10 7 5 5 6 6 5 5 3 2 4 5 8 8 7 7 8 8 11 15 15 15 16 20 26 21 20 15 15 11
2 4 5 4 3 6 5 6 8 9 5 9 8 8 10 4 2 2 3 1 4 6 7 7 6 7 8 8 10 13 13 13 13 15 16 20 24 20 17 18 17 13 7 4
5 6 4 5 1 5 4 7 9 5 6 6 9 10 3 5 4 2 3 5 6 6 7 9 9 10 10 11 12 14 16 17 17 18 19 20 20 21 21 15 13 11 5 8
5 6 1 3 1 5 4 2 4 10 7 9 6 5 5 3 5 4 2 5 6 6 7 9 11 15 15 16 18 20 19 20 22 23 25 25 26 24 17 10 5 4 12 12
3 5 3 4 5 3 3 5 7 7 13 8 12 8 5 10 7 2 3 4 6 6 8 11 14 16 18 19 21 23 23 26 28 26 27 22 16 11 6 3 8 8 7 9
4 4 3 3 5 9 8 5 6 4 10 8 11 10 13 12 7 5 7 6 8 10 12 14 17 19 21 20 23 26 26 27 23 23 18 11 6 4 2 1 1 4 6 9
3 2 5 3 4 5 6 4 6 6 9 5 11 11 16 9 1 11 12 10 11 13 15 16 18 21 21 22 26 26 23 19 15 12 10 9 9 7 5 3 4 6 8 12
6 8 4 3 2 8 8 5 9 7 3 4 9 11 12 9 12 13 13 13 13 16 18 19 23 22 20 21 24 22 20 14 16 14 13 11 8 7 6 6 7 8 10 12
4 5 5 8 6 2 10 2 3 3 4 5 11 10 15 16 10 14 14 14 14 20 22 22 25 24 20 18 18 19 12 13 14 13 12 10 8 8 8 8 9 10 11 12
4 4 3 2 4 6 5 3 3 3 4 4 7 17 17 15 17 15 14 14 15 21 22 23 24 23 20 18 19 17 15 13 12 11 10 8 8 8 9 8 8 9 11 12
3 8 6 3 5 5 8 8 3 3 3 7 9 11 16 20 17 18 16 16 20 21 21 21 22 21 19 17 17 15 13 10 11 9 8 8 8 9 8 8 9 9 8 11
5 6 5 6 8 6 5 5 9 10 10 12 15 13 13 17 19 19 16 22 24 23 22 21 20 21 17 16 15 13 12 10 9 8 7 8 7 8 8 9 9 8 8 10

GFSCGP_925_spd_066.txt.gz
Wind_Speed
8 8 11 9 11 7 7 5 5 6 2 7 6 10 2 8 10 11 11 13 13 15 18 21 22 24 27 25 23 22 20 17 15 15 15 16 17 18 15 12 12 13 14 17
7 11 6 2 6 7 8 7 7 3 1 8 7 7 4 10 11 11 13 13 15 16 16 19 23 24 25 26 26 24 22 19 19 18 18 16 17 17 16 13 13 15 15 17
13 2 3 8 8 9 10 9 5 7 9 4 7 7 6 7 10 10 12 13 14 16 18 19 24 25 25 26 27 25 23 21 20 18 17 14 14 12 14 13 14 16 17 19
12 7 7 8 10 9 10 4 10 8 6 2 2 2 4 7 10 13 14 15 15 16 16 18 23 27 27 26 26 27 23 22 20 20 19 19 19 18 18 16 15 15 18 20
11 10 11 11 13 10 4 1 5 6 8 5 6 7 7 5 8 13 16 17 18 18 19 20 24 29 28 25 25 25 25 23 22 23 23 21 21 18 15 15 16 17 17 20
11 2 5 2 4 10 7 5 3 3 4 6 2 5 2 1 4 2 3 15 18 19 20 20 25 24 27 27 26 25 26 26 25 25 25 24 22 20 16 18 18 20 18 20
15 13 5 5 8 6 9 7 5 5 5 3 4 5 7 5 2 7 8 6 10 19 20 19 19 23 26 28 28 27 27 28 26 25 24 24 22 22 21 21 22 20 21 22
16 15 14 11 10 7 14 10 4 6 5 4 3 5 2 1 5 5 6 8 7 12 17 19 19 24 26 28 28 28 29 30 27 26 25 25 26 25 25 23 21 24 26 24
16 15 5 7 4 9 7 8 1 1 3 2 4 5 11 3 4 1 3 3 1 6 12 16 19 23 25 26 30 32 30 27 27 26 24 26 23 21 20 20 21 27 24 19
7 13 8 8 6 3 6 10 5 4 4 6 5 5 5 1 5 1 2 5 4 1 5 8 11 18 21 22 24 24 24 24 24 23 22 21 20 19 18 18 20 25 19 18
14 9 7 7 11 12 6 8 4 2 3 4 3 4 2 4 2 2 1 2 3 2 1 5 7 11 15 16 18 20 20 21 20 20 19 19 18 16 17 18 18 22 18 16
18 9 9 13 4 5 9 12 14 7 8 4 4 8 9 9 5 6 6 5 4 3 1 2 4 8 10 13 14 15 15 17 17 16 15 16 15 16 20 19 18 19 18 21
16 10 10 11 7 5 8 11 11 7 2 11 8 7 3 5 6 8 9 5 6 6 5 5 6 6 8 9 10 11 11 11 11 10 12 13 13 13 12 11 13 17 15 15
18 14 18 14 12 10 14 13 14 14 9 11 12 16 12 13 13 11 8 6 5 5 6 6 7 7 9 9 10 10 10 10 11 11 11 11 11 11 11 11 13 16 17 19
13 18 17 17 15 13 16 16 17 18 17 16 13 15 13 14 13 11 4 4 4 5 6 6 7 6 9 11 10 11 12 13 15 16 15 15 15 15 17 20 19 18 18 17
9 13 12 13 11 13 15 17 17 18 16 12 17 17 13 14 6 7 5 3 1 2 2 4 6 8 10 11 13 14 15 15 15 17 18 18 19 19 19 23 22 19 14 13
6 10 7 13 5 5 7 15 15 14 12 14 15 15 13 11 13 10 5 3 3 5 6 7 9 10 12 13 15 17 17 17 18 20 20 20 20 20 19 21 19 15 11 6
6 11 6 6 4 7 13 2 12 17 16 16 15 14 14 12 2 4 4 6 8 8 8 9 10 13 15 16 18 20 19 20 20 21 20 20 21 21 18 16 12 9 6 6
10 7 5 5 10 11 8 5 8 11 16 17 17 18 13 6 6 5 5 4 8 9 9 12 14 16 17 19 20 22 22 22 22 22 22 21 21 17 13 9 6 4 3 3
6 5 6 4 7 8 6 13 10 6 13 12 13 14 9 11 7 5 12 10 10 11 12 14 16 18 20 20 21 23 24 24 24 22 19 14 11 8 4 5 5 3 1 3
4 3 10 8 5 4 3 7 11 9 15 4 9 8 12 12 1 16 15 12 12 13 15 17 17 18 19 20 22 23 22 21 19 17 15 12 10 9 7 5 3 1 2 4
5 7 4 4 5 9 9 10 10 11 2 7 9 10 14 9 12 15 16 15 14 16 18 18 19 20 20 20 22 21 19 18 16 15 14 12 10 8 6 4 2 2 4 6
6 7 4 8 5 3 17 11 14 4 6 5 9 10 13 14 15 16 16 16 15 19 19 19 22 22 20 18 18 20 17 15 15 14 12 10 8 6 5 4 4 4 5 6
12 5 5 2 8 11 10 14 7 9 8 4 5 10 16 17 18 17 16 15 15 19 20 21 22 21 19 17 16 17 15 13 13 13 10 8 7 5 5 4 4 4 5 6
6 10 13 12 12 6 9 13 14 13 8 7 8 14 17 18 19 17 16 16 18 21 22 21 21 20 19 17 16 14 13 12 12 10 8 7 6 5 3 3 3 3 3 4
7 8 6 6 7 6 11 2 9 13 14 11 12 15 16 18 20 19 17 20 22 23 23 22 21 21 18 17 16 13 12 10 10 8 6 5 4 3 3 2 1 3 2 2

GFSCGP_925_spd_069.txt.gz
Wind_Speed
17 12 14 16 14 15 11 10 11 7 5 6 2 15 7 10 7 9 10 11 12 14 13 23 24 24 27 27 26 24 22 19 17 16 17 17 18 19 19 16 15 16 15 15
13 14 17 4 6 8 10 12 11 7 1 7 12 5 8 12 13 13 13 14 14 15 20 20 22 29 30 30 26 23 21 20 19 18 17 17 18 19 19 15 14 15 15 15
17 13 10 7 9 10 11 12 10 8 9 10 10 6 9 11 10 12 15 15 18 17 18 20 25 28 31 29 27 24 21 20 19 18 17 16 16 16 18 17 15 16 17 18
17 16 9 12 12 10 13 10 7 11 13 2 15 3 18 15 14 14 14 16 17 20 19 18 22 27 29 28 26 26 24 23 21 19 18 20 19 20 19 17 15 16 18 19
18 18 12 15 14 12 13 1 8 11 11 14 5 8 9 12 13 17 17 17 17 18 20 21 23 29 30 29 28 27 27 24 23 23 22 21 20 19 17 18 17 21 16 18
20 14 15 18 8 10 6 7 10 10 12 9 12 6 12 9 5 6 12 18 17 18 19 20 27 30 30 27 27 28 28 28 25 24 25 24 22 22 21 16 17 17 17 18
21 15 14 6 10 10 10 12 7 6 6 9 5 5 12 1 5 2 4 5 12 17 19 20 20 23 28 31 30 29 28 29 29 27 27 27 26 23 21 18 20 19 20 22
17 20 21 15 16 11 16 15 6 7 7 8 9 6 1 5 2 3 3 6 6 10 17 21 21 25 28 30 31 30 29 30 30 29 29 27 26 24 21 22 21 22 22 22
19 22 23 17 16 14 14 16 12 7 3 4 7 8 9 4 4 2 1 3 3 5 12 19 21 26 28 29 30 31 31 29 29 29 26 25 24 24 20 20 18 18 19 21
6 16 11 15 9 12 12 12 9 8 9 9 13 9 6 7 3 5 3 4 4 2 4 10 14 22 24 26 27 27 28 28 27 26 24 24 23 21 19 16 18 17 17 18
18 11 16 12 17 17 12 11 9 10 12 7 8 6 8 2 4 4 3 1 2 4 6 5 8 14 21 21 23 25 26 26 25 25 24 21 20 19 17 17 16 16 17 19
23 11 12 16 16 19 18 19 18 9 13 9 9 11 11 6 11 4 7 5 4 2 2 6 6 8 11 16 18 19 20 22 22 21 20 20 17 15 16 15 16 15 18 18
21 14 12 15 11 7 12 17 14 17 13 13 10 9 7 4 4 9 10 9 6 7 6 6 7 9 11 13 15 17 16 17 17 17 13 16 15 16 14 14 13 13 17 18
18 17 20 16 17 15 18 19 19 16 10 13 15 17 14 11 13 11 12 9 8 6 9 8 8 8 11 12 13 13 10 11 13 15 15 15 13 13 13 12 13 17 18 18
18 23 19 21 19 13 17 19 21 19 18 19 16 18 16 10 8 11 8 3 3 7 8 8 7 9 10 12 13 15 13 12 13 15 15 16 16 15 17 17 20 19 18 17
20 16 22 21 18 18 15 15 17 18 19 19 19 20 14 14 10 8 10 6 6 3 3 4 6 8 10 10 16 16 14 14 15 20 19 19 19 18 20 20 19 22 22 19
15 15 17 17 19 19 18 18 17 17 18 16 17 14 15 12 10 10 12 5 6 4 3 4 7 9 10 12 16 18 18 18 17 18 18 18 19 19 20 20 22 20 19 15
13 15 13 8 1 15 10 15 17 19 18 16 17 17 15 14 13 4 3 6 6 6 7 7 8 12 13 15 17 19 20 20 20 20 21 19 20 20 18 17 18 15 10 8
11 11 9 8 12 14 17 10 9 13 16 16 18 18 15 12 3 7 5 5 8 9 10 12 15 16 17 18 20 21 20 20 21 20 20 19 19 18 16 15 11 9 8 6
11 11 9 6 15 19 14 14 10 13 13 16 16 12 11 3 5 9 13 12 13 13 16 17 18 19 18 18 19 20 20 19 19 19 20 18 16 14 9 9 8 6 5 3
6 4 11 11 8 9 13 14 10 14 9 12 9 7 8 9 5 12 15 14 16 16 18 18 18 17 18 18 19 20 20 19 20 19 17 14 11 10 9 8 6 5 3 2
10 9 5 8 8 12 10 9 11 12 12 6 7 8 8 8 11 14 15 15 15 15 18 18 18 18 18 19 19 20 19 19 18 17 14 13 11 9 8 7 5 3 2 2
6 6 5 7 5 7 14 10 14 6 7 7 7 7 8 14 14 16 16 16 15 18 18 19 19 20 19 18 18 19 18 18 17 15 14 12 10 8 6 5 3 2 1 1
11 16 8 11 6 14 9 11 10 6 8 6 4 7 10 14 14 17 17 16 16 20 20 20 21 20 19 17 17 18 17 16 15 14 12 10 8 6 4 3 2 0 1 1
10 6 11 18 19 19 13 10 11 11 10 9 8 8 11 13 16 17 17 17 15 20 21 22 21 20 18 18 16 15 15 15 15 13 11 9 7 4 4 3 2 1 3 1
9 11 9 8 9 8 14 4 7 10 11 10 9 10 12 15 17 18 16 18 20 20 22 21 21 20 18 17 15 14 13 13 13 12 9 7 6 4 2 1 3 3 3 5

GFSCGP_925_spd_072.txt.gz
Wind_Speed
17 12 15 20 19 20 12 14 16 5 17 6 10 6 12 7 7 9 11 10 13 14 20 26 28 34 31 31 32 34 29 34 31 28 26 23 22 24 21 20 19 22 22 22
16 18 19 21 18 9 12 11 15 9 9 2 10 6 9 10 8 11 12 11 13 13 15 18 28 31 31 33 33 34 33 28 27 26 25 25 25 27 26 26 25 22 22 20
20 18 19 19 8 9 10 13 14 11 6 12 13 13 7 14 14 13 14 12 15 16 17 18 24 32 36 35 34 32 35 33 31 30 28 24 24 23 25 24 24 23 21 21
21 21 12 11 10 13 13 9 14 9 10 7 8 9 15 12 12 12 15 17 14 16 20 17 23 27 33 37 35 35 31 33 32 30 26 27 21 19 21 23 23 22 23 22
21 21 18 14 15 15 13 8 9 11 12 14 9 10 4 7 18 16 13 18 19 18 15 23 22 31 35 34 35 30 26 26 28 29 22 27 22 23 23 24 25 23 22 23
21 17 19 21 14 14 14 13 10 12 12 10 14 8 6 4 11 15 17 16 19 22 21 18 29 33 33 36 33 33 31 27 27 33 30 22 27 23 22 23 22 24 26 27
21 23 18 14 18 14 11 10 7 6 7 7 3 9 5 16 14 2 2 17 15 18 21 21 22 23 30 33 34 31 32 31 30 32 32 33 25 30 22 22 28 26 26 28
17 16 23 13 14 13 14 14 5 6 4 4 4 6 3 11 10 5 5 4 7 11 15 18 18 28 32 34 35 33 32 32 31 31 31 32 34 25 29 26 25 26 25 26
16 21 20 17 14 19 14 15 17 7 10 5 7 13 10 8 5 4 3 0 6 8 7 13 18 24 31 34 36 36 34 33 32 33 32 30 30 30 27 26 23 21 22 22
19 15 22 23 19 18 17 11 13 8 5 10 8 10 8 9 7 7 6 6 6 2 4 7 11 21 28 32 37 38 37 31 31 29 32 31 30 28 27 23 26 22 19 16
22 12 14 17 18 18 12 12 10 13 10 8 5 3 10 4 2 8 5 7 4 5 5 3 3 6 25 28 29 37 35 31 26 30 31 30 26 24 22 21 15 16 17 18
24 9 13 18 16 17 17 16 17 8 10 7 6 9 3 5 3 4 3 4 6 5 5 6 3 2 5 12 18 26 27 24 24 25 30 30 27 22 21 19 19 21 20 21
18 17 11 16 17 16 17 20 17 15 12 13 7 4 8 7 4 5 3 6 6 8 6 7 6 5 5 3 3 11 21 21 21 20 18 23 22 27 24 19 20 18 21 19
9 17 15 11 12 12 16 19 18 16 8 9 12 12 12 13 8 10 7 4 9 5 7 6 10 9 9 9 8 7 12 12 15 18 22 24 20 20 18 17 17 18 20 24
4 14 19 19 19 17 18 20 19 20 16 14 13 16 15 12 1 4 3 4 8 14 6 5 4 10 12 15 21 19 18 17 17 19 20 19 19 19 18 16 18 19 19 19
8 13 14 20 20 22 16 20 21 21 20 19 15 17 14 13 12 9 7 3 4 3 8 6 2 12 12 22 19 15 15 13 14 21 22 20 20 19 19 20 20 21 19 17
12 8 13 16 19 17 18 16 13 13 14 13 13 10 11 9 10 7 2 3 4 6 4 2 2 11 18 21 21 18 20 18 20 22 22 22 22 23 22 23 22 21 22 21
8 11 10 9 3 23 10 12 15 13 12 13 14 11 10 11 10 2 6 1 7 7 6 5 6 12 22 24 22 23 21 19 20 20 21 21 22 22 22 23 23 23 21 16
9 4 3 7 14 12 19 10 9 9 14 12 14 13 12 13 5 3 5 3 5 8 7 6 10 14 24 24 24 23 21 20 20 20 21 20 21 21 21 21 21 17 13 10
13 12 4 6 11 16 9 12 4 7 12 13 12 9 11 6 4 1 9 6 9 9 11 12 14 16 18 23 26 25 24 22 21 20 21 21 21 20 20 17 13 12 11 10
6 6 13 7 5 5 8 12 7 14 5 12 12 11 7 5 3 12 10 10 10 12 15 17 18 17 18 20 21 21 21 19 20 22 21 20 19 17 15 15 14 11 10 10
6 10 6 6 6 15 5 4 19 8 2 7 6 5 4 11 11 12 11 12 12 13 17 19 17 17 19 20 20 21 20 22 23 22 20 17 16 15 13 13 11 9 9 7
5 9 4 5 3 2 6 5 5 5 2 4 6 5 1 12 10 11 11 12 12 13 16 18 17 19 19 20 20 20 22 22 21 19 18 17 15 13 12 12 9 8 7 6
16 15 2 6 7 11 5 3 3 5 5 4 4 4 3 10 11 11 11 11 11 14 14 17 19 16 17 18 18 21 21 20 18 18 17 16 15 13 11 10 7 8 6 6
6 12 14 13 15 7 15 11 6 5 6 5 5 3 7 9 11 12 12 13 12 14 16 18 16 16 15 17 19 18 17 17 17 16 14 12 12 11 9 10 11 5 6 4
10 9 5 2 5 4 3 5 5 4 6 5 3 4 4 5 8 10 9 10 13 14 16 16 17 18 18 17 15 14 13 15 16 15 14 12 10 7 7 9 7 4 1 1

GFSCGP_925_spd_075.txt.gz
Wind_Speed
8 5 12 12 14 17 17 14 8 5 1 4 9 6 10 10 5 8 9 15 16 16 19 25 24 22 25 30 25 27 29 35 33 34 33 31 26 30 34 33 32 29 26 28
9 18 13 16 18 18 20 6 7 7 7 6 5 6 7 10 11 10 16 16 18 17 17 23 25 27 25 25 28 30 31 35 34 33 32 25 31 32 33 28 30 32 31 28
16 9 18 19 20 18 6 5 7 7 6 4 3 5 4 5 7 14 15 16 21 22 21 19 25 30 28 27 30 31 34 36 37 35 30 26 24 27 30 27 28 31 30 30
12 19 20 20 19 8 5 9 9 6 5 2 3 4 4 6 8 11 14 16 19 20 19 21 23 28 31 33 35 37 35 35 38 37 32 29 25 24 28 36 34 33 33 31
15 10 19 20 13 7 8 7 1 3 6 5 2 2 7 8 11 10 18 17 18 20 22 23 24 33 37 37 37 37 38 37 35 37 35 33 31 33 31 34 36 39 36 32
13 13 11 14 10 8 5 4 6 2 1 4 8 4 6 6 13 13 17 20 21 19 22 22 32 34 38 38 37 35 36 36 39 41 42 37 37 36 33 31 37 39 36 36
20 19 13 15 10 7 6 3 2 4 1 6 3 5 10 9 7 5 18 21 20 20 22 21 23 28 35 39 38 36 37 36 43 43 39 40 45 39 39 37 35 35 36 38
14 11 20 9 15 8 7 8 5 6 2 3 8 3 6 8 4 8 9 18 19 20 20 22 25 33 37 41 41 39 38 35 36 38 43 42 43 46 39 39 37 40 40 39
12 13 4 18 5 9 4 6 10 5 2 3 5 7 5 6 6 7 4 4 15 20 19 21 21 34 38 39 44 44 39 39 36 35 39 47 44 41 43 40 31 36 36 32
5 4 16 11 6 9 10 4 4 2 7 5 5 2 3 6 2 6 6 8 7 8 12 16 17 29 36 41 43 43 43 41 44 41 35 41 45 44 37 37 37 32 35 32
22 10 10 11 14 13 5 9 3 2 5 6 2 5 5 6 7 8 7 9 9 8 6 4 8 27 38 39 39 39 38 36 32 36 38 36 40 43 42 35 29 24 27 28
11 4 10 20 15 21 17 9 9 5 5 4 5 5 6 7 3 7 8 8 9 9 9 7 2 8 24 27 29 33 32 34 35 32 34 39 40 37 30 18 22 23 26 22
6 4 9 12 12 13 17 7 8 6 4 6 5 4 7 6 3 6 7 6 4 8 8 7 7 3 13 19 25 27 32 37 33 26 35 32 31 26 28 30 26 26 22 19
9 5 15 14 11 3 7 9 9 7 5 4 6 4 7 9 5 8 7 7 5 2 6 8 7 7 9 22 22 21 20 25 25 24 25 23 22 25 23 23 23 20 19 19
7 16 19 18 18 11 9 10 12 11 11 7 6 8 9 8 6 7 7 8 9 7 6 4 8 7 11 18 25 23 21 20 19 20 21 21 23 24 23 20 19 18 19 20
5 5 4 15 13 14 14 11 15 13 10 7 7 11 12 9 5 7 9 9 10 8 6 2 5 13 10 17 20 25 23 19 20 22 22 22 22 21 20 18 18 19 20 19
8 5 4 13 12 7 10 11 8 9 13 9 10 9 7 6 5 4 6 8 8 9 7 8 13 9 12 16 21 20 23 21 21 23 22 21 21 21 21 21 22 22 22 22
4 6 4 4 2 14 4 4 5 9 11 6 1 2 3 6 4 7 7 8 10 9 7 10 10 13 17 21 23 24 23 23 24 23 23 23 24 25 25 25 26 25 25 24
3 3 2 5 10 4 11 5 4 5 8 6 4 4 4 5 5 2 6 6 7 8 7 9 18 21 22 23 23 23 22 23 21 21 22 25 26 27 27 27 27 26 25 19
7 3 4 2 4 9 3 9 6 3 6 4 2 5 4 3 4 4 5 7 9 9 15 18 23 24 25 23 23 22 21 20 20 21 22 23 25 27 26 27 26 23 18 14
3 3 4 1 2 6 5 13 2 6 7 6 2 4 6 3 6 6 8 6 8 9 16 22 23 20 22 26 25 21 21 18 20 21 22 23 25 25 25 24 21 19 15 23
5 6 6 4 4 4 10 3 8 5 6 5 0 2 2 7 7 9 8 9 10 11 15 22 20 20 24 24 22 19 19 21 21 23 22 21 23 19 20 18 18 23 21 18
6 5 4 4 4 8 6 4 1 3 3 4 3 5 8 8 6 9 8 9 7 8 14 21 21 22 21 22 26 20 21 24 21 19 19 15 20 22 21 20 17 17 16 14
3 4 4 3 5 12 6 5 5 8 1 4 6 4 6 6 8 7 8 7 7 8 10 18 20 17 18 20 22 26 26 24 22 21 20 20 21 19 17 15 14 16 15 14
5 9 7 4 7 14 8 4 6 6 9 5 6 2 5 7 6 6 6 7 7 10 19 23 20 19 20 26 25 25 25 25 26 23 21 19 18 17 18 16 12 10 9 5
5 7 6 6 11 7 3 3 5 9 3 8 3 2 3 6 8 6 8 7 12 15 21 23 27 28 24 29 26 22 23 28 28 26 22 19 18 12 12 11 10 8 5 3

GFSCGP_925_spd_078.txt.gz
Wind_Speed
4 3 12 11 9 7 5 11 14 16 13 6 7 6 9 10 6 11 8 9 10 11 7 13 18 17 16 20 23 25 28 34 36 33 33 32 31 31 32 32 26 18 19 18
6 17 11 8 7 9 9 13 19 18 5 5 5 5 5 16 12 18 17 14 12 8 10 12 16 17 18 20 24 27 29 32 33 35 33 29 32 30 26 29 34 25 19 20
13 7 17 11 12 13 15 13 18 8 5 1 1 5 3 7 5 8 13 15 12 15 14 14 16 17 18 20 24 30 30 32 32 32 31 30 33 31 31 33 34 31 26 29
9 15 13 11 16 12 11 15 10 5 3 2 1 5 5 5 8 15 14 15 16 16 14 12 17 21 25 25 27 27 29 32 35 34 29 28 27 26 29 31 36 38 36 37
11 11 14 19 17 10 13 18 6 4 3 2 3 1 7 4 6 10 16 19 19 20 19 18 19 28 32 31 33 33 33 32 34 37 33 33 29 29 30 33 36 36 35 36
15 7 7 14 14 16 17 5 4 4 2 2 5 6 6 4 10 18 18 21 22 21 21 19 26 27 28 30 33 35 34 36 37 37 38 35 34 32 31 35 37 39 39 40
10 19 9 5 10 7 7 5 2 3 3 6 3 3 11 7 7 16 23 23 23 22 21 20 20 24 29 33 35 35 35 37 39 36 37 39 40 40 35 38 38 33 36 38
11 6 16 13 15 9 8 9 6 5 4 4 4 5 5 10 9 9 14 24 22 21 20 22 24 30 33 38 40 39 39 38 39 44 40 42 43 40 42 38 42 40 39 42
8 12 6 14 13 14 7 5 9 6 1 1 4 6 7 2 4 3 8 14 20 20 21 23 22 31 33 37 42 44 41 42 42 41 40 41 45 41 40 41 43 46 44 43
5 3 14 5 13 9 10 7 4 1 7 4 5 4 5 4 5 4 7 12 16 20 18 17 17 27 33 37 41 39 39 41 41 39 40 41 42 47 42 43 49 41 41 39
17 2 6 8 11 10 2 4 3 6 6 6 2 5 7 9 7 8 9 9 13 15 17 18 18 30 36 38 38 40 40 37 37 36 36 38 40 46 43 38 35 36 23 26
15 10 12 15 6 2 11 13 10 5 5 3 4 8 5 9 7 7 8 10 9 10 14 16 18 25 31 35 35 37 37 36 36 40 41 42 40 39 36 29 29 35 21 26
7 10 4 16 11 6 5 7 11 7 5 9 6 5 4 6 2 5 8 8 8 8 7 7 6 12 23 28 30 30 32 37 35 32 33 31 31 33 36 34 33 29 25 31
16 7 21 16 6 3 2 11 17 14 7 6 6 6 6 7 6 8 8 7 9 9 9 8 7 7 14 22 28 29 34 36 36 35 30 20 22 26 32 31 34 32 30 32
4 6 4 12 7 5 10 16 16 16 9 12 9 10 10 8 8 9 10 7 7 9 9 8 6 4 4 12 17 24 28 31 34 33 27 19 22 20 22 23 25 27 28 28
11 4 5 4 9 10 16 21 14 11 8 8 7 7 10 10 6 5 9 12 9 8 9 9 9 11 7 13 17 17 17 20 23 24 21 19 18 20 24 24 23 23 24 26
7 5 5 5 10 13 9 16 19 6 6 9 9 9 7 7 7 9 10 9 10 9 9 9 12 14 14 15 19 19 21 21 21 22 20 21 23 23 22 23 24 24 25 24
8 12 2 3 6 8 8 12 19 11 11 8 5 6 8 9 8 8 8 10 10 7 8 6 7 11 16 17 17 21 22 20 20 21 21 23 25 25 24 23 23 24 24 24
11 9 4 5 7 3 8 12 5 7 9 7 9 7 6 4 3 3 2 4 10 9 7 6 13 18 23 22 23 23 21 21 20 19 21 22 23 24 24 23 23 23 24 22
5 10 5 2 7 8 4 15 16 1 6 5 8 8 5 5 4 4 5 5 7 8 14 16 19 22 24 23 24 23 19 18 17 19 19 21 20 21 22 23 24 23 23 22
4 4 3 1 1 6 8 7 7 8 7 5 3 5 5 5 6 5 8 5 6 10 14 19 19 18 20 22 21 18 16 14 16 18 17 17 17 20 22 23 24 23 18 17
5 4 2 3 1 6 4 8 6 6 4 4 1 2 6 5 5 7 8 9 10 12 14 17 17 17 21 21 21 18 15 18 19 18 17 16 16 18 21 22 18 15 19 23
5 7 3 5 6 5 4 2 6 5 2 4 5 2 1 6 6 8 8 9 8 10 14 18 21 21 21 21 23 23 21 20 17 16 15 15 14 15 14 15 16 21 22 22
3 2 4 4 8 11 6 4 3 3 4 3 3 3 5 3 5 5 7 7 6 9 13 20 22 18 16 20 22 27 25 22 20 20 18 19 21 22 20 20 18 17 14 15
5 6 4 3 6 5 7 7 7 7 4 2 2 3 6 7 7 6 6 7 8 12 16 19 20 20 19 22 21 22 25 27 29 27 25 25 25 23 23 22 18 16 12 7
5 6 4 5 9 6 6 8 6 7 5 2 2 3 4 5 7 7 9 9 13 17 22 24 24 27 23 28 29 26 26 31 31 28 25 24 22 20 19 17 16 13 11 8

GFSCGP_925_spd_081.txt.gz
Wind_Speed
5 4 12 14 8 3 3 2 4 14 13 3 11 16 9 8 6 8 9 7 7 5 6 9 11 12 14 16 19 22 23 26 25 29 24 27 33 30 28 28 27 26 25 21
3 16 6 7 7 6 5 5 12 11 9 4 9 11 7 9 10 12 11 11 11 4 4 8 11 15 15 16 20 21 24 29 34 35 24 21 26 32 28 25 23 20 17 15
11 6 12 12 7 7 8 7 10 7 11 5 4 7 5 6 3 6 7 7 8 12 13 14 16 17 18 18 22 22 23 29 30 30 23 25 24 26 26 24 24 20 20 25
8 13 4 5 12 10 11 10 10 10 6 4 1 5 6 6 11 8 12 10 11 11 10 11 18 20 22 22 23 27 27 29 28 32 30 32 29 26 27 30 30 25 23 24
9 8 17 13 14 10 10 7 9 9 11 2 2 2 6 2 6 11 14 15 14 15 14 14 14 20 21 21 22 29 30 31 32 35 35 34 29 28 26 29 32 35 32 30
10 4 9 14 15 12 8 2 1 2 2 3 4 5 6 5 8 7 11 14 14 15 15 12 15 16 19 23 24 26 29 32 35 37 37 37 34 31 30 31 34 37 35 35
3 12 4 2 6 6 5 3 2 3 1 7 5 4 10 7 7 9 15 16 15 13 13 13 13 15 20 25 28 30 32 32 36 39 38 38 38 36 33 34 36 36 38 40
12 8 14 7 11 5 7 9 5 6 4 5 0 5 6 7 8 9 14 15 11 12 13 15 16 20 23 26 29 32 32 33 35 38 38 40 36 34 36 33 35 37 35 39
6 8 4 11 7 13 5 5 11 5 1 3 4 6 9 6 4 6 9 8 13 14 15 18 16 23 24 27 33 35 33 34 33 34 35 36 39 36 33 34 34 39 39 39
4 3 7 6 8 15 11 6 2 2 7 5 4 4 5 7 6 5 6 12 13 13 14 13 13 22 27 30 31 33 34 34 33 30 33 34 36 39 39 36 38 41 35 32
6 6 5 2 6 10 4 6 3 5 5 6 2 6 8 10 9 7 9 11 14 15 16 16 15 24 28 26 28 31 34 34 30 31 33 34 37 38 39 39 37 40 37 35
4 5 12 24 9 3 10 12 10 5 4 3 4 9 4 8 7 8 10 10 12 15 17 17 16 22 24 30 29 35 36 36 35 36 46 40 34 34 35 38 41 40 36 31
10 4 4 7 9 17 5 4 4 2 4 9 7 6 3 5 4 6 7 8 8 11 10 12 11 13 21 27 30 34 34 38 40 38 36 33 37 37 41 43 42 39 37 40
6 5 12 14 6 5 5 6 1 7 6 5 12 5 7 7 7 8 7 7 9 9 11 12 11 13 19 26 28 31 34 39 40 38 35 36 39 42 40 42 41 38 37 37
6 7 14 18 17 5 5 5 3 2 9 10 8 13 14 12 9 9 7 4 7 9 9 10 11 11 10 17 25 29 33 33 35 32 33 33 34 35 34 31 32 32 33 32
3 5 15 6 13 17 15 9 9 4 9 12 8 14 7 11 7 6 9 8 9 9 10 13 11 9 8 16 21 23 23 21 23 26 25 25 23 21 19 19 21 23 23 22
0 5 6 5 5 5 3 16 13 8 8 9 10 10 7 8 9 10 10 8 11 10 10 10 14 13 9 12 14 12 13 16 16 18 19 18 17 17 17 17 19 20 19 19
8 3 3 4 1 4 8 9 15 18 18 17 12 7 9 9 11 10 8 9 11 9 10 7 7 7 13 14 13 13 11 11 13 14 14 13 15 17 19 20 20 20 21 21
10 5 4 3 3 4 4 5 9 12 16 23 12 8 6 5 3 4 6 8 11 11 10 6 13 14 16 17 19 18 16 14 13 11 12 13 15 18 19 19 19 19 19 19
13 9 4 1 3 8 6 10 6 3 11 9 6 8 11 6 3 5 5 5 6 7 7 13 19 20 19 18 21 19 17 16 13 12 11 11 12 14 15 15 16 17 18 20
3 3 6 7 6 6 6 7 1 6 7 7 3 9 5 4 6 3 6 5 4 6 13 19 17 16 17 21 21 18 16 13 11 10 10 10 10 11 13 15 16 19 21 22
5 5 2 2 4 5 1 4 1 1 9 3 3 7 7 8 6 5 4 7 9 12 13 16 17 16 18 21 22 18 16 16 14 13 12 11 10 12 15 18 18 18 19 19
6 5 4 5 3 23 7 4 5 4 3 7 4 3 8 5 3 5 5 8 7 10 14 15 19 19 18 17 20 21 19 19 18 18 17 16 15 16 16 17 16 15 15 18
4 5 4 4 9 20 21 5 3 4 5 9 8 4 1 0 8 8 9 9 9 8 11 18 20 18 16 17 17 24 24 23 23 22 20 19 21 20 17 16 16 17 14 15
5 4 6 4 5 9 10 7 8 8 8 9 9 4 4 4 4 7 9 9 9 12 17 19 21 22 20 22 23 22 24 25 27 26 24 23 23 25 26 25 22 21 16 10
4 4 3 5 6 4 7 7 4 6 7 8 5 3 7 5 6 13 11 10 13 15 19 21 24 26 23 28 26 23 21 26 29 25 21 21 23 22 22 23 21 18 14 13

GFSCGP_925_spd_084.txt.gz
Wind_Speed
6 4 11 13 6 6 4 3 3 8 5 4 9 7 15 6 5 8 7 7 7 7 7 8 9 13 13 13 16 18 21 25 31 27 26 28 24 26 33 32 32 31 34 34
2 11 10 9 9 7 4 4 8 10 6 6 11 14 12 4 5 8 8 8 8 7 9 9 11 13 16 15 16 18 23 27 27 28 29 22 26 27 30 30 30 30 31 30
14 4 12 11 6 8 6 10 5 8 7 5 4 7 6 2 3 5 7 6 6 11 13 12 11 13 14 17 17 18 21 28 26 31 25 15 22 25 24 25 30 26 27 27
8 14 3 6 11 10 9 9 9 6 3 4 4 6 5 6 7 6 8 9 9 9 8 8 13 14 13 14 19 19 20 25 29 35 30 23 24 22 22 31 33 28 25 25
7 4 9 8 6 10 9 7 8 5 5 2 3 2 7 2 7 9 10 14 13 11 12 12 12 16 18 20 22 24 22 24 27 35 30 29 22 26 30 29 28 29 26 24
6 3 7 9 9 11 3 3 5 2 2 3 7 6 6 3 6 5 4 9 13 14 12 10 15 16 16 18 20 24 27 28 29 34 35 34 33 29 30 30 30 30 29 29
2 8 3 3 4 7 6 5 2 2 1 5 5 3 10 5 7 7 9 9 12 14 15 14 14 16 17 22 23 24 31 32 34 35 37 38 35 36 35 37 35 33 34 33
10 8 10 6 8 7 9 10 5 6 4 4 4 6 6 8 7 9 8 6 7 12 14 16 17 22 25 27 27 25 29 29 32 35 36 36 37 37 37 34 34 36 39 41
3 5 5 7 11 12 5 8 8 4 1 2 4 6 8 7 8 5 6 7 9 13 15 17 16 23 27 30 33 32 30 31 31 35 35 36 39 38 36 37 37 38 39 36
4 5 4 5 4 6 9 6 3 1 5 5 4 4 5 6 8 6 4 9 8 7 10 12 14 21 25 28 29 34 35 36 35 37 37 37 38 40 39 36 38 40 40 38
6 3 7 9 3 8 3 9 3 5 5 6 2 5 8 10 9 9 8 9 8 8 11 13 14 21 23 23 30 33 36 33 34 35 35 35 37 39 40 40 40 41 42 43
3 3 4 11 16 12 4 7 12 10 4 3 4 10 4 9 7 6 9 9 6 6 8 8 7 13 20 25 28 32 31 34 38 38 39 44 45 41 41 43 46 43 44 41
5 2 5 7 5 3 5 5 5 2 2 8 7 5 3 6 5 7 9 8 8 7 6 6 8 10 16 21 24 28 30 35 35 36 40 38 32 34 39 36 35 38 41 41
3 4 6 5 9 15 12 8 14 8 5 7 14 4 4 6 7 6 7 8 8 8 8 6 6 9 14 20 24 25 29 32 33 35 36 32 34 38 36 37 38 37 37 38
3 4 3 11 14 20 26 22 10 15 12 10 5 10 9 10 10 10 9 5 7 8 8 9 10 10 10 18 22 27 29 30 34 34 33 36 32 30 33 34 34 35 33 31
2 3 3 7 13 18 20 21 14 14 5 6 5 6 7 9 6 4 9 9 9 9 11 11 12 9 10 18 22 20 19 22 27 29 27 25 25 27 27 28 26 25 24 25
2 3 2 9 10 20 10 24 21 8 6 6 7 7 6 8 9 10 14 9 11 10 10 13 14 14 9 12 16 14 13 13 16 21 18 16 20 18 18 14 14 15 19 21
7 3 2 5 7 8 8 5 14 14 12 9 5 5 7 8 10 12 12 10 11 11 9 10 7 6 13 15 15 15 13 13 13 14 14 14 13 13 13 13 14 16 16 16
16 7 3 3 4 8 15 6 5 7 18 14 13 7 8 12 5 10 10 11 14 12 11 6 14 16 17 18 18 17 15 15 15 14 13 13 13 14 14 14 13 13 14 14
13 11 7 3 3 5 6 9 15 0 10 6 4 11 13 4 4 7 7 6 7 4 5 8 17 20 18 18 19 22 19 18 17 15 12 9 9 10 11 12 13 14 15 16
5 6 14 8 5 6 4 9 19 6 5 6 4 8 6 5 7 6 6 4 4 5 12 19 19 18 19 21 23 20 20 17 17 15 14 12 9 9 10 13 14 15 18 22
6 5 4 4 5 7 3 11 6 5 7 7 5 7 11 7 8 5 3 4 11 13 13 19 19 20 20 23 26 22 20 19 19 19 18 17 15 14 14 15 15 18 22 23
5 6 3 6 4 4 3 6 18 11 10 8 6 9 11 11 8 2 4 8 8 12 14 20 22 21 19 22 26 24 22 23 22 21 20 19 19 19 18 20 20 19 18 19
4 3 4 1 6 12 10 8 12 12 14 6 4 4 7 7 2 6 8 5 9 10 12 17 23 21 21 24 25 27 25 24 24 25 23 23 24 23 21 20 18 16 13 14
7 3 5 6 12 16 14 7 8 8 11 7 4 4 5 4 6 5 10 9 11 14 20 20 22 24 21 26 23 22 21 24 28 28 25 24 26 27 29 29 26 27 23 16
5 7 4 6 9 3 9 8 12 8 7 4 1 3 3 12 10 11 11 12 13 15 17 27 25 26 24 30 27 22 19 25 30 27 25 23 25 26 25 25 25 22 18 15

GFSCGP_925_spd_087.txt.gz
Wind_Speed
6 8 13 23 15 5 6 5 6 5 5 4 9 10 16 9 9 8 10 11 10 10 7 9 8 8 8 10 15 20 24 25 25 28 24 25 26 26 27 30 30 30 33 33
4 13 15 8 9 13 7 8 12 12 2 7 8 16 16 5 7 6 12 12 12 10 10 10 11 10 11 13 13 17 23 30 25 23 22 24 21 22 29 35 36 26 23 25
13 5 14 13 10 12 16 17 13 13 9 3 6 6 5 2 4 6 8 12 12 15 14 12 13 14 14 13 16 16 20 27 29 28 25 25 19 18 27 27 30 29 27 26
10 11 8 10 14 15 14 11 13 11 5 6 5 8 8 13 10 8 9 13 13 15 13 13 15 17 16 15 15 16 18 24 29 32 30 33 26 24 26 33 34 31 37 37
6 6 16 10 8 13 12 7 13 11 8 5 6 6 2 2 12 12 10 12 14 16 17 16 16 20 19 18 18 17 18 24 25 31 31 30 24 23 24 31 36 38 35 35
4 2 6 9 12 14 3 4 2 2 2 7 10 7 6 4 5 4 2 8 14 16 16 16 18 19 20 19 19 19 18 21 26 31 25 29 27 23 28 31 34 40 33 29
4 8 3 4 4 5 9 6 4 4 4 8 6 7 14 7 9 9 11 6 11 15 16 16 17 18 22 24 23 21 21 22 23 27 27 29 27 24 22 27 28 26 32 30
9 7 12 8 13 6 14 13 4 6 6 7 4 7 6 8 8 8 8 6 9 15 16 17 19 21 23 25 25 25 27 24 24 26 29 28 31 26 22 25 27 28 28 30
3 4 2 6 10 15 6 8 14 2 1 1 4 5 7 8 9 4 5 6 11 13 17 19 17 23 24 26 27 27 26 27 28 28 28 30 33 29 28 29 28 28 31 31
5 4 3 3 3 5 7 8 5 6 7 11 5 5 7 3 5 6 6 6 8 11 13 15 17 23 25 25 25 26 27 29 31 30 30 30 31 35 33 31 35 36 37 37
6 1 6 5 1 6 5 10 2 3 4 8 5 6 8 13 11 6 7 4 7 11 14 15 15 20 22 22 25 28 29 29 30 31 31 31 32 33 35 36 36 36 35 36
6 1 2 4 10 8 5 3 11 10 8 3 5 12 2 11 6 5 7 5 4 8 12 14 15 19 22 25 27 29 28 30 29 29 29 32 32 33 35 38 37 33 34 34
6 1 3 5 0 3 3 6 7 4 5 18 12 6 5 5 5 8 8 9 6 6 8 11 13 16 21 25 27 30 31 34 31 30 30 30 30 29 32 34 32 30 35 32
1 3 7 6 5 3 7 14 17 10 10 12 17 16 7 6 9 7 8 9 7 5 7 10 12 14 20 24 27 29 30 30 31 31 32 33 34 35 35 32 34 36 31 29
5 5 6 11 10 14 13 14 17 20 18 14 10 16 15 16 10 13 10 4 5 7 6 11 12 14 16 21 24 25 26 28 30 31 32 33 30 27 26 27 29 27 29 30
4 1 2 6 13 15 18 20 20 22 20 21 18 19 7 12 9 9 9 7 9 8 9 10 11 9 13 21 23 24 24 25 26 28 29 26 24 22 24 25 25 27 29 28
4 2 1 4 1 8 12 12 12 19 19 17 17 11 8 9 8 8 10 8 10 12 12 11 11 13 13 19 19 19 19 20 22 21 18 19 23 24 23 22 22 24 25 27
5 4 2 5 6 9 8 5 11 14 22 18 15 7 9 8 7 8 10 11 13 13 15 14 11 6 10 12 15 16 14 15 15 14 15 16 15 14 13 14 15 13 12 9
16 8 4 4 7 15 17 4 1 4 18 13 18 18 13 12 6 17 12 11 14 16 13 9 7 11 15 17 21 21 18 19 17 15 14 13 13 14 12 10 7 7 8 9
13 13 8 5 7 6 4 4 1 1 10 19 21 14 10 10 9 14 5 3 7 5 1 5 11 18 18 20 23 25 21 22 19 18 16 13 12 12 12 12 13 13 14 17
5 6 15 11 9 10 5 6 3 3 5 23 20 21 14 7 8 4 6 6 6 9 8 13 17 17 19 23 26 25 24 21 23 23 21 18 15 16 15 16 15 17 20 23
8 7 5 7 6 9 4 3 2 2 8 17 21 18 12 12 8 4 5 7 12 13 10 15 18 22 16 22 27 25 24 24 27 27 25 22 18 17 16 18 18 21 24 26
6 7 4 7 3 5 5 3 7 7 4 15 16 18 9 14 9 6 7 12 13 13 11 15 18 23 21 22 29 27 22 25 30 29 25 26 24 21 20 23 22 22 21 20
4 3 4 1 3 6 7 10 10 8 11 16 16 12 3 7 9 9 11 12 11 13 14 15 19 21 21 21 23 25 23 25 28 29 25 26 29 28 26 26 25 24 21 20
7 3 5 6 10 7 6 2 6 14 16 14 13 9 8 6 9 8 10 12 12 13 18 18 25 22 23 25 27 20 21 29 29 29 28 28 28 30 33 33 29 31 25 21
4 6 4 8 9 6 13 3 6 12 11 11 11 4 6 10 8 10 11 12 13 13 17 21 22 23 24 26 24 21 23 27 29 29 26 25 23 22 24 27 30 29 26 23

GFSCGP_925_spd_090.txt.gz
Wind_Speed
18 14 19 22 22 19 12 13 14 10 0 5 14 19 16 15 6 9 10 11 11 10 7 9 8 8 8 10 11 13 14 15 21 21 23 25 26 29 28 33 30 35 38 36
10 21 20 17 17 17 18 17 18 13 7 7 13 17 17 15 11 6 8 11 12 11 11 10 10 10 10 10 12 12 14 17 17 22 22 18 26 27 26 27 29 24 32 28
19 4 20 16 16 17 18 20 17 15 7 14 15 19 20 13 8 8 9 10 12 14 14 13 12 13 13 14 13 13 15 17 18 19 26 24 19 22 22 28 27 26 31 24
15 17 9 20 22 16 20 18 16 18 12 10 3 9 12 8 15 14 13 12 13 15 14 14 14 16 17 16 15 16 16 18 19 26 25 27 25 26 25 34 29 29 24 25
9 11 19 16 17 16 16 13 11 15 16 14 15 9 9 2 10 12 6 14 14 16 16 17 15 18 18 18 18 17 17 18 20 23 24 28 21 22 22 26 29 30 29 26
10 2 8 17 12 14 2 11 5 7 9 12 16 13 8 8 7 6 2 4 13 17 17 15 17 17 19 18 19 19 19 19 21 26 25 29 27 20 22 23 30 29 33 32
19 17 9 6 8 13 16 9 5 7 7 8 7 11 15 5 5 10 11 6 11 16 18 17 17 17 20 22 21 20 21 21 21 24 27 29 29 29 24 29 29 27 27 28
11 9 22 16 21 9 18 17 7 9 8 7 12 8 10 7 7 6 5 6 8 15 17 19 19 19 21 23 23 22 23 23 24 25 26 27 27 30 27 30 30 32 32 32
3 5 2 9 16 18 11 16 18 13 11 7 9 9 10 12 12 10 8 5 10 15 18 20 20 23 23 24 25 26 26 25 26 28 28 28 29 29 27 26 29 29 31 31
3 3 1 2 6 16 18 4 8 10 7 11 9 12 7 5 10 2 8 7 9 14 16 17 18 23 26 26 26 26 27 28 27 27 29 29 30 32 28 28 29 29 29 29
5 3 1 4 6 7 9 12 10 7 12 10 10 8 6 14 14 11 4 2 6 12 13 14 16 21 25 25 27 27 27 27 28 28 28 28 30 32 32 31 31 30 29 30
6 1 4 5 8 8 7 9 16 12 13 10 12 13 2 4 10 5 3 1 2 9 11 12 14 18 22 25 26 28 28 28 28 28 28 29 28 28 30 32 30 29 31 30
7 3 2 3 4 3 3 2 3 6 10 18 14 5 3 10 13 16 14 10 2 6 11 12 13 15 18 23 26 28 29 30 28 28 28 28 29 29 29 29 29 30 29 29
3 3 6 6 7 5 7 7 10 7 6 12 16 17 16 18 14 14 18 11 7 7 11 12 13 14 18 23 26 27 28 28 29 29 29 29 30 29 28 28 28 28 28 27
5 8 9 9 12 15 16 16 17 17 14 15 16 19 16 12 16 20 19 19 12 5 10 13 14 14 16 21 24 25 25 27 28 29 29 29 26 25 25 25 24 24 25 26
3 2 3 8 13 15 20 22 21 20 20 22 19 24 20 20 19 18 18 18 15 11 9 8 12 14 16 21 24 24 24 25 26 27 27 24 24 24 24 23 23 23 23 22
2 3 3 4 2 7 13 19 25 23 19 18 19 19 17 19 20 22 18 18 15 14 12 11 11 14 16 22 22 22 22 22 24 23 22 22 21 20 20 20 20 19 18 17
6 6 4 4 5 8 9 6 12 17 13 10 13 14 16 19 19 19 13 12 12 11 12 13 13 10 14 16 19 20 21 22 22 21 20 18 17 16 13 11 11 12 12 10
16 11 4 4 8 14 18 9 10 13 14 5 7 10 14 14 21 23 21 17 17 18 16 14 17 14 10 14 18 21 20 22 20 18 17 16 16 16 16 14 12 10 11 11
16 15 8 5 4 4 5 10 12 10 13 9 10 12 11 15 9 10 16 15 10 10 7 7 8 7 12 15 19 19 17 17 16 17 19 18 18 20 19 18 17 16 17 19
9 6 12 10 8 9 11 16 12 7 5 15 12 14 14 12 11 19 19 12 5 6 4 6 8 10 14 18 21 20 21 23 21 25 26 25 24 25 23 23 21 22 25 27
9 9 6 9 8 11 1 3 5 8 12 16 15 10 11 20 19 15 10 8 4 2 2 12 12 16 17 20 25 25 22 23 27 29 30 28 25 25 26 27 26 26 28 30
6 8 5 8 6 3 4 10 14 15 15 13 18 15 8 18 16 9 7 5 2 3 6 16 18 22 20 21 27 30 25 29 28 29 28 29 29 27 28 27 27 26 24 23
11 10 7 11 12 13 12 11 13 12 12 15 14 14 17 13 2 3 2 3 3 6 8 17 22 21 21 25 25 27 33 30 29 28 27 26 30 29 34 30 25 25 22 20
8 9 10 12 13 13 13 10 11 11 16 14 13 15 15 8 5 8 3 2 1 8 15 19 20 24 23 27 25 25 30 31 30 29 30 28 30 33 36 34 29 29 24 19
10 12 9 10 11 11 16 15 8 13 13 13 13 14 7 5 5 10 8 7 3 7 15 18 22 23 25 26 26 26 26 28 32 31 25 26 26 28 29 33 35 32 29 26

GFSCGP_925_spd_093.txt.gz
Wind_Speed
20 17 22 26 24 23 21 23 18 15 10 6 15 18 18 17 19 15 12 11 10 10 9 12 11 10 9 9 10 11 10 9 15 15 21 21 22 32 35 37 40 38 32 29
18 24 23 23 22 22 23 22 22 20 18 8 15 21 19 19 17 17 13 10 10 11 12 12 14 12 12 12 12 12 12 13 10 12 15 22 29 27 31 33 32 30 30 30
21 19 24 24 22 21 22 22 19 22 18 9 15 22 22 22 21 20 10 13 11 13 15 15 14 16 15 15 16 13 13 14 13 13 18 27 27 28 29 29 29 29 27 26
20 22 18 16 26 22 22 19 19 21 17 14 17 15 15 16 11 11 16 16 14 13 14 15 15 16 18 17 16 16 14 15 16 18 19 25 29 29 28 32 33 31 31 28
21 16 23 20 21 19 20 14 15 20 15 17 21 12 14 21 14 9 13 11 14 14 15 16 16 18 20 18 18 19 18 16 17 19 20 23 24 22 21 25 28 27 28 32
21 12 13 21 18 15 8 13 14 11 15 15 17 16 12 15 14 10 4 5 13 14 16 16 17 19 20 20 18 19 21 21 20 20 21 23 26 25 23 22 23 24 23 30
19 22 13 10 15 14 15 10 6 4 10 13 14 14 17 9 3 4 7 5 11 13 16 16 17 16 22 23 22 20 22 22 22 20 22 24 24 25 30 29 28 26 25 28
19 20 24 16 15 12 19 18 7 11 9 11 18 9 14 15 8 7 5 5 11 14 16 17 18 16 22 26 27 25 24 24 24 25 23 26 27 21 24 29 31 32 29 30
4 14 2 22 22 17 15 16 18 18 15 8 5 9 10 11 8 6 8 9 9 13 17 19 19 20 23 25 28 28 27 25 27 26 27 26 26 27 26 27 29 34 37 31
1 5 2 10 9 16 25 10 12 11 15 12 13 15 10 2 10 9 4 10 10 11 16 18 18 18 23 24 24 25 25 27 27 27 28 27 27 28 29 28 32 29 32 32
6 5 9 5 10 12 13 17 13 12 13 10 9 5 2 5 8 11 9 4 7 9 16 18 17 21 23 23 24 25 25 25 26 28 27 27 27 27 27 25 26 31 29 31
5 4 6 8 5 9 11 14 19 11 14 12 13 11 13 6 5 10 14 4 5 4 12 16 17 18 22 24 26 26 26 27 27 27 28 30 30 30 31 29 26 25 26 26
5 4 6 5 8 5 7 9 7 9 7 14 10 6 7 4 4 9 12 12 5 2 10 13 15 17 18 24 26 27 27 27 27 28 29 28 29 31 31 30 28 27 28 27
5 8 9 8 7 7 3 9 9 6 7 11 15 16 17 15 15 14 13 13 13 5 5 10 13 15 17 25 27 27 28 28 28 28 29 29 29 29 29 29 29 29 28 28
4 10 11 13 14 14 14 13 14 16 14 14 13 15 16 16 14 12 14 14 14 15 7 9 13 14 16 22 26 27 28 29 29 29 28 28 27 26 26 26 26 26 27 27
3 8 10 12 14 15 18 20 20 21 20 21 18 19 18 17 19 19 20 20 19 16 12 9 11 13 15 18 23 25 27 28 30 29 28 27 27 26 26 25 24 23 22 21
4 4 3 10 10 9 10 17 19 20 22 20 20 18 15 15 19 18 18 20 20 19 17 15 11 10 12 18 21 22 24 25 29 29 29 28 27 26 25 24 22 21 20 19
6 7 3 5 3 6 10 8 9 14 16 14 20 14 12 15 18 19 22 19 20 13 16 9 10 11 16 15 20 21 22 24 25 25 25 26 26 25 23 22 18 16 15 12
17 7 4 4 8 12 16 6 7 7 11 14 10 10 10 11 17 18 19 19 14 12 15 16 20 15 19 15 18 21 22 22 22 22 22 21 21 21 17 20 18 17 18 18
17 14 6 6 7 5 7 6 6 11 6 5 9 8 9 13 11 11 21 24 22 15 16 16 18 17 13 10 14 20 22 22 19 13 11 15 18 21 22 23 23 23 25 28
13 9 13 12 7 8 13 12 8 8 3 10 11 13 14 9 10 17 21 22 18 18 20 21 17 10 7 9 13 14 13 18 18 25 24 23 25 28 27 29 28 30 32 34
11 9 6 8 5 10 8 3 4 7 10 13 13 14 16 18 13 15 16 20 15 15 16 15 9 3 2 8 20 18 20 21 28 31 31 32 31 28 30 32 31 32 33 32
7 10 8 9 9 11 4 7 9 9 12 10 12 16 16 17 21 11 14 11 7 10 11 8 7 10 12 16 24 24 22 28 33 36 32 32 34 32 28 27 26 28 26 26
10 12 7 9 9 12 11 11 10 12 9 9 13 13 15 20 20 8 11 8 6 6 8 7 9 11 14 16 21 28 25 30 35 35 33 33 35 34 31 30 25 23 23 22
9 9 8 11 13 11 12 7 7 10 11 13 11 13 15 17 11 2 0 2 6 9 10 6 8 13 16 20 23 26 27 32 33 32 31 30 34 36 33 33 30 27 22 19
9 9 6 7 8 8 12 13 13 11 11 10 10 12 9 10 7 5 5 5 9 13 14 9 9 11 16 19 20 23 24 30 34 31 27 25 33 34 28 35 39 36 33 32

GFSCGP_925_spd_099.txt.gz
Wind_Speed
9 7 11 11 13 15 11 13 17 13 12 11 11 14 13 9 4 7 9 9 10 14 16 25 28 31 25 19 17 15 15 13 12 11 13 17 20 21 27 28 40 41 33 39
9 20 15 13 12 17 19 20 20 19 14 15 15 17 16 11 6 7 8 9 10 16 17 17 25 26 25 22 18 17 15 13 11 15 13 14 23 26 31 33 37 40 35 31
17 8 18 17 17 18 18 17 12 17 14 13 13 19 13 11 6 10 15 9 8 22 20 18 17 23 28 23 23 20 18 14 13 13 14 16 24 23 24 31 31 39 33 32
16 15 19 20 20 18 17 12 16 17 9 8 0 17 16 16 19 15 18 18 9 17 19 16 16 19 25 24 23 22 21 19 15 14 17 22 20 21 22 31 35 35 35 32
17 8 13 19 18 19 15 11 13 13 10 7 4 11 5 12 21 19 9 12 13 22 23 21 19 24 27 27 24 23 22 23 19 16 17 21 17 18 26 27 36 38 35 33
17 11 7 6 12 12 6 4 8 9 2 9 10 12 4 10 16 15 16 13 14 23 19 18 20 27 26 28 26 23 23 24 24 22 19 22 24 25 25 26 29 31 31 33
14 21 17 11 10 13 9 7 1 2 2 6 8 11 12 15 19 23 18 9 11 21 19 19 19 16 25 28 26 25 24 21 27 24 26 24 30 33 31 31 27 28 28 28
8 5 17 11 15 7 6 7 6 8 5 3 9 7 6 10 17 20 13 7 15 19 18 19 20 18 26 28 27 26 27 23 27 27 26 25 31 30 28 32 28 30 34 37
4 7 3 8 19 10 6 9 9 10 4 3 4 6 10 15 21 11 5 4 13 16 17 18 18 20 27 28 28 28 28 26 27 25 29 26 30 28 28 32 33 32 29 28
2 3 4 10 14 12 11 4 8 6 13 7 5 5 3 16 13 5 15 6 11 15 17 17 18 17 28 31 30 28 29 27 27 27 28 28 30 32 29 30 31 30 30 29
1 1 5 6 2 15 5 11 2 3 9 5 2 4 6 4 7 10 14 9 9 6 17 18 17 22 29 30 31 31 30 28 30 29 26 27 30 32 31 32 33 33 33 34
6 1 1 7 10 10 8 7 9 8 5 3 7 7 7 9 7 10 10 18 14 9 7 14 18 17 24 28 30 31 28 29 30 34 27 28 29 34 35 35 34 34 34 38
6 3 1 2 11 14 2 1 3 9 6 10 3 3 6 13 11 14 5 17 15 13 12 5 15 17 17 25 28 30 30 28 32 33 34 29 31 34 34 36 38 36 35 37
4 3 5 3 3 6 7 11 8 9 4 6 6 6 9 9 6 9 5 3 9 7 6 9 12 17 17 28 30 32 33 34 32 34 33 34 33 33 35 34 34 38 38 37
5 4 6 6 9 10 12 10 3 8 12 2 5 7 6 10 10 17 4 13 16 19 22 18 10 3 17 22 26 29 32 36 36 35 33 34 32 33 32 33 34 36 34 34
3 5 7 6 5 8 14 12 9 9 10 5 5 10 3 4 8 5 14 13 16 19 18 18 20 18 17 18 26 31 32 35 37 34 35 32 33 33 34 35 34 36 33 30
2 1 3 3 7 10 6 7 10 11 8 4 5 8 11 7 11 13 13 13 13 14 15 16 16 16 18 23 13 30 32 34 35 34 32 35 34 33 32 31 32 31 33 32
3 2 1 2 5 3 6 8 7 5 4 3 8 13 15 10 5 14 13 12 12 12 14 15 14 18 26 27 24 10 23 37 35 33 32 32 34 35 32 33 34 33 32 30
6 2 1 1 1 8 9 4 4 3 6 8 8 8 9 11 5 6 13 12 9 10 9 10 18 23 25 27 32 18 21 26 29 32 32 32 30 30 32 30 29 28 29 26
12 5 4 1 3 4 0 11 7 5 2 7 8 7 7 8 5 5 11 14 11 10 12 15 21 20 24 29 32 23 16 8 9 22 24 27 32 35 32 31 31 30 31 31
11 5 9 5 3 6 2 10 7 2 2 1 1 4 4 4 2 4 7 10 9 10 13 16 17 16 18 24 23 20 19 19 11 15 19 20 23 28 30 31 28 31 37 40
8 7 4 3 3 6 3 6 2 4 4 3 5 5 7 6 7 7 7 8 9 9 11 15 14 15 19 21 16 13 16 14 18 21 24 26 26 28 33 35 33 30 33 36
5 6 5 7 6 5 3 1 5 2 3 3 7 7 7 6 6 6 7 10 11 12 14 15 13 11 15 18 11 9 9 16 22 27 27 28 30 29 29 34 34 30 29 28
1 6 1 2 3 4 4 2 4 7 4 8 9 8 7 5 5 6 8 8 8 10 12 15 14 11 11 13 11 10 12 18 25 31 28 28 30 30 30 29 26 26 26 25
1 2 3 2 8 15 9 6 5 4 10 11 9 9 7 8 8 7 6 7 6 7 6 13 12 12 10 10 12 12 14 21 25 27 29 30 30 32 34 34 29 30 27 25
2 6 1 1 1 7 6 2 11 8 10 9 9 9 11 11 8 7 5 7 10 9 9 11 14 14 13 12 13 14 18 26 27 27 27 28 31 33 34 39 46 44 40 36

GFSCGP_925_spd_102.txt.gz
Wind_Speed
5 4 12 11 11 10 10 8 11 1 5 7 9 14 9 10 8 10 9 9 8 7 8 16 23 30 29 25 23 23 21 18 16 15 13 12 10 14 12 26 37 40 45 39
4 17 11 10 9 10 12 14 20 12 11 13 13 20 10 8 8 11 13 10 7 11 10 10 19 24 28 28 25 24 22 19 17 15 15 14 18 13 16 17 41 38 43 39
15 6 16 13 14 15 15 17 14 15 14 16 12 20 8 6 7 13 18 9 7 18 18 15 16 21 24 27 27 27 24 20 16 15 14 14 17 16 18 19 31 42 44 41
13 16 17 13 18 16 18 17 17 15 10 8 6 13 9 9 15 14 17 16 8 14 17 16 15 16 22 24 26 25 23 20 18 14 16 17 18 15 16 22 25 38 42 40
11 8 19 22 19 17 13 17 15 16 9 4 4 4 4 4 9 15 16 17 8 16 20 21 19 20 22 27 28 25 23 21 19 15 16 20 17 17 24 22 31 32 35 40
13 7 4 7 8 15 12 14 15 13 5 10 7 6 6 4 8 7 15 17 4 15 17 15 14 20 20 26 24 25 25 23 19 17 16 19 20 22 24 26 28 29 30 34
8 22 16 9 7 7 6 3 4 3 2 5 6 5 14 10 12 16 19 17 15 14 19 18 18 16 22 25 25 25 27 24 23 21 20 20 22 24 28 28 27 27 27 28
7 7 13 7 18 6 8 9 5 8 5 4 7 5 5 4 7 13 12 9 3 13 17 20 19 17 24 27 26 24 24 23 24 24 24 24 26 27 25 28 29 29 31 31
5 6 3 5 12 15 9 7 8 5 3 3 4 5 7 5 11 17 12 18 7 14 15 18 17 18 24 27 29 28 26 23 25 24 24 24 28 28 27 25 27 28 28 29
5 8 5 3 4 12 10 5 4 3 8 6 4 4 5 3 11 19 16 14 10 4 10 14 16 16 25 27 28 30 29 26 26 24 26 24 28 31 30 28 27 25 27 30
7 4 4 1 2 4 5 10 1 4 4 10 1 5 5 6 8 9 14 11 15 6 5 7 15 19 24 26 28 29 31 27 26 26 25 24 26 29 32 34 31 31 31 30
8 5 4 5 4 4 4 4 6 4 2 3 4 5 2 6 6 7 8 14 14 13 13 12 11 13 23 25 27 29 30 30 29 28 27 27 27 27 29 31 34 34 35 34
8 5 4 4 3 7 6 6 5 4 4 5 3 3 3 12 12 7 8 13 17 18 15 13 5 6 8 24 25 27 30 32 32 31 28 28 29 30 29 32 32 33 32 38
6 5 3 2 2 1 2 6 8 4 3 1 12 6 4 4 9 6 10 10 5 12 13 14 8 8 4 10 16 30 31 33 35 35 33 29 30 31 31 33 33 33 33 33
5 3 5 6 2 3 3 3 4 3 1 1 3 1 5 5 10 1 10 8 11 11 11 13 13 10 10 10 17 18 21 31 31 33 35 35 30 30 31 33 35 34 34 33
3 3 2 2 6 6 2 4 3 4 4 10 9 0 3 3 11 4 4 10 10 10 10 11 12 11 10 16 5 19 22 21 28 33 34 35 36 32 33 33 33 33 34 33
6 4 4 1 8 4 3 2 5 5 9 13 3 2 7 13 12 9 4 5 7 9 8 8 9 9 10 14 16 15 20 23 26 25 28 32 34 36 35 35 34 34 33 31
2 3 3 3 5 0 3 10 2 12 9 11 10 7 10 14 10 8 5 5 5 8 8 8 6 7 15 17 23 21 6 25 26 25 26 28 32 33 31 32 31 30 30 32
6 2 1 1 1 6 4 5 4 3 5 5 8 7 6 6 4 6 7 8 6 7 8 9 14 11 12 17 22 26 20 14 30 35 32 30 28 27 31 31 29 30 29 30
6 4 3 2 1 3 2 5 6 4 3 2 7 6 7 7 4 2 4 8 6 6 12 14 15 14 18 18 19 19 18 19 15 2 22 23 28 28 26 27 29 28 29 27
4 1 7 2 1 6 6 6 6 3 4 1 5 7 7 5 2 1 7 9 8 8 12 16 17 16 16 18 15 13 12 13 12 6 9 17 20 25 26 26 26 29 30 30
7 6 3 3 2 6 4 2 1 3 3 4 5 5 6 5 6 7 8 8 9 11 18 21 18 17 18 20 14 10 10 8 6 9 14 16 22 25 27 30 28 30 34 34
4 5 5 6 6 4 5 4 2 4 2 5 6 4 6 6 5 7 6 7 8 10 13 16 15 16 16 18 17 10 10 6 9 15 21 22 23 26 29 31 32 28 29 27
6 4 1 4 3 3 4 5 4 3 8 6 7 8 7 7 8 7 7 8 8 10 11 14 13 12 13 16 14 11 9 11 17 19 20 24 26 26 27 28 28 28 25 27
4 2 3 3 3 1 4 4 3 10 10 11 11 10 9 9 8 6 7 9 8 12 15 14 13 12 11 11 12 10 9 14 21 21 24 23 28 30 31 29 26 32 28 29
4 4 2 1 7 3 2 9 9 11 6 7 9 9 10 9 7 7 8 9 11 12 14 14 13 12 12 10 11 10 9 14 19 20 21 24 25 30 34 37 42 40 43 40

GFSCGP_925_spd_108.txt.gz
Wind_Speed
5 4 19 16 10 10 9 5 8 2 4 3 7 16 7 9 8 9 9 9 11 9 6 4 10 17 23 27 31 34 33 27 25 22 22 21 20 20 23 24 24 32 33 39
3 16 6 9 9 10 9 14 19 4 5 6 11 27 13 6 8 9 10 11 11 7 6 5 10 16 19 19 27 33 31 29 28 23 24 17 19 17 21 16 23 32 29 40
13 8 15 11 7 12 16 19 9 8 1 7 3 25 16 9 6 8 8 9 9 11 11 8 9 15 19 23 25 29 31 28 29 26 22 14 16 11 15 16 22 29 30 37
11 17 14 4 12 10 16 10 8 9 5 6 5 10 2 5 9 5 9 9 10 9 10 8 10 11 22 19 22 29 27 21 28 26 23 20 14 9 15 16 16 28 32 37
22 7 11 16 18 12 8 10 12 7 6 2 3 4 5 2 3 8 5 9 12 11 11 12 13 15 22 23 29 29 24 22 26 25 20 17 13 16 12 18 16 28 36 39
15 2 9 13 8 18 7 3 3 3 4 5 8 7 3 3 4 4 6 12 16 14 11 10 7 15 18 21 24 25 23 24 24 22 17 18 14 15 14 16 17 25 29 29
13 10 3 5 5 5 7 7 2 1 3 6 10 7 9 5 3 6 4 10 14 15 9 6 9 12 19 24 24 23 24 23 24 21 17 17 17 15 20 19 20 21 26 28
6 5 16 7 7 7 11 14 5 7 4 4 7 6 5 10 8 7 5 10 15 18 17 8 5 5 13 20 22 22 24 21 21 21 20 16 16 16 19 21 25 20 26 30
3 5 4 11 9 9 5 9 8 3 1 2 4 4 8 5 7 7 6 12 13 14 13 15 4 5 13 17 19 19 20 19 21 22 20 18 16 16 18 19 24 27 23 30
4 3 3 4 5 7 9 7 3 1 6 7 3 3 4 2 6 7 5 7 8 15 17 15 7 4 12 16 18 18 17 15 15 15 14 18 16 15 17 19 21 25 28 30
3 3 5 1 4 8 4 5 4 5 5 5 2 5 4 4 4 8 4 6 9 16 15 19 4 5 10 14 17 17 16 14 13 14 19 16 15 13 15 18 20 23 26 29
5 4 4 7 5 2 1 4 10 5 7 2 3 5 5 7 8 7 5 8 7 16 14 15 7 4 8 13 14 13 12 12 13 14 18 19 19 18 16 16 20 21 23 24
5 3 2 1 3 5 3 2 2 5 3 6 5 4 2 4 7 6 7 7 9 14 18 15 13 7 1 8 13 16 15 14 13 17 17 17 18 19 20 19 19 20 22 25
4 3 6 3 2 8 6 6 6 4 5 7 3 4 5 4 1 5 6 7 10 11 17 11 12 12 13 3 8 15 18 19 19 18 19 19 19 19 20 22 22 22 22 24
1 5 3 7 8 5 5 8 12 4 1 6 3 2 2 5 5 4 6 7 7 11 14 9 9 8 11 17 14 2 11 18 22 21 23 24 23 22 20 18 23 24 23 25
2 2 4 6 9 5 1 3 12 5 3 4 4 6 5 6 6 8 7 7 5 8 10 3 7 9 10 15 17 17 12 14 20 24 25 25 24 24 25 23 21 23 25 26
4 1 2 2 6 9 2 6 9 4 2 4 2 4 5 5 8 7 7 7 4 7 8 8 8 9 14 17 16 16 17 12 13 20 22 24 26 25 26 26 25 24 25 25
5 3 1 2 4 6 3 4 5 4 3 4 6 10 11 5 8 9 8 7 6 8 9 9 9 12 16 19 23 25 13 14 8 8 18 23 25 24 26 26 26 26 26 28
8 2 2 1 2 4 1 3 4 4 4 3 9 11 11 8 8 8 10 9 8 10 9 9 14 14 16 18 18 15 17 18 16 14 7 2 19 23 24 27 28 27 25 25
3 0 2 2 0 1 2 4 4 1 1 1 8 12 16 7 3 3 7 7 8 9 12 13 14 13 18 20 20 14 16 17 20 21 19 14 13 25 26 25 28 27 27 25
1 2 3 2 2 5 4 8 6 1 3 4 11 13 12 4 0 8 7 8 8 8 11 12 9 12 14 15 15 15 16 17 18 18 17 15 13 17 29 27 27 30 29 27
1 0 2 1 2 6 1 4 2 3 3 6 2 3 8 11 8 8 8 8 8 7 10 13 11 11 14 18 19 16 16 20 17 14 14 14 12 5 12 25 25 26 29 26
1 3 3 5 4 3 2 3 4 5 1 2 6 7 10 9 6 6 6 6 7 8 9 12 11 11 14 17 16 13 15 16 15 16 17 15 14 10 7 10 15 21 22 22
3 4 3 2 2 4 7 6 6 8 11 10 10 10 9 10 8 7 5 5 6 10 11 12 11 14 17 20 20 18 16 15 13 12 14 15 18 20 20 18 17 18 15 17
3 6 6 3 4 3 8 11 5 7 14 15 11 10 10 11 9 7 5 6 6 8 10 12 12 12 12 13 14 16 17 15 16 17 16 17 20 22 27 29 24 25 20 19
4 5 3 2 8 4 9 12 8 10 13 11 11 12 10 10 9 7 6 7 7 8 9 9 12 12 14 14 14 15 15 12 12 14 15 15 18 22 24 28 34 33 32 33

GFSCGP_925_spd_111.txt.gz
Wind_Speed
5 7 19 18 20 19 13 11 14 6 2 6 13 21 18 13 11 11 14 16 17 18 17 14 8 6 7 14 21 25 29 30 31 29 23 19 19 23 23 26 28 28 33 30
5 19 12 11 15 15 17 20 25 14 12 11 19 28 20 17 18 20 19 18 18 17 15 12 9 7 10 14 20 24 27 30 27 24 23 15 19 22 24 25 24 28 29 31
18 28 17 11 10 17 20 23 18 17 8 10 10 29 20 18 20 18 16 18 15 13 14 15 10 12 12 16 19 23 27 31 28 22 19 17 17 14 20 24 24 26 30 35
17 27 14 9 18 15 19 11 17 15 9 11 6 12 3 9 12 9 10 5 7 9 11 14 13 10 16 14 16 20 24 27 26 26 22 22 19 16 16 21 26 21 26 34
12 5 18 23 19 15 9 10 15 16 15 10 16 8 2 4 5 1 5 5 8 10 11 12 13 12 12 17 20 22 24 24 24 25 26 24 17 16 16 21 20 24 26 32
24 14 10 19 13 20 6 6 5 3 6 8 13 12 4 9 7 7 4 6 7 12 12 12 8 6 10 14 18 21 24 20 22 23 25 22 18 14 14 19 22 22 27 31
11 22 16 9 12 13 17 12 6 7 6 9 6 11 11 7 5 8 8 6 8 12 13 12 10 1 6 11 15 18 20 18 18 20 20 17 14 15 16 18 18 21 22 26
9 8 21 16 18 12 19 17 8 9 7 7 9 9 6 12 10 9 6 7 10 14 13 13 9 3 5 12 14 17 19 16 18 18 16 13 13 13 13 18 15 22 22 27
4 6 4 10 12 16 9 17 16 2 1 3 6 6 8 8 14 8 5 10 14 14 15 17 10 2 3 10 15 18 18 17 18 18 16 15 12 12 17 19 16 20 21 28
3 6 6 0 15 12 10 17 9 6 9 7 4 3 4 12 13 10 8 12 11 12 16 17 13 6 0 7 12 16 20 19 19 18 17 14 12 12 15 15 16 19 24 31
7 3 2 5 7 19 12 11 7 9 5 10 9 5 4 1 14 10 11 11 12 14 16 16 13 8 1 6 10 15 18 16 17 18 17 15 13 10 12 15 17 20 20 29
4 4 6 12 4 1 11 21 11 11 13 7 5 5 3 6 10 10 11 11 12 16 17 16 14 12 3 7 11 13 15 15 16 19 17 16 15 12 10 12 14 16 22 25
7 3 5 5 3 5 6 4 5 15 0 14 9 5 3 7 9 9 13 9 8 14 18 16 15 13 14 0 9 12 14 15 17 20 17 17 17 18 15 13 14 14 17 20
1 4 8 2 3 1 1 3 6 5 12 16 8 7 10 8 8 9 11 10 8 10 14 16 14 11 14 19 6 7 11 14 16 16 17 19 18 18 21 19 16 16 16 16
1 2 6 14 7 1 3 2 3 2 3 13 17 13 12 11 6 9 10 9 10 9 11 11 12 10 14 18 20 16 9 12 15 15 15 17 17 17 19 22 21 18 17 17
8 3 3 3 13 6 1 0 5 3 2 4 6 4 3 4 10 9 10 11 12 10 10 12 12 11 11 16 19 20 13 12 6 14 15 15 18 17 17 21 25 24 22 20
6 7 9 5 6 7 5 2 1 2 4 3 5 4 7 11 12 9 11 11 11 9 10 10 10 10 13 16 21 22 19 14 12 10 11 14 18 18 19 19 19 23 25 25
7 9 4 6 10 3 1 5 6 2 11 7 6 10 9 12 13 13 11 11 10 10 9 10 9 12 14 13 12 14 13 15 14 15 7 12 17 20 22 20 21 20 22 27
12 3 4 3 6 4 2 4 2 1 2 1 11 11 13 13 12 12 11 11 10 10 9 10 11 11 12 17 17 11 13 15 14 16 15 12 9 17 22 24 24 22 23 22
5 5 3 4 4 2 1 6 5 3 1 2 12 11 12 8 4 2 8 11 12 12 12 10 12 14 16 17 15 17 18 15 15 16 14 14 11 12 17 26 25 26 27 26
3 1 6 6 4 6 5 12 6 2 3 6 12 9 10 4 1 7 7 10 10 10 12 11 11 13 15 17 15 15 16 19 19 18 15 16 13 9 12 21 26 26 27 27
3 3 1 2 3 6 14 8 4 3 2 4 9 4 6 13 9 9 6 7 8 8 12 13 11 12 15 17 17 15 17 17 17 16 15 15 17 16 13 6 15 22 26 26
3 1 3 4 3 4 9 7 8 6 1 4 7 9 13 12 9 7 7 8 8 10 11 12 12 12 15 16 15 15 17 18 16 16 17 19 19 19 15 11 12 16 17 19
4 6 4 3 1 2 10 7 10 10 12 11 11 11 11 12 9 9 7 7 7 10 11 13 13 14 15 17 16 14 13 12 12 13 14 14 20 19 18 17 17 18 18 19
5 6 5 5 5 6 14 14 10 11 14 13 16 14 11 11 10 8 7 6 7 9 12 13 14 14 15 15 15 15 15 12 11 12 13 14 18 22 25 27 21 20 17 21
4 4 4 3 10 3 7 13 14 12 10 9 16 12 11 10 9 8 7 8 9 11 12 13 13 13 14 14 15 15 13 10 8 12 14 16 19 21 22 26 35 36 33 32

GFSCGP_925_spd_114.txt.gz
Wind_Speed
13 10 21 21 23 26 22 24 22 18 7 13 17 21 20 18 20 18 18 20 19 18 19 23 19 16 12 10 15 23 26 29 31 30 28 22 21 21 20 20 25 28 32 36
15 24 29 19 21 22 24 26 28 21 17 14 21 28 25 23 22 21 20 21 22 22 19 18 16 16 12 12 15 22 25 29 29 28 26 18 21 20 20 20 24 26 30 35
19 37 12 23 18 21 24 25 20 21 16 17 20 31 25 26 27 24 23 24 21 18 15 13 13 16 15 15 18 21 25 29 27 26 23 18 17 13 19 19 22 27 30 32
17 19 21 24 25 23 23 20 19 18 13 16 14 22 15 4 8 11 14 12 10 9 10 12 13 13 14 15 15 18 23 28 28 28 25 24 22 17 18 20 19 23 25 25
33 23 11 18 34 19 25 17 15 15 15 16 21 11 11 11 13 11 8 5 6 4 6 8 9 12 10 13 15 18 23 26 26 28 23 22 18 14 14 19 20 21 20 26
32 26 25 24 19 24 18 12 11 10 10 14 20 16 11 12 10 7 5 5 1 3 4 5 4 4 8 13 15 19 23 25 24 25 21 20 19 16 15 17 17 17 18 24
26 28 28 27 25 21 25 18 10 10 10 17 9 13 18 4 6 7 7 5 3 5 6 7 5 1 7 11 14 17 24 24 23 23 21 20 18 16 17 18 20 16 21 23
16 21 22 19 28 26 23 25 12 19 13 14 12 10 9 13 14 9 9 5 4 6 7 9 7 3 4 8 12 16 21 21 23 23 22 20 16 15 17 17 15 16 21 26
11 11 22 18 25 25 26 22 28 18 13 8 12 16 8 7 15 14 9 6 4 6 9 10 9 7 5 4 9 14 17 18 20 22 20 18 15 16 15 13 12 17 17 22
5 14 15 8 15 22 24 23 21 14 19 20 18 18 8 14 17 16 10 7 5 8 9 9 9 8 7 1 7 12 14 17 17 19 18 16 14 14 12 12 10 14 18 21
10 7 8 7 10 19 17 16 19 20 16 15 14 12 8 14 17 15 10 7 7 9 9 11 10 10 8 2 4 9 12 15 17 17 16 14 13 13 11 11 10 13 19 24
3 6 8 14 4 5 22 21 24 14 23 16 12 7 5 8 16 13 11 10 10 10 12 13 13 12 18 5 4 9 11 13 15 14 14 14 13 13 10 9 10 15 21 25
11 6 12 6 6 7 4 18 19 21 15 19 15 10 7 10 13 13 14 12 10 11 12 12 13 13 14 21 4 8 10 11 12 14 14 13 15 14 12 11 10 11 19 24
11 6 6 8 16 2 6 2 9 19 15 16 15 15 10 11 14 14 13 11 10 9 11 12 13 13 15 17 18 20 2 9 11 13 14 14 16 16 14 12 12 12 13 21
14 9 12 15 19 11 2 12 10 10 20 17 16 15 12 14 12 13 12 10 9 9 10 11 12 11 13 15 15 16 20 18 6 15 14 14 16 16 14 14 13 13 14 15
13 8 16 18 9 12 3 4 3 12 14 16 12 19 11 12 9 11 11 11 9 8 10 10 12 11 11 14 13 13 16 20 14 3 13 14 15 15 16 16 15 14 14 15
9 7 11 7 14 5 4 9 2 3 3 4 10 3 5 12 12 10 10 9 9 9 9 10 11 9 12 13 10 11 16 19 17 13 5 10 14 16 17 16 16 16 15 15
8 10 5 10 11 3 4 10 3 5 4 5 5 6 8 12 12 13 9 10 9 9 10 10 9 11 13 14 16 15 15 14 16 16 14 12 3 15 17 16 16 17 17 17
9 7 5 5 8 2 5 9 9 8 6 11 4 9 14 14 15 13 10 11 10 10 8 10 10 12 13 14 14 13 16 16 19 19 16 14 11 7 4 18 20 19 18 18
2 6 5 6 5 3 5 15 16 4 3 6 6 10 11 10 5 5 6 8 9 11 12 10 9 11 14 15 13 14 15 14 16 19 17 14 12 10 9 8 16 20 20 20
7 3 4 5 3 6 14 20 15 4 8 12 9 12 8 7 5 6 3 8 10 12 12 10 11 12 14 13 12 11 11 14 12 12 12 12 13 11 9 11 13 19 19 20
5 5 2 4 3 4 20 10 10 12 15 7 11 5 6 9 9 7 8 9 11 10 11 12 11 12 13 14 13 10 12 11 9 10 12 13 14 12 10 5 6 16 19 20
3 6 6 5 6 12 13 12 13 14 4 8 7 3 7 9 9 9 8 7 8 9 11 12 11 11 14 14 14 12 13 12 10 10 11 11 11 10 13 14 9 13 15 17
4 9 3 7 4 10 12 14 13 12 13 10 12 10 9 10 8 7 7 7 7 10 11 13 12 13 14 14 13 13 13 11 12 13 13 13 18 17 19 20 16 14 15 18
6 6 11 10 9 10 14 14 13 12 12 13 13 14 11 10 9 7 7 7 7 8 10 12 12 13 14 15 16 17 15 13 13 13 13 14 17 21 25 30 20 18 14 16
2 3 4 3 8 2 7 11 11 11 11 11 10 13 13 10 9 7 7 8 9 10 11 12 13 13 14 15 16 16 14 13 12 15 15 17 17 19 21 24 33 36 31 28

GFSCGP_925_spd_117.txt.gz
Wind_Speed
11 17 26 22 22 27 20 25 27 26 20 20 21 22 19 21 23 22 21 20 17 16 14 19 22 22 22 19 17 19 22 28 29 30 29 25 24 22 19 18 18 20 20 22
14 25 25 24 26 29 25 27 30 28 26 21 24 23 22 22 25 22 21 21 20 19 20 19 21 22 22 18 19 20 23 27 30 30 26 23 24 20 18 18 19 19 22 21
21 31 23 25 26 29 30 27 28 26 24 19 23 29 25 27 28 27 27 25 22 21 21 20 18 21 18 22 22 21 23 27 28 28 25 24 20 13 16 16 18 20 21 27
22 27 26 26 29 28 26 27 26 23 20 18 21 22 22 24 25 23 24 25 23 21 20 16 12 13 20 22 20 20 22 26 27 30 28 29 24 18 19 18 20 20 22 22
28 29 29 30 26 20 31 25 25 22 18 20 25 18 15 15 19 17 14 13 13 6 7 11 13 14 19 20 18 19 21 26 27 30 30 28 25 20 17 18 17 19 20 23
23 25 25 30 33 31 26 23 26 20 16 17 25 22 19 17 12 11 4 1 6 5 5 5 5 5 12 11 13 14 19 24 26 28 29 28 25 20 18 18 17 18 20 21
31 22 21 33 30 29 28 22 17 16 15 20 23 21 19 13 11 11 15 10 8 7 4 1 2 1 3 10 10 11 17 21 22 26 27 25 22 19 18 17 17 16 16 16
18 29 22 26 29 28 28 26 17 24 16 21 22 19 18 17 16 8 10 11 8 5 5 6 6 4 2 3 9 11 16 16 18 21 23 21 19 18 16 16 15 16 18 16
18 21 40 30 20 23 26 25 27 26 20 14 13 18 19 15 13 14 12 11 7 6 7 8 9 7 7 1 4 8 12 15 17 20 21 20 19 17 16 15 14 15 12 12
12 29 21 22 19 23 23 21 23 18 23 23 17 18 16 19 14 21 15 10 8 8 7 7 8 8 7 2 3 6 9 12 16 21 20 20 19 17 13 13 10 11 11 13
20 7 22 13 7 12 13 19 21 18 19 18 15 15 16 14 18 19 16 11 8 7 8 9 7 9 11 6 1 5 8 10 15 18 18 17 16 15 13 12 11 11 11 13
5 8 14 31 14 16 21 21 23 11 21 18 16 14 12 12 14 15 14 11 11 11 10 10 10 10 12 14 8 2 7 8 13 10 12 12 13 13 13 11 11 10 14 14
10 7 13 20 8 18 12 16 19 19 17 21 16 15 5 3 13 10 16 14 11 11 11 11 12 13 12 13 14 19 2 5 9 12 12 11 13 13 12 11 10 11 15 17
11 11 17 15 19 14 16 23 15 16 15 18 18 18 7 13 14 16 17 12 11 11 11 11 10 11 13 14 13 14 17 20 8 11 11 12 13 12 13 13 12 12 15 19
14 17 17 21 25 19 18 13 13 12 15 17 18 19 14 15 15 15 14 12 10 11 9 10 10 10 10 13 15 14 15 17 18 10 9 13 13 15 16 14 13 12 14 20
15 12 18 22 13 17 19 8 13 15 18 19 15 21 17 6 19 18 17 12 11 10 10 10 9 10 9 11 12 13 15 16 17 16 17 14 13 14 13 12 13 14 13 16
9 10 15 15 16 19 6 12 5 7 10 13 16 12 16 10 8 9 10 12 11 11 9 9 9 8 10 10 9 12 14 15 17 17 19 23 7 13 9 12 14 13 15 15
10 13 11 12 14 3 8 12 8 10 4 7 7 19 11 17 20 18 15 12 12 9 9 9 9 10 12 11 10 10 12 13 14 17 17 22 17 8 6 13 12 15 14 14
7 8 6 6 11 2 4 14 17 14 11 14 13 5 10 13 18 19 14 10 10 8 8 9 10 11 11 13 12 10 13 14 14 16 17 18 19 13 9 3 14 14 14 13
8 8 6 10 7 4 12 20 18 18 2 22 19 8 9 8 6 7 9 9 10 11 11 11 11 12 14 15 13 12 13 14 16 16 16 17 16 15 11 10 8 10 16 15
9 7 7 7 4 4 19 20 22 3 10 16 12 11 13 12 7 6 6 10 10 12 12 10 12 13 14 15 13 12 14 17 16 13 8 9 12 14 13 12 11 10 10 16
5 7 3 6 4 3 24 12 10 12 19 14 2 10 11 15 12 10 10 9 9 10 12 12 11 13 15 16 14 13 15 16 17 19 21 21 21 16 14 11 9 2 12 19
2 4 5 6 11 14 15 14 16 14 14 13 13 7 12 12 10 9 7 7 10 11 13 13 13 13 15 16 16 14 15 15 14 14 15 16 16 19 17 16 13 9 9 17
10 8 4 14 6 12 14 15 15 13 13 13 15 12 11 12 9 10 8 9 9 11 14 14 14 14 15 16 16 15 15 13 14 14 16 18 20 19 20 20 17 15 13 15
5 8 11 11 10 12 15 13 14 13 13 12 14 14 11 12 12 10 10 10 10 13 14 15 14 14 15 15 16 17 16 13 12 13 14 14 16 19 23 31 23 21 15 13
3 1 4 5 8 7 8 11 14 12 11 11 11 11 12 13 12 13 12 14 15 15 16 15 15 15 15 14 15 17 16 15 12 13 15 15 15 17 19 22 30 34 28 23

GFSCGP_925_spd_120.txt.gz
Wind_Speed
13 15 14 19 21 26 23 24 28 27 25 22 24 23 23 18 18 20 19 12 15 14 12 18 20 22 17 18 23 21 27 31 32 30 28 26 25 26 21 24 23 23 24 25
15 19 19 21 25 26 27 28 29 28 23 20 21 24 26 25 18 18 17 17 18 17 14 8 9 14 18 21 21 20 19 27 31 30 28 25 24 22 25 24 25 23 23 26
17 23 23 22 26 28 26 24 29 28 25 18 18 23 26 28 28 21 22 21 22 16 17 12 9 14 19 19 18 19 17 20 29 27 26 23 23 16 24 25 25 26 25 24
12 16 24 23 26 25 28 28 30 27 22 17 17 18 20 21 24 26 26 25 24 21 18 13 16 14 20 23 23 20 19 21 26 30 28 27 23 18 19 21 23 24 26 26
21 24 25 25 28 29 30 29 25 24 25 20 23 14 20 20 24 26 25 27 25 24 15 15 15 11 6 12 27 25 23 22 25 32 29 28 23 23 19 19 24 24 23 25
21 24 28 25 19 21 25 28 28 25 17 18 20 19 15 17 23 23 14 14 15 7 6 4 3 3 4 4 20 21 18 20 30 30 27 30 28 24 23 24 24 26 26 25
25 21 24 8 28 28 23 22 15 17 15 14 22 19 15 16 23 26 10 13 10 9 5 4 4 5 4 15 11 7 4 12 29 27 29 28 26 24 25 25 22 23 23 24
16 27 19 25 31 20 25 19 15 22 15 16 21 21 19 25 25 17 10 13 10 10 7 9 10 9 9 12 12 6 2 11 12 22 24 22 29 24 17 18 19 20 21 23
16 28 30 24 21 21 10 15 19 21 23 14 14 17 23 24 19 20 16 16 10 8 11 14 9 8 12 12 8 4 5 8 8 14 13 17 22 19 17 13 15 13 17 17
17 26 19 24 21 16 13 16 13 13 21 20 17 20 12 19 17 12 16 15 11 12 11 11 9 9 10 7 4 1 3 4 13 16 16 9 14 17 12 13 15 15 16 16
16 6 23 21 14 14 12 10 16 15 16 14 13 13 16 6 19 17 17 16 13 18 15 8 8 9 12 13 14 3 1 2 7 12 17 14 15 16 16 14 13 17 12 14
8 7 14 29 12 9 15 14 17 9 20 13 14 17 19 13 6 14 16 16 17 16 16 11 11 13 14 14 14 17 10 3 6 9 8 17 15 19 15 14 14 14 14 13
8 5 14 22 7 19 24 22 22 20 17 16 12 16 14 8 11 12 17 13 6 18 17 13 12 12 13 15 15 15 18 16 9 3 5 7 8 9 9 13 12 16 14 14
6 6 13 14 19 20 21 26 26 16 8 11 13 18 16 1 10 12 16 18 9 17 17 12 11 12 14 15 15 16 17 18 15 10 6 6 8 9 10 13 13 12 13 14
12 17 19 20 23 24 18 20 16 13 11 6 15 15 8 11 16 14 13 14 14 15 16 13 11 11 12 14 13 14 17 19 17 14 13 8 6 10 11 12 16 15 14 15
18 13 20 21 23 18 26 13 16 12 13 14 15 15 18 14 9 6 12 12 18 16 16 11 12 12 10 12 12 12 16 19 19 17 15 14 10 13 12 13 16 16 14 14
18 9 15 19 18 23 7 11 9 6 5 12 12 11 15 14 16 12 24 24 18 17 16 11 12 11 12 12 11 13 14 15 17 15 17 17 17 13 11 7 14 16 16 14
14 12 9 12 17 5 8 16 19 14 17 21 22 21 15 15 16 17 16 14 15 15 15 12 10 14 15 15 13 13 13 14 16 17 17 20 19 17 13 9 8 14 15 16
8 8 5 5 10 12 5 25 24 21 14 24 20 18 6 17 20 14 12 12 13 11 10 11 14 15 16 16 15 14 14 14 16 18 17 16 15 16 16 12 10 7 10 14
12 9 6 9 8 5 16 25 28 9 2 26 23 20 16 10 8 6 12 14 13 13 14 14 15 16 19 19 16 16 16 16 17 17 16 15 15 15 16 17 13 9 6 10
8 6 8 9 6 3 20 23 16 12 10 16 15 16 12 8 6 4 12 13 15 15 15 15 18 18 20 20 17 17 16 17 15 15 16 18 18 15 14 16 14 10 7 9
6 6 4 6 7 4 23 10 8 9 14 15 15 2 9 11 6 13 12 14 14 15 18 19 17 18 20 20 17 17 17 16 15 15 17 19 20 17 15 13 11 10 2 15
2 5 5 6 4 5 11 7 12 13 10 11 13 13 12 10 13 14 12 14 14 18 18 17 17 18 20 20 19 17 17 15 15 17 17 19 21 20 18 24 24 13 10 14
9 9 4 10 10 12 13 14 14 13 13 11 14 11 12 14 13 14 13 13 12 17 17 16 18 18 18 19 19 18 19 16 16 17 16 18 21 23 27 23 15 13 19 14
3 4 6 8 11 5 12 13 13 13 13 14 12 15 14 13 14 13 12 12 14 16 17 18 18 16 17 17 18 19 19 17 16 17 17 18 18 20 24 35 31 26 18 10
3 1 1 3 4 4 7 8 13 11 11 10 11 12 15 13 12 10 10 13 14 15 17 18 17 17 18 18 19 19 19 17 14 16 17 18 19 20 21 21 29 34 35 31

GFSCGP_925_spd_123.txt.gz
Wind_Speed
8 6 7 14 10 17 17 18 22 24 23 19 22 23 22 17 17 14 17 14 11 13 11 27 31 37 38 40 41 42 40 40 39 35 32 31 34 34 26 28 29 32 28 31
6 6 8 19 17 16 17 20 23 25 19 16 19 22 23 16 22 19 17 18 15 9 9 8 11 27 33 32 28 37 42 44 40 40 35 27 30 33 33 28 27 26 28 29
6 11 12 16 18 20 22 20 18 24 26 23 21 25 21 19 16 18 22 19 15 10 9 9 7 9 14 18 21 33 38 44 39 33 30 21 25 24 28 29 27 27 28 28
3 6 13 15 19 19 24 17 21 23 22 17 17 18 20 15 18 20 21 21 19 15 11 9 11 8 12 15 22 34 35 39 39 39 34 35 29 20 20 23 26 28 27 27
5 13 16 17 15 19 15 19 22 22 19 20 22 11 24 11 18 20 22 19 21 20 19 12 10 9 20 21 28 35 34 35 37 39 38 37 27 23 21 23 26 27 29 30
11 7 13 16 18 16 21 16 19 18 13 16 17 15 22 15 19 18 23 17 21 25 23 12 6 9 11 12 24 31 29 26 36 41 37 35 30 26 22 24 25 26 27 29
15 6 14 13 22 23 11 10 6 6 7 14 12 16 15 11 13 19 12 11 2 7 9 9 12 11 15 21 21 19 17 12 27 34 34 35 34 28 29 29 30 30 27 26
8 20 8 16 19 16 22 13 10 7 4 12 13 17 16 14 22 22 14 6 7 14 14 15 14 14 16 19 18 15 10 12 8 21 29 31 30 29 30 30 29 31 31 29
6 12 18 14 16 10 8 6 14 12 13 10 8 21 17 23 24 18 13 14 11 9 14 16 16 14 17 21 18 12 10 9 1 10 22 25 25 27 27 26 29 31 30 27
5 19 10 11 18 4 13 11 5 2 4 5 9 16 15 13 17 23 13 11 16 16 15 15 13 13 21 22 18 13 8 6 1 5 6 12 14 19 16 20 20 20 23 22
4 2 16 9 6 20 10 8 6 5 7 3 5 9 3 8 18 17 20 18 17 15 15 13 15 17 19 19 18 15 13 8 5 2 4 6 8 13 14 14 13 14 17 19
1 4 8 23 22 11 3 13 6 5 4 7 5 12 4 10 11 13 12 16 16 18 17 17 13 12 14 12 14 16 15 14 9 3 3 5 9 14 14 15 14 15 15 16
3 4 7 15 3 1 16 21 18 13 7 6 7 8 14 14 14 16 12 17 18 20 16 13 12 11 10 11 14 15 17 14 12 8 2 1 5 12 15 15 12 15 16 15
2 4 2 8 16 18 23 28 24 12 5 6 13 12 19 14 12 15 19 24 12 16 20 12 9 10 11 13 16 16 17 17 15 13 11 8 4 5 9 11 13 17 17 14
4 3 11 16 19 22 23 18 20 19 15 8 9 9 13 10 13 12 15 17 6 19 19 17 9 9 9 12 15 17 19 21 19 17 14 13 9 1 4 8 15 17 16 15
7 5 11 21 17 19 19 9 18 14 19 13 15 4 12 8 10 15 18 22 25 11 17 19 16 11 8 11 13 15 18 22 22 21 19 15 12 7 3 11 15 18 17 16
5 4 6 16 16 20 2 10 16 5 20 17 15 15 2 11 12 13 15 20 16 15 14 15 16 12 13 12 14 15 18 21 23 21 21 20 16 11 8 6 1 19 19 17
16 13 6 9 12 4 6 12 18 12 20 15 17 18 8 13 11 12 9 12 12 11 12 14 13 18 19 20 17 19 19 19 19 20 20 21 20 16 13 9 6 8 15 18
4 5 3 2 5 11 17 17 19 12 8 20 17 17 11 11 14 15 11 11 12 13 12 17 23 21 23 22 21 20 20 17 18 18 19 20 20 16 15 13 11 8 8 11
3 10 4 2 5 1 9 21 25 16 4 24 19 16 12 7 10 7 12 13 15 15 19 21 23 23 24 24 20 19 17 18 19 18 17 17 19 16 16 15 13 10 6 8
5 4 2 3 2 3 17 17 16 9 7 19 16 10 11 10 8 12 15 16 19 21 21 23 23 20 21 21 21 19 17 19 17 17 17 19 19 16 16 16 14 14 7 2
3 5 3 4 4 4 20 6 7 7 8 10 12 14 12 11 13 13 14 15 15 17 23 19 18 20 21 24 19 18 17 17 16 16 18 20 20 19 18 18 16 15 6 8
2 3 1 3 3 3 6 7 8 8 8 10 11 11 12 13 14 14 13 13 14 19 20 21 19 19 23 23 20 19 18 17 15 16 18 20 23 25 23 24 21 19 12 10
1 3 2 2 5 3 8 8 10 7 9 10 11 12 11 10 10 11 11 10 10 17 18 18 17 18 18 18 19 20 18 16 16 17 18 19 23 27 30 29 26 26 20 15
3 2 2 2 3 3 6 10 10 9 8 10 9 12 11 9 11 11 10 9 13 16 17 18 17 16 17 17 19 22 21 16 16 18 18 18 20 22 24 33 30 24 27 14
3 5 3 4 2 1 2 5 6 9 8 7 8 9 10 10 10 10 9 13 15 15 16 16 15 15 15 17 20 23 20 18 16 17 17 17 18 20 20 22 31 37 36 35

GFSCGP_925_spd_126.txt.gz
Wind_Speed
4 5 2 4 4 6 6 10 18 23 17 13 15 23 24 20 20 19 19 17 15 14 18 24 33 35 33 41 37 44 41 40 37 32 32 32 37 36 36 36 34 34 36 33
6 1 3 6 8 11 14 17 21 26 19 17 18 24 26 26 25 25 21 18 17 11 16 14 18 29 27 32 36 39 42 45 43 41 39 30 33 37 37 37 34 32 33 33
2 5 6 12 11 13 14 13 16 19 25 23 21 27 21 22 20 24 24 22 19 17 13 18 13 17 24 30 32 36 40 42 44 39 32 25 26 23 25 33 37 35 32 31
2 7 11 12 12 8 19 9 14 21 18 16 11 24 27 24 25 24 25 21 17 13 13 15 18 9 18 30 36 34 39 39 40 40 36 37 35 24 28 29 34 38 31 31
3 8 13 11 6 11 13 15 20 19 20 19 29 13 25 15 22 22 20 22 14 15 11 14 16 11 20 21 26 33 38 38 38 42 40 38 28 27 25 28 32 34 32 31
1 4 2 4 13 11 16 11 23 23 10 9 30 16 22 19 20 19 19 21 12 13 12 12 11 15 9 12 12 27 34 35 37 41 38 37 32 29 27 26 29 28 33 32
9 3 3 5 21 10 10 14 6 5 1 12 14 15 22 15 13 19 19 16 13 12 12 15 9 7 10 16 19 14 22 21 27 29 32 35 33 33 34 34 29 29 28 29
5 5 4 7 11 8 14 4 5 7 9 18 18 10 10 10 10 14 17 17 2 8 11 12 16 11 12 17 23 27 24 15 19 26 27 30 32 33 33 33 32 31 31 33
4 4 12 11 5 3 3 4 14 10 11 9 4 8 11 8 13 11 11 13 8 11 14 14 16 14 17 22 24 25 21 19 12 11 16 22 29 32 30 30 30 31 33 33
4 14 5 4 12 3 4 9 7 6 7 6 5 7 5 13 14 15 21 13 12 13 14 15 14 14 20 21 26 27 23 17 12 8 6 16 22 24 26 26 28 28 30 29
1 4 10 5 1 13 7 5 4 7 6 7 6 4 18 22 18 19 22 6 18 6 13 14 13 15 21 19 26 24 21 17 15 10 3 4 8 12 22 24 28 28 28 29
4 3 4 19 22 10 1 11 10 4 9 5 5 5 10 12 16 19 22 19 14 14 14 14 13 12 21 20 20 18 19 20 15 8 6 3 2 9 18 23 20 20 23 26
2 3 6 11 5 4 9 17 17 14 13 11 8 6 10 13 12 11 16 20 10 12 13 15 16 13 13 20 19 20 25 22 18 13 8 7 2 7 15 19 20 21 25 24
0 3 7 6 12 12 14 22 22 9 12 4 7 12 15 16 17 13 9 11 12 11 14 18 14 13 16 19 18 19 21 22 20 16 15 12 10 6 10 19 23 22 21 20
2 2 5 14 16 16 19 15 19 11 20 8 16 11 13 12 11 8 12 12 19 18 12 14 12 13 12 13 16 20 22 22 21 20 19 17 11 8 3 6 14 17 18 18
1 4 6 14 14 10 14 11 15 10 17 21 20 9 19 10 9 14 13 15 19 18 20 18 17 15 10 13 16 15 19 22 22 20 21 19 16 12 9 4 5 17 18 16
2 2 2 7 8 16 2 13 15 8 17 14 12 13 22 3 9 10 10 14 15 15 15 16 16 13 14 16 17 18 18 19 21 21 21 22 21 17 14 9 7 13 18 19
5 5 4 6 7 2 2 7 10 15 16 20 21 20 17 16 19 20 15 12 15 14 14 14 13 18 14 13 17 19 21 19 19 20 21 23 22 19 19 13 12 8 4 19
8 4 2 2 2 4 8 14 12 12 5 20 19 21 16 9 15 22 20 18 16 14 12 14 18 19 18 20 18 19 19 18 19 19 20 22 21 18 19 18 17 12 8 4
2 2 2 2 2 2 5 21 19 14 1 20 20 15 12 14 9 7 14 16 16 18 19 19 21 21 20 19 17 19 17 18 18 18 17 17 19 17 19 19 18 15 11 10
4 3 2 2 3 3 10 19 16 4 6 17 15 13 10 7 4 4 11 15 20 20 19 19 18 17 17 18 17 17 17 17 16 16 17 19 18 17 19 16 16 15 11 3
2 2 2 3 3 2 12 6 6 4 7 9 10 10 8 7 7 9 11 13 15 17 20 21 18 18 20 21 19 19 18 16 16 17 17 20 21 20 19 17 17 16 10 6
1 4 3 4 3 1 3 2 4 4 6 6 9 10 7 8 9 11 11 12 14 19 20 19 16 16 18 20 21 18 17 15 16 18 19 20 22 23 21 22 22 19 15 9
4 1 2 2 5 7 3 1 5 5 7 7 7 8 7 7 9 9 9 10 12 17 17 16 16 17 17 19 19 18 16 12 13 16 18 19 21 24 27 26 25 25 18 14
5 2 3 3 4 8 5 2 3 5 4 6 7 8 6 6 8 8 10 10 14 15 16 15 14 14 15 16 16 17 16 12 16 18 16 16 18 19 22 31 28 25 27 15
4 6 4 5 3 2 2 2 1 4 5 2 6 8 8 8 7 8 6 11 12 13 14 14 14 16 15 14 17 18 17 16 16 14 14 15 14 16 17 18 27 33 31 30